[[[{"header":{"parameterUnit":"kt","parameterCategory":2,"dx":1,"dy":1,"la1":29.587661999999998,"la2":31.0,"lo1":-88.76705300000003,"lo2":-86.6583820000003,"nx":115,"ny":88,"refTime":"2022-09-19T06:00:00:Z","depth":0,"parameterNumber":1,"parameterNumberName":"U-component_of_WINDS"},"data":[9.0505,8.9002,8.8513,8.8099,8.77,8.7578,8.8456,9.0077,9.1394,9.2948,9.445,9.5914,9.677,9.6849,9.6745,9.6638,9.6524,9.643,9.6364,9.6238,9.626,9.605,9.5868,9.5706,9.5636,9.5478,9.5055,9.3453,9.0919,9.0427,8.9137,8.6192,8.5997,8.5989,8.5939,8.5916,8.5791,8.5725,8.5591,8.5531,8.5531,8.5531,8.5531,8.5531,8.5531,8.5531,8.5531,8.5531,8.5531,8.5531,8.5531,8.5531,8.5531,8.5531,8.5531,8.5531,8.5531,8.5531,8.5531,8.5531,8.5531,8.5531,8.5531,8.5531,8.5531,8.5531,8.5531,8.5531,8.5531,8.5531,8.5531,8.5531,8.5531,8.5531,8.5531,8.5531,8.5531,8.5531,8.5531,8.5531,8.5531,8.5531,8.5531,8.5501,8.5476,8.5453,8.5383,8.5326,8.514,8.498,8.4834,8.4485,8.4136,8.3309,8.1583,7.8698,7.7543,7.6469,7.5375,7.4545,7.3965,7.3771,7.3515,7.328,7.3105,7.3008,7.282,7.2639,7.2455,7.227,7.1854,7.1487,7.1324,7.1146,7.0965,9.2986,9.2398,9.0771,8.9249,8.7962,8.7737,8.8728,9.0364,9.1713,9.3276,9.5035,9.6491,9.7046,9.7031,9.6901,9.6809,9.6701,9.6553,9.6452,9.6342,9.6305,9.602,9.5813,9.5672,9.5438,9.5282,9.5099,9.3111,9.0613,9.0215,8.903,8.6301,8.5599,8.5607,8.5599,8.5584,8.5635,8.5584,8.5576,8.5539,8.5531,8.5531,8.5531,8.5531,8.5531,8.5531,8.5531,8.5531,8.5531,8.5531,8.5531,8.5531,8.5531,8.5531,8.5531,8.5531,8.5531,8.5531,8.5531,8.5531,8.5531,8.5531,8.5531,8.5531,8.5531,8.5531,8.5531,8.5531,8.5531,8.5531,8.5531,8.5531,8.5531,8.5531,8.5531,8.5531,8.5531,8.5531,8.5531,8.5531,8.5531,8.5531,8.5531,8.5531,8.5516,8.5516,8.5499,8.5422,8.5298,8.51,8.4629,8.4149,8.2847,8.0684,7.8753,7.7329,7.6718,7.5787,7.5133,7.4494,7.3988,7.3797,7.3575,7.3333,7.3167,7.3079,7.2909,7.27,7.2591,7.2462,7.2031,7.1599,7.1393,7.1189,7.0975,9.4866,9.4517,9.2653,9.1423,9.0744,9.0524,9.1437,9.289,9.3599,9.4807,9.6384,9.6939,9.724,9.7139,9.7049,9.6948,9.6754,9.6624,9.648,9.6394,9.6268,9.5982,9.5774,9.5648,9.5361,9.5119,9.4871,9.3618,9.0907,9.0088,8.8824,8.6088,8.5546,8.5546,8.5546,8.5539,8.5575,8.5531,8.5539,8.5531,8.5531,8.5531,8.5531,8.5531,8.5531,8.5531,8.5531,8.5531,8.5531,8.5531,8.5531,8.5531,8.5531,8.5531,8.5531,8.5531,8.5531,8.5531,8.5531,8.5531,8.5531,8.5531,8.5531,8.5531,8.5531,8.5531,8.5531,8.5531,8.5531,8.5531,8.5531,8.5531,8.5531,8.5531,8.5531,8.5531,8.5531,8.5531,8.5531,8.5531,8.5531,8.5531,8.5531,8.5531,8.5523,8.5523,8.5531,8.5483,8.5329,8.5184,8.4343,8.333,8.0747,7.8483,7.7325,7.6619,7.599,7.5412,7.4818,7.4416,7.4193,7.3914,7.361,7.3376,7.3193,7.3105,7.2918,7.2709,7.2572,7.2434,7.2069,7.1657,7.1403,7.1189,7.0925,9.6638,9.6232,9.4539,9.345,9.2978,9.2816,9.3662,9.525,9.5528,9.641,9.742,9.7468,9.7364,9.7284,9.719,9.7086,9.6891,9.672,9.6559,9.6466,9.629,9.5997,9.5703,9.5632,9.5438,9.518,9.4738,9.3915,9.211,9.0521,8.8824,8.5892,8.5531,8.5531,8.5531,8.5531,8.5531,8.5531,8.5531,8.5531,8.5531,8.5531,8.5531,8.5531,8.5531,8.5531,8.5531,8.5531,8.5531,8.5531,8.5531,8.5531,8.5531,8.5531,8.5531,8.5531,8.5531,8.5531,8.5531,8.5531,8.5531,8.5531,8.5531,8.5531,8.5531,8.5531,8.5531,8.5531,8.5531,8.5531,8.5531,8.5531,8.5531,8.5531,8.5531,8.5531,8.5531,8.5531,8.5531,8.5531,8.5531,8.5531,8.5531,8.5523,8.5508,8.5493,8.5485,8.5445,8.5266,8.4446,8.3538,8.1704,7.8998,7.7511,7.679,7.608,7.5561,7.5027,7.4731,7.4567,7.4427,7.4147,7.383,7.3523,7.3184,7.3034,7.2908,7.2673,7.248,7.2323,7.2003,7.1618,7.1344,7.1056,7.079,9.827,9.7949,9.6332,9.4758,9.3232,9.3196,9.4038,9.5508,9.6848,9.7639,9.7691,9.7604,9.7533,9.7481,9.7284,9.7182,9.7034,9.6796,9.6608,9.6573,9.6372,9.6035,9.5774,9.5624,9.5463,9.5196,9.4882,9.4593,9.3699,9.1605,8.8788,8.5748,8.5531,8.5531,8.5531,8.5531,8.5531,8.5531,8.5531,8.5531,8.5531,8.5531,8.5531,8.5531,8.5531,8.5531,8.5531,8.5531,8.5531,8.5531,8.5531,8.5531,8.5531,8.5531,8.5531,8.5531,8.5531,8.5531,8.5531,8.5531,8.5531,8.5531,8.5531,8.5531,8.5531,8.5531,8.5531,8.5531,8.5531,8.5531,8.5531,8.5531,8.5531,8.5531,8.5531,8.5531,8.5531,8.5531,8.5531,8.5531,8.5531,8.5531,8.5531,8.5531,8.5516,8.537,8.5337,8.5274,8.4721,8.347,8.205,8.0291,7.8289,7.679,7.614,7.5682,7.5186,7.4973,7.4769,7.4606,7.448,7.4283,7.4048,7.3617,7.3193,7.3025,7.2811,7.2575,7.2353,7.2167,7.1898,7.154,7.1191,7.0891,7.0648,9.8593,9.8389,9.7637,9.6953,9.6186,9.5968,9.6177,9.6814,9.7513,9.7773,9.7773,9.7728,9.767,9.7551,9.7414,9.7271,9.7189,9.6898,9.6664,9.6587,9.6423,9.609,9.5852,9.5643,9.5495,9.5316,9.5174,9.5026,9.4132,9.1829,8.8724,8.5827,8.5531,8.5531,8.5531,8.5531,8.5531,8.5531,8.5531,8.5531,8.5531,8.5531,8.5531,8.5531,8.5531,8.5531,8.5531,8.5531,8.5531,8.5531,8.5531,8.5531,8.5531,8.5531,8.5531,8.5531,8.5531,8.5531,8.5531,8.5531,8.5531,8.5531,8.5531,8.5531,8.5531,8.5531,8.5531,8.5531,8.5531,8.5531,8.5531,8.5531,8.5531,8.5531,8.5531,8.5531,8.5531,8.5531,8.5531,8.5531,8.5531,8.5531,8.5531,8.5531,8.5478,8.5352,8.5243,8.5024,8.4104,8.2618,8.0823,7.9173,7.7567,7.6176,7.5776,7.5333,7.516,7.5092,7.4823,7.4617,7.4531,7.4336,7.4072,7.3695,7.328,7.2981,7.2766,7.2485,7.2214,7.1949,7.1705,7.1364,7.1056,7.0739,7.0535,9.8649,9.8533,9.8467,9.8367,9.82,9.8,9.788,9.7824,9.7785,9.7773,9.7773,9.7773,9.7733,9.7647,9.7536,9.7371,9.7195,9.7018,9.6803,9.6601,9.6466,9.618,9.5901,9.5675,9.5552,9.5365,9.5199,9.499,9.4349,9.1893,8.8724,8.6088,8.5603,8.5531,8.5531,8.5531,8.5531,8.5531,8.5531,8.5531,8.5531,8.5531,8.5531,8.5531,8.5531,8.5531,8.5531,8.5531,8.5531,8.5531,8.5531,8.5531,8.5531,8.5531,8.5531,8.5531,8.5531,8.5531,8.5531,8.5531,8.5531,8.5531,8.5531,8.5531,8.5531,8.5531,8.5531,8.5531,8.5531,8.5531,8.5531,8.5531,8.5531,8.5531,8.5531,8.5531,8.5531,8.5531,8.5531,8.5531,8.5531,8.5531,8.5516,8.5501,8.5429,8.5298,8.504,8.455,8.3565,8.1597,7.9799,7.8245,7.679,7.5776,7.5305,7.5175,7.5218,7.5145,7.4846,7.461,7.4551,7.4387,7.4097,7.3797,7.3497,7.314,7.2747,7.2328,7.2025,7.1758,7.1491,7.1185,7.0895,7.0638,7.0422,9.8687,9.8546,9.8529,9.8457,9.8359,9.8319,9.8164,9.7978,9.783,9.7779,9.7773,9.7779,9.7762,9.7728,9.7625,9.7493,9.7321,9.7118,9.6847,9.6636,9.6487,9.6173,9.5924,9.5699,9.5576,9.5381,9.5172,9.4918,9.4602,9.1821,8.8824,8.6441,8.5711,8.5531,8.5531,8.5531,8.5531,8.5531,8.5531,8.5531,8.5531,8.5531,8.5531,8.5531,8.5531,8.5531,8.5531,8.5531,8.5531,8.5531,8.5531,8.5531,8.5531,8.5531,8.5531,8.5531,8.5531,8.5531,8.5531,8.5531,8.5531,8.5531,8.5531,8.5531,8.5531,8.5531,8.5531,8.5531,8.5531,8.5531,8.5531,8.5531,8.5531,8.5531,8.5531,8.5531,8.5531,8.5531,8.5531,8.5531,8.5531,8.5531,8.5516,8.5401,8.5373,8.5064,8.4514,8.3887,8.2292,8.0362,7.8765,7.7218,7.624,7.534,7.5175,7.5145,7.513,7.5039,7.4762,7.4574,7.4511,7.4395,7.4089,7.3814,7.3661,7.3263,7.2666,7.2223,7.1864,7.1526,7.1211,7.0945,7.0691,7.0463,7.0298,9.8788,9.8685,9.8588,9.8482,9.8369,9.8354,9.8319,9.8185,9.801,9.7885,9.7863,9.7802,9.7773,9.7722,9.7637,9.7512,9.7377,9.7208,9.6961,9.6629,9.6544,9.6328,9.6044,9.5826,9.5632,9.5451,9.5146,9.4413,9.3591,9.1432,8.9193,8.7243,8.6109,8.5639,8.5531,8.5531,8.5531,8.5531,8.5531,8.5531,8.5531,8.5531,8.5531,8.5531,8.5531,8.5531,8.5531,8.5531,8.5531,8.5531,8.5531,8.5531,8.5531,8.5531,8.5531,8.5531,8.5531,8.5531,8.5531,8.5531,8.5531,8.5531,8.5531,8.5531,8.5531,8.5531,8.5531,8.5531,8.5531,8.5531,8.5531,8.5531,8.5531,8.5531,8.5531,8.5531,8.5531,8.5531,8.5531,8.5531,8.5531,8.5531,8.5516,8.5406,8.5091,8.4526,8.3967,8.2407,8.0878,7.9229,7.7631,7.6446,7.5432,7.5108,7.5027,7.5027,7.4966,7.4882,7.4696,7.4499,7.4419,7.4331,7.4056,7.3763,7.3592,7.3263,7.2646,7.2116,7.1754,7.1393,7.1036,7.0709,7.0463,7.0331,7.0195,9.8875,9.8813,9.8646,9.8515,9.8434,9.8425,9.8381,9.8339,9.8175,9.8048,9.7972,9.7896,9.7841,9.7756,9.7653,9.7535,9.7371,9.7265,9.7047,9.675,9.6615,9.6466,9.6202,9.593,9.5675,9.5431,9.4576,9.3601,9.258,9.0385,8.8985,8.7937,8.6377,8.5639,8.5531,8.5531,8.5531,8.5531,8.5531,8.5531,8.5531,8.5531,8.5531,8.5531,8.5531,8.5531,8.5531,8.5531,8.5531,8.5531,8.5531,8.5531,8.5531,8.5531,8.5531,8.5531,8.5531,8.5531,8.5531,8.5531,8.5531,8.5531,8.5531,8.5531,8.5531,8.5531,8.5531,8.5531,8.5531,8.5531,8.5531,8.5531,8.5531,8.5531,8.5531,8.5531,8.5531,8.5531,8.5531,8.5531,8.5531,8.5531,8.547,8.5368,8.4617,8.3972,8.325,8.1782,7.9633,7.8,7.6833,7.5756,7.5077,7.4923,7.4826,7.4846,7.4785,7.4758,7.4602,7.4447,7.4334,7.421,7.3981,7.3703,7.3489,7.3272,7.2709,7.2145,7.1696,7.1225,7.0824,7.0497,7.0321,7.0185,7.005,9.8949,9.8924,9.8681,9.8564,9.856,9.8551,9.8478,9.8404,9.8359,9.8243,9.8037,9.7947,9.7881,9.7807,9.7762,9.7623,9.7456,9.7377,9.717,9.6857,9.6678,9.656,9.6299,9.5935,9.5564,9.5132,9.4062,9.2963,9.2135,8.9679,8.8327,8.7352,8.6304,8.5531,8.5531,8.5531,8.5531,8.5531,8.5531,8.5531,8.5531,8.5531,8.5531,8.5531,8.5531,8.5531,8.5531,8.5531,8.5531,8.5531,8.5531,8.5531,8.5531,8.5531,8.5531,8.5531,8.5531,8.5531,8.5531,8.5531,8.5531,8.5531,8.5531,8.5531,8.5531,8.5531,8.5531,8.5531,8.5531,8.5531,8.5531,8.5531,8.5531,8.5531,8.5531,8.5531,8.5531,8.5531,8.5531,8.5531,8.5531,8.5508,8.5445,8.5125,8.4215,8.3327,8.2569,8.0822,7.8512,7.7052,7.6223,7.5367,7.4831,7.4711,7.4684,7.4676,7.4645,7.4598,7.4523,7.4391,7.4261,7.412,7.3913,7.3643,7.3394,7.3122,7.2664,7.2173,7.1696,7.1249,7.0732,7.0321,7.0174,7.0006,6.9773,9.8955,9.8937,9.8883,9.8825,9.8804,9.8646,9.8514,9.8492,9.8473,9.8431,9.8253,9.8021,9.793,9.7885,9.7819,9.7682,9.7515,9.7377,9.7201,9.6954,9.669,9.653,9.6321,9.5915,9.533,9.4115,9.3106,9.1483,8.9921,8.8634,8.7504,8.655,8.5755,8.5567,8.5531,8.5531,8.5531,8.5531,8.5531,8.5531,8.5531,8.5531,8.5531,8.5531,8.5531,8.5531,8.5531,8.5531,8.5531,8.5531,8.5531,8.5531,8.5531,8.5531,8.5531,8.5531,8.5531,8.5531,8.5531,8.5531,8.5531,8.5531,8.5531,8.5531,8.5531,8.5531,8.5531,8.5531,8.5531,8.5531,8.5531,8.5531,8.5531,8.5485,8.5493,8.5485,8.5485,8.5476,8.5499,8.5521,8.5485,8.5455,8.5383,8.5179,8.4123,8.2976,8.1374,7.8861,7.7061,7.6248,7.5535,7.509,7.4645,7.4567,7.4488,7.444,7.4392,7.4379,7.4275,7.4196,7.4138,7.401,7.3801,7.3488,7.3219,7.2953,7.2563,7.2097,7.1647,7.1209,7.0712,7.0216,7.0038,6.9741,6.9515,9.8956,9.8951,9.8951,9.8969,9.8937,9.8783,9.8655,9.8551,9.8533,9.8492,9.8414,9.8194,9.8059,9.7951,9.7852,9.7762,9.7563,9.7419,9.7247,9.701,9.6807,9.6622,9.6437,9.5984,9.516,9.3675,9.2393,9.0622,8.8255,8.7284,8.6392,8.5928,8.5639,8.5531,8.5531,8.5531,8.5531,8.5531,8.5531,8.5531,8.5531,8.5531,8.5531,8.5531,8.5531,8.5531,8.5531,8.5531,8.5531,8.5531,8.5531,8.5531,8.5531,8.5531,8.5531,8.5531,8.5531,8.5531,8.5531,8.5531,8.5531,8.5531,8.5531,8.5531,8.5531,8.5531,8.5531,8.5531,8.5531,8.5531,8.5531,8.5531,8.5501,8.5455,8.5424,8.5453,8.5414,8.5329,8.5321,8.5404,8.5383,8.5368,8.5274,8.5084,8.3821,8.2272,7.9478,7.7066,7.6205,7.533,7.5031,7.4606,7.4475,7.4423,7.4207,7.4158,7.4169,7.4114,7.4041,7.3975,7.3881,7.376,7.3565,7.3281,7.2999,7.2691,7.2332,7.1965,7.153,7.1005,7.0548,7.0143,6.9794,6.9472,6.9331,9.8942,9.8942,9.8942,9.8937,9.8957,9.8945,9.8808,9.8595,9.8564,9.8533,9.8492,9.8451,9.8211,9.8043,9.7972,9.7839,9.7635,9.7437,9.7309,9.717,9.6965,9.6754,9.6566,9.6137,9.5282,9.322,9.1926,9.0104,8.8104,8.6521,8.5924,8.5546,8.559,8.5539,8.5531,8.5531,8.5531,8.5531,8.5531,8.5531,8.5531,8.5531,8.5531,8.5531,8.5531,8.5531,8.5531,8.5531,8.5531,8.5531,8.5531,8.5531,8.5531,8.5531,8.5531,8.5531,8.5531,8.5531,8.5531,8.5531,8.5531,8.5531,8.5531,8.5531,8.5531,8.5531,8.5531,8.5531,8.5531,8.5531,8.5531,8.5516,8.5455,8.5378,8.5337,8.5274,8.514,8.5128,8.5208,8.5283,8.5267,8.5148,8.506,8.425,8.31,8.0622,7.7863,7.6671,7.5689,7.4817,7.4533,7.435,7.4253,7.4147,7.3919,7.3904,7.3931,7.3891,7.3763,7.3686,7.3592,7.3394,7.3193,7.2919,7.272,7.2363,7.2031,7.1589,7.1122,7.0709,7.0349,7.0027,6.9677,6.9364,6.9178,9.8942,9.8942,9.8942,9.8968,9.8948,9.8969,9.8912,9.8817,9.8655,9.8542,9.8533,9.8529,9.8414,9.8263,9.8074,9.7964,9.7835,9.761,9.745,9.7302,9.7079,9.6864,9.665,9.6246,9.4895,9.1858,9.1275,8.9483,8.7484,8.6192,8.5821,8.5806,8.5658,8.5546,8.5531,8.5531,8.5531,8.5531,8.5531,8.5531,8.5531,8.5531,8.5531,8.5531,8.5531,8.5531,8.5531,8.5531,8.5531,8.5531,8.5531,8.5531,8.5531,8.5531,8.5531,8.5531,8.5531,8.5523,8.5529,8.5529,8.5531,8.5531,8.5531,8.5529,8.5508,8.5531,8.5531,8.5531,8.5531,8.5531,8.5531,8.5408,8.5373,8.5285,8.5195,8.5016,8.487,8.4992,8.5116,8.5116,8.5084,8.4984,8.3866,8.3232,8.1447,7.8896,7.7458,7.6311,7.5332,7.4367,7.4087,7.3965,7.3898,7.3847,7.3711,7.3712,7.3704,7.3679,7.3489,7.3359,7.3228,7.3025,7.2821,7.2613,7.2384,7.2063,7.1671,7.1181,7.0689,7.036,7.0036,6.9761,6.9537,6.9277,6.899,9.8942,9.8942,9.8942,9.8942,9.8934,9.8937,9.8939,9.8928,9.8754,9.8668,9.8546,9.8529,9.8501,9.8426,9.8154,9.8025,9.7923,9.7668,9.7529,9.7352,9.7182,9.6934,9.672,9.6361,9.4681,9.2272,9.0947,8.9215,8.72,8.6141,8.6011,8.5887,8.574,8.5658,8.5546,8.5531,8.5531,8.5531,8.5531,8.5531,8.5531,8.5531,8.5531,8.5531,8.5531,8.5531,8.5531,8.5531,8.5531,8.5531,8.5531,8.5531,8.5531,8.5531,8.5531,8.5531,8.5487,8.5447,8.5383,8.5396,8.5337,8.5344,8.5352,8.5406,8.5432,8.5478,8.5531,8.5531,8.5531,8.5493,8.5447,8.5369,8.526,8.5108,8.4996,8.4809,8.4727,8.487,8.4946,8.493,8.479,8.3243,8.1905,8.0776,7.892,7.7187,7.6272,7.5362,7.4515,7.3886,7.3762,7.3627,7.3592,7.3532,7.3472,7.3428,7.3394,7.3192,7.3034,7.2927,7.2827,7.2709,7.2545,7.2307,7.2082,7.1705,7.1306,7.0858,7.0442,7.0057,6.9719,6.9483,6.9277,6.9001,6.8723,9.8942,9.8942,9.8942,9.8942,9.8942,9.8938,9.8941,9.8961,9.8941,9.8771,9.8578,9.8593,9.8533,9.8486,9.8333,9.8123,9.7967,9.7773,9.76,9.7401,9.7253,9.7073,9.685,9.6575,9.4157,9.199,9.1027,8.9126,8.6986,8.628,8.6183,8.5982,8.5902,8.5806,8.5643,8.5597,8.5531,8.5531,8.5531,8.5531,8.5531,8.5531,8.5531,8.5531,8.5531,8.5531,8.5531,8.5531,8.5531,8.5531,8.5531,8.5531,8.5531,8.5531,8.5531,8.5487,8.539,8.5303,8.5192,8.5196,8.516,8.5168,8.5188,8.5184,8.5302,8.5391,8.546,8.5521,8.5487,8.5426,8.5332,8.5296,8.5124,8.4944,8.4809,8.465,8.4567,8.4713,8.4688,8.4592,8.3089,8.1537,7.9873,7.8203,7.6731,7.5943,7.515,7.4386,7.3753,7.3634,7.3515,7.3428,7.3342,7.3201,7.3112,7.3033,7.2908,7.2673,7.2563,7.2462,7.236,7.2257,7.2116,7.1945,7.1729,7.1384,7.0918,7.0502,7.0183,6.9804,6.9472,6.9222,6.9001,6.8734,6.8409,9.8942,9.8942,9.8942,9.8942,9.8942,9.8942,9.8968,9.8945,9.8935,9.885,9.8711,9.8633,9.8552,9.8534,9.8448,9.8339,9.8085,9.7978,9.7745,9.7558,9.7401,9.7221,9.6549,9.5359,9.3679,9.154,9.0221,8.8306,8.6724,8.6363,8.628,8.6183,8.596,8.5879,8.5827,8.5658,8.5582,8.5531,8.5531,8.5531,8.5531,8.5531,8.5531,8.5531,8.5531,8.5531,8.5531,8.5531,8.5531,8.5531,8.5531,8.5531,8.5531,8.5531,8.5487,8.5406,8.5385,8.5295,8.5176,8.508,8.5084,8.5076,8.5116,8.5148,8.5212,8.5192,8.5216,8.5227,8.5229,8.5203,8.514,8.5019,8.4861,8.4719,8.4642,8.4523,8.4349,8.4174,8.4069,8.2482,8.1446,7.9761,7.7933,7.6313,7.5704,7.4939,7.4434,7.3652,7.3549,7.3437,7.3289,7.3201,7.3069,7.2863,7.2709,7.2629,7.2499,7.2257,7.2116,7.2065,7.1917,7.1831,7.1608,7.1433,7.1211,7.0868,7.0504,7.0068,6.974,6.9461,6.9178,6.8913,6.8623,6.8341,6.8023,9.8942,9.8942,9.8942,9.8942,9.8942,9.8942,9.8942,9.8934,9.8941,9.8899,9.8762,9.869,9.8635,9.8562,9.8529,9.8414,9.8185,9.8037,9.7856,9.7618,9.7456,9.7284,9.6908,9.5182,9.3378,9.1359,8.905,8.7311,8.664,8.6445,8.6356,8.6273,8.6197,8.6047,8.5916,8.5784,8.5665,8.5539,8.5531,8.5531,8.5531,8.5531,8.5531,8.5531,8.5531,8.5531,8.5531,8.5531,8.5531,8.5531,8.5531,8.5531,8.5531,8.5508,8.5419,8.529,8.526,8.5145,8.4914,8.4826,8.4878,8.4826,8.4853,8.4894,8.4915,8.4932,8.5059,8.5094,8.5124,8.508,8.4832,8.4823,8.4724,8.468,8.4571,8.3944,8.3244,8.301,8.1285,7.9023,7.8578,7.7711,7.594,7.5285,7.4668,7.4144,7.3663,7.3446,7.3385,7.3228,7.307,7.2998,7.2863,7.2609,7.2332,7.2232,7.2135,7.1903,7.172,7.1652,7.1574,7.1545,7.1338,7.0965,7.0545,7.0212,6.9888,6.9654,6.9342,6.9002,6.8691,6.8399,6.8172,6.7931,6.7618,9.8942,9.8942,9.8942,9.8942,9.8942,9.8942,9.8942,9.8942,9.8938,9.8856,9.8758,9.8779,9.867,9.8571,9.8529,9.8406,9.8246,9.8059,9.7835,9.7653,9.7462,9.6976,9.6333,9.4559,9.2928,9.095,8.8541,8.6958,8.6703,8.6603,8.6496,8.6343,8.628,8.6218,8.6062,8.5916,8.5776,8.5665,8.559,8.5531,8.5531,8.5531,8.5531,8.5531,8.5531,8.5531,8.5531,8.5531,8.5531,8.5531,8.5531,8.5531,8.5531,8.5531,8.5406,8.5212,8.5137,8.4999,8.4671,8.4558,8.4542,8.4525,8.4567,8.4625,8.429,8.4287,8.3897,8.3971,8.3847,8.3955,8.3941,8.3405,8.3669,8.3638,8.3172,8.246,8.1018,8.0272,7.9121,7.647,7.6039,7.5589,7.4924,7.4235,7.3952,7.3688,7.335,7.328,7.3166,7.3051,7.2883,7.2747,7.2636,7.2279,7.1949,7.1907,7.1783,7.1555,7.1407,7.1338,7.1289,7.1283,7.0989,7.0527,7.0089,6.9728,6.9482,6.9222,6.8925,6.8545,6.8206,6.7873,6.7664,6.7466,6.7139,9.8942,9.8942,9.8942,9.8942,9.8942,9.8942,9.8938,9.8938,9.8942,9.8882,9.8767,9.8787,9.867,9.8567,9.8524,9.8482,9.8287,9.8116,9.7863,9.7699,9.7493,9.6742,9.5233,9.3403,9.1493,8.9887,8.7913,8.701,8.6758,8.666,8.6624,8.6489,8.6356,8.6273,8.6175,8.6026,8.5894,8.5798,8.5643,8.5531,8.5531,8.5531,8.5531,8.5531,8.5531,8.5531,8.5531,8.5531,8.5531,8.5531,8.5531,8.5531,8.5531,8.5516,8.5429,8.5156,8.5123,8.4921,8.4649,8.4462,8.4382,8.4525,8.4454,8.3899,8.2892,8.2571,8.2099,8.1476,8.1114,8.1087,8.0663,8.0956,8.0784,8.0631,8.0322,7.9455,7.8384,7.7565,7.6776,7.4635,7.4552,7.469,7.4055,7.3605,7.3444,7.3298,7.3175,7.3078,7.298,7.2829,7.2666,7.252,7.2307,7.2041,7.1773,7.1657,7.1506,7.1289,7.1139,7.1079,7.0995,7.0776,7.0362,6.9962,6.9686,6.9428,6.9134,6.8814,6.8457,6.8091,6.7769,6.7492,6.7222,6.6961,6.6818,9.8942,9.8942,9.8942,9.8942,9.8942,9.8938,9.8956,9.8963,9.8959,9.8829,9.869,9.8668,9.8625,9.8534,9.8509,9.8444,9.8326,9.8111,9.7852,9.7633,9.7388,9.6471,9.4741,9.2261,8.9982,8.8492,8.7443,8.7094,8.6932,8.6842,8.6769,8.6594,8.654,8.6452,8.628,8.6119,8.6011,8.5909,8.5665,8.5531,8.5531,8.5531,8.5531,8.5531,8.5531,8.5531,8.5531,8.5531,8.5531,8.5531,8.5531,8.5531,8.5531,8.5523,8.5406,8.52,8.5123,8.4949,8.4328,8.3855,8.3339,8.3276,8.2417,8.1672,8.1105,8.0738,8.0245,7.9787,7.9494,7.9543,7.9586,7.9496,7.9531,7.9469,7.9351,7.8624,7.733,7.607,7.496,7.4477,7.4037,7.3869,7.3683,7.3496,7.335,7.3228,7.3104,7.2981,7.2874,7.2755,7.2538,7.2288,7.2078,7.185,7.1599,7.1374,7.1239,7.1029,7.0857,7.0722,7.0569,7.0174,6.9773,6.9494,6.9211,6.898,6.8726,6.8378,6.8057,6.7699,6.7395,6.7139,6.6878,6.6609,6.6439,9.8942,9.8942,9.8942,9.8934,9.896,9.8952,9.8913,9.892,9.8916,9.8792,9.8619,9.8551,9.852,9.8481,9.8409,9.8317,9.824,9.8059,9.7819,9.7495,9.7179,9.5738,9.3362,9.1242,8.8963,8.7718,8.7235,8.7131,8.7076,8.6969,8.6881,8.6709,8.668,8.6594,8.6398,8.6268,8.6083,8.5924,8.5732,8.5599,8.5554,8.5531,8.5531,8.5531,8.5531,8.5531,8.5531,8.5531,8.5531,8.5531,8.5531,8.5531,8.5531,8.5531,8.5406,8.5128,8.4884,8.4391,8.3847,8.259,8.1718,8.1606,8.0724,7.9559,7.9269,7.8942,7.868,7.829,7.8286,7.8023,7.7987,7.8182,7.7976,7.7819,7.7752,7.7326,7.6321,7.5085,7.4475,7.4206,7.3996,7.3769,7.3678,7.3445,7.3228,7.3131,7.3016,7.2936,7.2802,7.27,7.2453,7.2129,7.1965,7.1811,7.155,7.1299,7.1039,7.0766,7.0507,7.0331,6.9994,6.9622,6.9364,6.9079,6.8768,6.8533,6.8297,6.7965,6.7656,6.7325,6.6993,6.6826,6.6597,6.6232,6.5999,9.8942,9.8942,9.8938,9.8941,9.8923,9.8949,9.8866,9.8767,9.8754,9.8657,9.856,9.8542,9.8468,9.8382,9.8339,9.8201,9.8008,9.795,9.7779,9.7229,9.5922,9.3664,9.1125,8.9866,8.8675,8.7484,8.7263,8.7204,8.7119,8.7057,8.697,8.6857,8.6735,8.6686,8.661,8.642,8.621,8.6076,8.5895,8.5726,8.5561,8.5531,8.5531,8.5531,8.5531,8.5531,8.5531,8.5531,8.5531,8.5531,8.5531,8.5531,8.5531,8.5531,8.5363,8.4933,8.3927,8.3051,8.2316,8.1012,8.0092,7.9897,7.9714,7.9048,7.7632,7.7224,7.6718,7.5737,7.5196,7.5499,7.5515,7.5227,7.5348,7.5484,7.5134,7.4798,7.4499,7.4377,7.4255,7.4239,7.3933,7.3737,7.3592,7.3333,7.3096,7.3079,7.2999,7.2847,7.2691,7.2563,7.2307,7.1997,7.185,7.1778,7.1442,7.1169,7.0803,7.054,7.0279,6.9975,6.9677,6.9233,6.8969,6.8679,6.8386,6.8091,6.7862,6.7595,6.7269,6.6993,6.6785,6.6592,6.6374,6.6018,6.5733,9.8955,9.8951,9.8865,9.8829,9.88,9.8838,9.8746,9.8631,9.8655,9.8602,9.8552,9.8482,9.8397,9.8349,9.8211,9.8048,9.7945,9.7802,9.7662,9.7268,9.5602,9.2975,9.0253,8.8675,8.7969,8.7306,8.7263,8.727,8.721,8.7216,8.7112,8.6995,8.6926,8.6842,8.6699,8.6529,8.633,8.614,8.5982,8.5778,8.5561,8.5531,8.5531,8.5531,8.5531,8.5531,8.5531,8.5531,8.5531,8.5531,8.5531,8.5531,8.5531,8.5531,8.4979,8.3908,8.3265,8.2151,8.1021,7.9454,7.8563,7.8314,7.7271,7.6458,7.5866,7.5454,7.5305,7.4516,7.4437,7.4403,7.4403,7.4374,7.4326,7.4361,7.4304,7.4264,7.4291,7.4255,7.4255,7.4174,7.3941,7.3687,7.3679,7.3324,7.3131,7.3052,7.2981,7.2773,7.2588,7.239,7.217,7.1844,7.1638,7.1462,7.1205,7.0925,7.0576,7.0393,7.0143,6.9794,6.9364,6.8835,6.8589,6.8363,6.7988,6.7699,6.7481,6.7246,6.6985,6.6802,6.658,6.6381,6.6104,6.5795,6.5571,9.8875,9.8866,9.8775,9.8733,9.8707,9.867,9.8646,9.8561,9.8529,9.851,9.8477,9.8327,9.826,9.8227,9.8037,9.7946,9.7742,9.7277,9.6964,9.6597,9.4666,9.2016,8.9909,8.8116,8.7306,8.7306,8.7263,8.7263,8.7263,8.7257,8.7209,8.7119,8.707,8.6976,8.6765,8.6644,8.6434,8.6161,8.6061,8.5823,8.5696,8.5599,8.5531,8.5531,8.5531,8.5531,8.5531,8.5531,8.5531,8.5531,8.5531,8.5371,8.4893,8.4769,8.403,8.2583,8.1803,8.0858,7.9475,7.7947,7.7019,7.6714,7.5684,7.4645,7.4606,7.4434,7.4288,7.4255,7.4255,7.4272,7.4264,7.4264,7.4264,7.4255,7.4264,7.4255,7.4255,7.4255,7.4255,7.4231,7.3948,7.3754,7.3635,7.3385,7.3149,7.3061,7.2892,7.2648,7.2517,7.236,7.2057,7.172,7.1442,7.1225,7.0942,7.0678,7.0422,7.0237,6.9858,6.9461,6.9035,6.8544,6.8297,6.8046,6.7723,6.741,6.7187,6.6985,6.6794,6.6602,6.6391,6.6178,6.5907,6.562,6.5381,9.8754,9.8792,9.8746,9.8672,9.8555,9.8584,9.8529,9.8524,9.8433,9.8384,9.8312,9.8034,9.7936,9.7928,9.7478,9.7354,9.745,9.6052,9.5238,9.4171,9.1935,9.0136,8.9412,8.7963,8.7263,8.7263,8.7263,8.7263,8.7263,8.7263,8.7263,8.727,8.7168,8.7032,8.6838,8.6745,8.659,8.6287,8.6154,8.6003,8.588,8.5675,8.5531,8.5531,8.5531,8.5531,8.5531,8.5531,8.5531,8.5502,8.5314,8.4648,8.3625,8.3307,8.2543,8.0957,7.9297,7.8536,7.7748,7.6571,7.5631,7.5383,7.4942,7.4606,7.4507,7.441,7.4288,7.4264,7.4255,7.4255,7.4255,7.4255,7.4255,7.4255,7.4255,7.4255,7.4255,7.4255,7.4255,7.4223,7.4037,7.3819,7.3669,7.3463,7.3237,7.3079,7.2856,7.2639,7.249,7.2229,7.1915,7.1652,7.1398,7.1096,7.0699,7.0422,7.0152,6.9858,6.9353,6.9046,6.8668,6.8386,6.8126,6.7772,6.7446,6.7175,6.6949,6.6782,6.6602,6.642,6.6244,6.5999,6.5739,6.5387,6.5082,9.8622,9.8597,9.8524,9.8473,9.8434,9.8334,9.8322,9.8287,9.8246,9.8258,9.7945,9.6994,9.642,9.6171,9.5233,9.4792,9.4631,9.393,9.3009,9.167,8.9274,8.8233,8.8079,8.7521,8.7263,8.7263,8.7263,8.7263,8.7263,8.7263,8.7263,8.7263,8.7215,8.7088,8.6913,8.6836,8.6647,8.6313,8.6192,8.6042,8.588,8.5675,8.5531,8.5531,8.5531,8.5531,8.5531,8.5531,8.5105,8.4275,8.4087,8.3314,8.1913,8.1689,8.101,7.9583,7.8553,7.756,7.6511,7.5829,7.5317,7.5117,7.4892,7.4738,7.4582,7.4463,7.4361,7.4288,7.4255,7.4255,7.4255,7.4255,7.4255,7.4255,7.4255,7.4255,7.4255,7.4255,7.4255,7.4223,7.4046,7.3854,7.3695,7.3472,7.3254,7.307,7.2818,7.2545,7.2434,7.2082,7.1754,7.1476,7.1229,7.0895,7.0517,7.0162,6.9911,6.9418,6.8914,6.8657,6.842,6.816,6.8034,6.7711,6.734,6.7092,6.677,6.6602,6.6444,6.6293,6.6129,6.5882,6.5583,6.5204,6.4568,9.6972,9.6963,9.6821,9.6789,9.6769,9.6714,9.6641,9.6646,9.6605,9.6595,9.6351,9.5204,9.4682,9.4372,9.3518,9.2934,9.2777,9.152,9.0447,8.9377,8.7977,8.73,8.7306,8.7263,8.7263,8.7263,8.7263,8.7263,8.7263,8.7263,8.7263,8.7251,8.7221,8.7082,8.6913,8.6812,8.6693,8.6361,8.6199,8.6067,8.5952,8.5711,8.5531,8.5531,8.5531,8.4961,8.4138,8.4058,8.356,8.2513,8.2441,8.174,8.046,8.0122,7.936,7.7998,7.756,7.6882,7.5814,7.5564,7.542,7.5279,7.5006,7.4803,7.4676,7.4488,7.4391,7.4288,7.4255,7.4255,7.4255,7.4255,7.4255,7.4255,7.4255,7.4255,7.4255,7.4255,7.4255,7.4239,7.4087,7.3913,7.372,7.3584,7.3324,7.3033,7.2719,7.2506,7.2341,7.1892,7.1491,7.1309,7.0975,7.0712,7.0246,6.9867,6.9526,6.9068,6.8668,6.8352,6.8137,6.7965,6.7919,6.7711,6.736,6.6997,6.6662,6.6432,6.6298,6.6159,6.5925,6.5677,6.5414,6.4806,6.4015,9.3642,9.3766,9.3451,9.367,9.3776,9.3752,9.3506,9.3667,9.3512,9.3657,9.3716,9.3079,9.293,9.2867,9.2506,9.2665,9.197,8.9507,8.8096,8.792,8.7503,8.7281,8.7263,8.7263,8.7263,8.7263,8.7263,8.7263,8.7263,8.7263,8.7257,8.727,8.7143,8.7008,8.6894,8.6765,8.6657,8.6479,8.6256,8.6089,8.6061,8.5544,8.5328,8.5371,8.5235,8.3914,8.1256,8.1148,8.1177,8.096,8.0852,8.0135,7.8808,7.8545,7.7812,7.6532,7.6121,7.6026,7.5796,7.5692,7.5564,7.5398,7.5053,7.4849,7.4715,7.4527,7.4387,7.4294,7.428,7.4255,7.4255,7.4123,7.4017,7.4193,7.3754,7.3692,7.3868,7.4115,7.4185,7.3939,7.3939,7.3994,7.378,7.3627,7.3385,7.2918,7.2611,7.2453,7.2251,7.185,7.1501,7.1299,7.0925,7.0504,7.0036,6.9547,6.9123,6.8746,6.8431,6.8147,6.7965,6.7908,6.7873,6.7792,6.7442,6.708,6.6746,6.6432,6.6274,6.6004,6.5708,6.5489,6.4908,6.4212,6.3497,9.3446,9.3349,9.3222,9.3155,9.3134,9.3052,9.3058,9.301,9.3016,9.2968,9.2739,9.1699,9.1195,9.1052,9.006,8.9625,8.9471,8.8439,8.7754,8.7667,8.7473,8.7382,8.7281,8.7263,8.7263,8.7263,8.7263,8.7263,8.7263,8.7263,8.7221,8.7143,8.7094,8.6952,8.6791,8.6726,8.658,8.6411,8.6236,8.6028,8.5828,8.4634,8.3929,8.38,8.2923,8.1827,8.0967,8.0859,8.0426,7.9494,7.9263,7.8532,7.7013,7.6828,7.6584,7.6078,7.6013,7.5968,7.5817,7.5747,7.5635,7.5449,7.5289,7.5104,7.4803,7.4668,7.4511,7.4403,7.4326,7.4255,7.4088,7.3267,7.2676,7.2581,7.1713,7.1098,7.1098,7.1134,7.1169,7.138,7.2065,7.2932,7.3466,7.36,7.3385,7.306,7.2657,7.2499,7.2288,7.185,7.1392,7.1313,7.0803,7.0318,6.9994,6.9352,6.8824,6.86,6.8297,6.8046,6.7873,6.7873,6.7838,6.7781,6.756,6.721,6.6878,6.6541,6.6237,6.5955,6.5514,6.4992,6.4395,6.3661,6.2432,9.1566,9.1482,9.1334,9.1294,9.1278,9.1206,9.1158,9.1164,9.1164,9.1164,9.0978,9.005,8.9567,8.9472,8.8495,8.8017,8.8044,8.7941,8.7792,8.7672,8.7549,8.7386,8.7275,8.7263,8.7263,8.7263,8.7263,8.7263,8.7263,8.7252,8.7155,8.707,8.697,8.6844,8.6713,8.6677,8.6214,8.5543,8.5292,8.4825,8.4054,8.2986,8.2039,8.1501,7.9964,7.9118,7.9125,7.9118,7.8649,7.771,7.7645,7.7132,7.6157,7.6013,7.6013,7.6013,7.6013,7.5966,7.5857,7.5824,7.5698,7.5528,7.5456,7.5238,7.4953,7.4765,7.4649,7.4535,7.4395,7.3653,7.2939,7.1806,7.116,7.104,7.0249,6.971,6.957,6.957,6.957,6.9753,7.0387,7.1289,7.1803,7.2464,7.2661,7.228,7.2364,7.2412,7.226,7.1763,7.1352,7.1243,7.0735,7.0164,6.9984,6.9222,6.8603,6.8445,6.8131,6.7772,6.7829,6.785,6.7657,6.7578,6.7597,6.7293,6.6893,6.6579,6.6237,6.5786,6.4884,6.4365,6.3984,6.2325,6.1114,8.8286,8.8311,8.8142,8.825,8.8092,8.8203,8.8129,8.8389,8.8203,8.8171,8.8277,8.8129,8.8055,8.8129,8.8097,8.8017,8.8044,8.7956,8.7814,8.7657,8.7546,8.7446,8.7281,8.7275,8.7275,8.7263,8.7263,8.7263,8.7251,8.7143,8.707,8.7045,8.6849,8.6626,8.6434,8.6285,8.5529,8.3996,8.36,8.277,8.1347,8.0823,7.9878,7.8563,7.6954,7.6259,7.6151,7.6078,7.6085,7.6049,7.6115,7.6085,7.6013,7.6013,7.5905,7.579,7.5717,7.5688,7.5582,7.5395,7.5287,7.5291,7.4926,7.496,7.4286,7.4211,7.4128,7.4309,7.3936,7.2926,7.072,7.0023,6.9711,6.9674,6.943,6.9208,6.9221,6.8926,6.9339,6.9205,6.9311,6.9462,6.912,7.028,7.0851,7.0902,7.15,7.198,7.1562,7.1267,7.1001,7.0818,7.0426,6.9838,6.9698,6.8518,6.8172,6.7831,6.7139,6.7337,6.7604,6.7657,6.7528,6.7374,6.6894,6.6654,6.6789,6.6465,6.5785,6.5052,6.4047,6.3189,6.2391,6.0883,5.9651,8.82,8.8105,8.8038,8.8017,8.8017,8.8017,8.8017,8.8017,8.8017,8.8017,8.8017,8.8017,8.8017,8.8017,8.8017,8.8017,8.8017,8.8034,8.7951,8.7808,8.7776,8.7608,8.7421,8.7446,8.7394,8.7312,8.7195,8.7226,8.7251,8.7174,8.7051,8.6944,8.6778,8.6105,8.4977,8.4727,8.3791,8.2151,8.1842,8.1492,8.0693,7.8584,7.7136,7.671,7.6214,7.6013,7.6013,7.6013,7.6013,7.6006,7.6013,7.6013,7.6013,7.6013,7.5507,7.4388,7.3275,7.2625,7.2619,7.2586,7.2525,7.2373,7.2326,7.2178,7.1886,7.1702,7.153,7.1443,7.147,7.1248,7.0042,6.8996,6.8321,6.815,6.7131,6.6466,6.6522,6.6395,6.6443,6.6464,6.7414,6.7815,6.792,6.8728,6.9484,6.9301,6.9379,6.9336,6.9133,6.8843,6.876,6.9448,6.919,6.8389,6.7187,6.6659,6.5911,6.5595,6.5488,6.5203,6.477,6.4781,6.477,6.5531,6.4886,6.4612,6.4732,6.435,6.3715,6.3163,6.2573,6.1825,6.0904,5.9496,5.8253,8.8098,8.8055,8.8017,8.8017,8.8017,8.8017,8.8017,8.8017,8.8017,8.8017,8.7906,8.6618,8.6066,8.6091,8.6029,8.6066,8.6086,8.6091,8.5989,8.5892,8.5876,8.575,8.5566,8.5521,8.5423,8.5391,8.5334,8.5305,8.5293,8.5229,8.5067,8.4896,8.4694,8.412,8.3232,8.2997,8.2057,8.0353,8.0161,7.9734,7.876,7.6993,7.6013,7.6013,7.6013,7.5979,7.5925,7.5947,7.592,7.5836,7.5181,7.4929,7.4929,7.43,7.3606,7.2721,7.1769,7.1361,7.1361,7.1361,7.1291,7.1124,7.1147,7.1062,7.0841,7.0681,6.9956,6.8836,6.8564,6.8577,6.8407,6.75,6.6835,6.673,6.5988,6.5352,6.5316,6.5269,6.5192,6.5207,6.59,6.6406,6.6496,6.6935,6.7379,6.7788,6.8247,6.8377,6.8155,6.7618,6.7628,6.8009,6.7563,6.677,6.6252,6.5541,6.5102,6.4683,6.4253,6.3912,6.388,6.3664,6.3524,6.3621,6.3728,6.3587,6.2947,6.2996,6.2871,6.256,6.1973,6.111,5.9644,5.8182,5.717,8.7545,8.7609,8.7503,8.7577,8.7465,8.7503,8.7465,8.7503,8.7577,8.7614,8.7158,8.4514,8.3294,8.3175,8.328,8.3359,8.3333,8.3222,8.3243,8.3153,8.299,8.2972,8.3006,8.2805,8.2646,8.2708,8.2657,8.2749,8.269,8.2574,8.2349,8.2035,8.1753,8.1686,8.1461,8.1315,8.0384,7.8736,7.8571,7.7713,7.6128,7.6013,7.6013,7.6013,7.5993,7.5947,7.5853,7.5681,7.5504,7.5276,7.3926,7.308,7.2979,7.1871,7.1088,7.0934,7.0979,7.1,7.0837,7.0849,7.072,7.0718,7.0525,7.0467,7.0372,7.0444,6.9229,6.7043,6.6197,6.6307,6.6073,6.5978,6.592,6.59,6.5615,6.5349,6.5369,6.5351,6.5308,6.5337,6.5312,6.5144,6.5272,6.522,6.5412,6.6269,6.7012,6.7512,6.7305,6.6908,6.6725,6.663,6.5823,6.5257,6.5373,6.5405,6.4646,6.4266,6.3899,6.3369,6.3049,6.2954,6.3084,6.2375,6.2805,6.2623,6.2546,6.2702,6.2289,6.1555,6.1149,6.0721,5.8951,5.7258,5.6233,8.4304,8.4304,8.4299,8.4304,8.4299,8.4304,8.4304,8.4308,8.4299,8.4299,8.4234,8.3548,8.3176,8.318,8.3163,8.3168,8.318,8.3185,8.3175,8.3151,8.3146,8.305,8.2977,8.2914,8.2821,8.263,8.2592,8.2532,8.2443,8.2395,8.2313,8.2035,8.1747,8.1036,7.9869,7.9695,7.8794,7.7206,7.71,7.6798,7.6178,7.6171,7.6128,7.6006,7.5927,7.5838,7.5753,7.4541,7.3825,7.3726,7.2311,7.1462,7.1469,7.1176,7.0441,6.9355,6.9248,6.8719,6.7557,6.7515,6.7551,6.7515,6.7545,6.7461,6.7387,6.7448,6.707,6.6415,6.6079,6.6108,6.5956,6.5949,6.6008,6.5987,6.5854,6.5702,6.5725,6.559,6.5457,6.5479,6.5371,6.5227,6.513,6.5039,6.5087,6.5147,6.5182,6.5177,6.4951,6.4824,6.4678,6.4547,6.4026,6.3597,6.3215,6.3023,6.2533,6.1732,6.1568,6.1426,6.1032,6.0728,6.0552,6.0528,6.0401,6.0437,6.011,5.9955,5.9786,5.9668,5.9341,5.8651,5.7856,5.6794,5.6048,8.3185,8.3185,8.3185,8.3185,8.3185,8.3185,8.3185,8.3073,8.162,8.0984,8.0989,8.098,8.0975,8.0989,8.0988,8.0961,8.0989,8.0984,8.0989,8.0952,8.0947,8.0914,8.0857,8.0781,8.0702,8.0555,8.0457,8.0331,8.0266,8.0244,8.0134,7.991,7.9699,7.9152,7.8288,7.8098,7.7632,7.6673,7.6667,7.6508,7.6186,7.6172,7.6092,7.6013,7.515,7.4703,7.4627,7.3023,7.2088,7.2026,7.0494,6.9605,6.9563,6.8332,6.7219,6.637,6.5663,6.4951,6.4088,6.4134,6.4192,6.4305,6.4976,6.5121,6.433,6.4315,6.4332,6.4227,6.4242,6.4207,6.4105,6.4094,6.4343,6.5035,6.4979,6.5192,6.5776,6.579,6.5696,6.5683,6.5511,6.5398,6.531,6.5248,6.5109,6.4932,6.4745,6.4532,6.4233,6.4283,6.4267,6.3983,6.3665,6.3195,6.2764,6.2326,6.1852,6.1286,6.0928,6.0514,6.0244,5.9851,5.9725,5.95,5.9401,5.9235,5.9239,5.9045,5.8796,5.8568,5.8231,5.789,5.7564,5.7048,5.6534,8.2489,8.2511,8.2521,8.2511,8.2516,8.2511,8.2511,8.2256,7.9012,7.7642,7.7605,7.7642,7.7647,7.7642,7.7657,7.7773,7.7967,7.7967,7.812,7.8343,7.838,7.838,7.8302,7.8191,7.8153,7.8125,7.7924,7.7814,7.7736,7.7675,7.7522,7.7446,7.7256,7.7165,7.7009,7.6901,7.6852,7.6827,7.6816,7.6512,7.5926,7.5883,7.5704,7.5313,7.3875,7.3079,7.2894,7.1273,7.0335,7.0146,6.8627,6.7608,6.7323,6.5017,6.3448,6.3164,6.207,6.1376,6.1414,6.1401,6.1447,6.1652,6.2965,6.3027,6.1347,6.1545,6.1804,6.1832,6.1949,6.1815,6.1797,6.1852,6.2343,6.3446,6.3537,6.4029,6.5381,6.53,6.5111,6.5235,6.5161,6.4781,6.4615,6.4793,6.4793,6.4783,6.4757,6.4832,6.4523,6.4292,6.3952,6.3541,6.3505,6.3375,6.2769,6.25,6.2335,6.1939,6.1305,6.0871,6.067,6.0208,5.9891,5.9749,5.955,5.9367,5.9349,5.9217,5.8992,5.8839,5.8505,5.8168,5.7825,5.7024,5.6597,7.9205,7.9165,7.9197,7.9202,7.9193,7.9206,7.9202,7.8974,7.5604,0.0,0.0,7.4161,7.4161,7.4156,7.4173,7.4923,7.6231,7.6273,7.7011,7.8343,7.838,7.838,7.8339,7.8292,7.8242,7.8139,7.8106,7.7926,7.7783,7.7726,7.7617,7.7388,7.735,7.7251,7.7115,7.7109,7.7111,7.7086,7.7003,7.616,7.4494,7.445,7.3712,7.2198,7.1644,7.137,7.1344,6.9518,6.8491,6.8435,6.6986,6.5559,6.4292,6.3723,6.2833,6.1607,6.1268,6.1156,6.125,6.1274,6.1326,6.1453,6.1843,6.0843,5.8039,6.0272,6.1815,6.1818,6.1829,6.1783,6.1818,6.1769,6.1897,6.2144,6.2043,6.2415,6.3459,6.2838,6.2677,6.3095,6.2652,6.1959,6.2014,6.2856,6.3502,6.3533,6.4196,6.5025,6.4707,6.2881,6.137,6.1145,6.1703,6.1992,6.1865,6.2171,6.2696,6.2096,6.1725,6.1432,6.094,6.0634,6.0341,5.9817,5.9779,5.9543,5.9505,5.9145,5.9074,5.9055,5.863,5.8242,5.7799,5.6111,5.4899,7.5803,7.5753,7.5753,7.579,0.0,7.579,7.579,7.5683,7.3979,7.3274,7.3274,7.3271,7.3258,7.3269,7.3271,7.3757,7.4528,7.4536,7.4978,7.5795,7.5795,7.5795,7.5757,7.5795,7.5731,7.5691,7.5706,7.5624,7.5492,7.5359,7.5218,7.5107,7.4946,7.4862,7.4829,7.5584,7.5554,7.4703,7.465,7.4071,7.3067,7.2938,7.2425,7.1443,7.0438,0.0,0.0,0.0,0.0,0.0,0.0,0.0,0.0,6.1464,6.0322,5.8747,5.7952,5.715,5.6487,5.6432,5.6468,5.6598,5.6676,5.5718,5.3423,5.5561,5.6971,5.7013,5.7709,5.8158,5.819,5.8943,5.979,6.0543,6.0581,6.0826,6.1545,6.1563,6.1945,6.2653,6.1967,6.1186,6.1144,6.1748,6.1986,6.1959,6.2549,6.2847,6.2643,6.136,6.0409,6.0328,6.0648,6.0713,6.0469,6.077,6.0845,6.0411,5.9994,5.9577,5.917,5.8854,5.8546,5.8186,5.7952,5.7734,5.7562,5.7337,5.7155,5.6939,5.6743,5.6511,5.6325,5.5142,5.4216,7.3448,7.334,7.3282,7.3274,7.3236,7.2601,7.2345,7.2345,7.2052,7.1937,7.1912,7.1597,7.144,7.1491,7.1771,7.2073,7.2415,7.2675,7.2976,7.3274,7.3274,7.3274,7.3274,7.3274,7.3274,7.3269,7.3262,7.3246,7.3261,7.3079,7.2948,7.291,7.2688,7.2583,7.2604,0.0,0.0,0.0,7.2165,7.2032,7.1525,7.1368,7.1089,7.0594,6.9145,0.0,6.8137,6.6442,6.4852,6.3493,6.3123,0.0,6.0275,0.0,0.0,0.0,0.0,0.0,0.0,0.0,0.0,0.0,5.0404,4.9731,4.8811,5.0361,5.1607,5.2289,5.3487,5.4195,5.4218,5.5466,5.6772,5.8009,5.8112,5.8324,5.8783,5.9658,6.076,6.1868,6.1091,6.0373,6.0279,6.0584,6.0572,6.048,6.0686,6.0539,5.9822,5.9584,5.9588,5.9566,5.9173,5.9127,5.9,5.9132,5.9226,5.8589,5.8174,5.7881,5.768,5.7272,5.6819,5.6547,5.6183,5.597,5.5696,5.5475,5.5511,5.5034,5.492,5.4709,5.4155,5.3776,5.3513,7.3563,7.3452,7.3307,7.3274,7.3055,7.0257,6.9069,6.892,6.7595,6.7001,6.6931,6.5445,6.4802,6.4891,6.637,6.7747,6.9106,7.0542,7.1998,7.3236,7.3274,7.3274,7.3274,7.3274,7.3274,7.3274,7.3265,7.3279,7.3266,7.3239,7.3153,7.292,7.284,7.2792,7.2634,7.1515,7.0742,7.0475,7.1688,7.1536,6.9909,6.976,6.892,6.7359,6.686,6.6607,6.6553,6.4945,6.3884,6.3493,6.2235,6.0132,5.7172,5.6667,5.4579,0.0,4.9795,0.0,0.0,0.0,0.0,0.0,0.0,0.0,0.0,4.7063,4.9302,5.2226,5.2653,5.2778,5.2773,5.2959,5.317,5.3363,5.3403,5.3421,5.3512,5.4686,5.6137,5.7726,5.7679,5.7455,5.7471,5.8438,5.91,5.9056,5.9893,5.9666,5.745,5.6893,5.6894,5.643,5.6341,5.7016,5.7781,5.8645,5.9102,5.9034,5.8448,5.8192,5.786,5.7474,5.7096,5.6793,5.628,5.6018,5.6078,5.5716,5.5433,5.5151,5.4919,5.4154,5.2207,5.1419,5.1318,7.0981,7.079,7.0717,6.9592,6.7765,6.635,6.5753,6.5645,6.498,6.4687,6.465,6.3896,6.3525,6.3629,6.4349,6.5058,6.5786,6.6528,6.7234,6.7914,6.8858,6.9304,6.9341,7.0191,7.0596,7.0558,7.06,7.0571,7.0599,7.0586,7.0521,7.0406,7.027,6.9237,6.7495,6.7593,6.7653,6.7588,6.9059,6.9375,6.8429,6.8245,6.7701,6.6846,6.6591,6.5999,6.5035,6.4291,6.2987,6.1072,5.9468,5.7578,5.5208,5.3311,5.094,0.0,0.0,0.0,0.0,0.0,0.0,0.0,0.0,0.0,0.0,0.0,4.4549,4.6998,4.8849,4.9887,4.9897,5.1489,5.2515,5.2496,5.2487,5.1794,5.0063,5.1986,5.4387,5.6868,5.5449,5.4537,5.5354,5.5983,5.6581,5.7343,5.794,5.7839,5.6557,5.6233,5.6158,5.6007,5.5872,5.6017,5.6541,5.6927,5.7054,5.6864,5.6568,5.626,5.5944,5.5609,5.5314,5.5041,5.4651,5.4316,5.4117,5.383,5.3514,5.339,5.3329,5.2745,5.1336,5.0894,5.0804,6.7658,6.7398,6.6613,6.4817,6.2429,6.2418,6.2411,6.2378,6.2003,6.1813,6.1776,6.1442,6.1257,6.1253,6.1648,6.18,6.1851,6.2597,6.2968,6.3076,6.4728,6.5508,6.5545,6.6726,6.7242,6.7279,6.7238,6.7283,6.7283,6.729,6.7253,6.7192,6.6652,6.5135,6.2746,6.418,6.5151,6.5502,6.6658,6.7317,6.7505,6.7227,6.6801,6.6376,6.6238,6.5277,6.3572,6.3111,6.1516,5.852,5.6886,5.4967,5.2481,4.962,0.0,0.0,0.0,0.0,0.0,0.0,0.0,0.0,0.0,3.5367,3.6689,0.0,4.0031,0.0,4.4821,4.6757,4.6787,4.8861,0.0,0.0,5.0258,4.9345,4.7043,4.9485,5.2597,5.5609,5.3762,5.258,5.3731,5.4128,5.4558,5.5193,5.564,5.5826,5.5841,5.6034,5.6216,5.614,5.5966,5.5812,5.5835,5.5618,5.542,5.4984,5.4902,5.4527,5.3781,5.3518,5.3197,5.2585,5.2204,5.2003,5.2074,5.1791,5.1502,5.1044,5.0914,5.0768,5.0376,5.0068,4.9864,6.4298,6.3898,6.0958,5.946,5.908,5.9114,5.9094,5.8982,5.7399,5.6802,5.6653,5.5283,5.4621,5.4719,5.6141,0.0,5.6903,5.9849,6.1145,6.1301,6.3005,6.3748,6.3781,6.3892,6.3967,6.3967,6.3933,6.3967,6.397,6.3959,6.3881,6.373,6.231,6.1417,6.1151,6.2594,6.4069,6.5465,6.5477,6.6199,6.7574,6.7265,6.6357,6.4977,6.465,6.3805,6.2194,6.0678,5.8941,5.7001,5.5436,5.2428,4.7913,0.0,0.0,0.0,0.0,0.0,0.0,0.0,0.0,0.0,0.0,0.0,0.0,0.0,0.0,3.8705,4.1829,0.0,4.3711,4.3927,0.0,0.0,0.0,4.3869,4.3704,4.6385,4.9341,5.2357,0.0,0.0,5.2313,5.3522,5.3877,5.2476,5.3525,5.4351,5.4247,5.5383,5.6295,5.6103,5.603,5.5931,5.5624,5.5438,5.5244,5.5041,5.5043,5.4169,5.289,5.23,5.1436,5.0209,4.9491,4.9668,5.0726,5.0726,5.0273,4.9126,4.8476,4.8031,4.8064,4.7756,4.7441,6.0815,5.7699,5.5378,5.4391,5.4268,5.3308,5.2835,5.2789,5.2151,5.1848,5.1777,5.1185,5.0932,5.0957,5.1574,0.0,0.0,0.0,5.5738,5.6774,5.9418,6.064,6.0788,6.26,6.3525,6.3525,6.3525,6.3076,6.2158,6.2155,6.0648,5.7689,0.0,5.7064,5.8059,5.9497,6.1048,6.2631,6.35,6.4665,6.6186,6.6017,6.5529,6.4749,6.3656,6.2306,6.0634,5.8959,5.6798,5.403,5.1506,4.8299,0.0,0.0,0.0,0.0,0.0,0.0,0.0,0.0,0.0,0.0,0.0,2.9286,3.0337,0.0,0.0,0.0,3.679,3.8381,4.0355,4.2222,0.0,0.0,0.0,0.0,0.0,0.0,0.0,4.7589,4.8074,4.8511,4.9225,4.9829,5.0321,5.0706,5.195,5.2773,5.2731,0.0,5.4679,5.4856,5.4499,5.4258,5.445,5.3616,5.2842,5.2732,5.2518,5.2045,5.1328,5.103,5.0567,4.9891,4.9488,4.9489,4.9837,4.907,4.838,4.8565,4.8403,4.8056,4.7697,4.7385,4.71,5.5044,0.0,0.0,0.0,0.0,4.8152,4.7599,4.7583,4.7612,4.7572,4.7575,4.7081,0.0,0.0,0.0,0.0,0.0,0.0,5.0842,5.2585,5.5302,5.6865,5.7378,5.9704,6.0777,6.0811,6.0774,6.0183,5.9083,5.7706,5.4955,5.1096,0.0,0.0,0.0,0.0,5.8008,6.0063,6.1622,6.3106,6.4629,6.4576,6.4399,6.412,6.2473,6.0518,5.8382,5.6695,5.4231,5.0828,4.7631,0.0,0.0,0.0,0.0,0.0,0.0,0.0,0.0,0.0,0.0,0.0,0.0,0.0,0.0,0.0,0.0,0.0,0.0,0.0,3.7074,3.9323,4.0667,0.0,0.0,0.0,0.0,0.0,0.0,0.0,0.0,0.0,4.5461,4.6348,4.7344,0.0,0.0,5.134,5.1298,5.227,5.3114,5.3363,5.3012,0.0,5.302,5.1979,5.1094,5.1027,5.088,5.0568,4.9963,4.9701,4.9419,4.877,4.8606,4.8073,4.7208,4.6033,4.5503,4.6041,4.6157,4.5938,4.5432,4.514,4.4961,0.0,0.0,0.0,0.0,4.449,0.0,0.0,0.0,4.421,4.4163,0.0,4.2523,0.0,0.0,0.0,0.0,4.4234,4.5823,0.0,0.0,5.0814,5.2399,5.3878,5.4138,5.4175,5.4141,5.4215,5.4141,5.373,4.9271,4.6006,0.0,0.0,0.0,0.0,0.0,5.5335,5.8303,6.0063,6.1613,6.2974,6.3021,6.29,6.2608,6.0883,5.847,5.5323,5.3539,5.1024,4.7518,4.4398,0.0,0.0,0.0,0.0,0.0,0.0,0.0,0.0,0.0,0.0,0.0,0.0,0.0,0.0,0.0,0.0,0.0,0.0,0.0,0.0,3.4216,0.0,0.0,0.0,0.0,0.0,0.0,0.0,0.0,0.0,4.2696,4.1341,4.3762,4.5679,4.5517,0.0,0.0,0.0,0.0,5.1917,5.1944,5.1812,5.1684,5.158,5.1326,5.1092,5.1051,0.0,0.0,4.8893,4.8429,4.7645,4.6105,4.5801,4.4855,4.1973,4.131,4.1047,4.0881,4.0689,4.0191,3.9983,4.012,3.9932,0.0,0.0,0.0,0.0,0.0,0.0,0.0,0.0,0.0,3.7739,3.7604,3.7032,0.0,0.0,0.0,0.0,0.0,0.0,0.0,0.0,4.6905,4.8454,4.9088,5.0139,5.0662,5.0665,5.0662,4.8468,0.0,0.0,0.0,0.0,0.0,0.0,0.0,0.0,5.3709,5.6819,5.8515,6.005,6.148,6.1528,6.1357,6.117,6.0497,5.8059,5.3633,5.0793,4.7266,0.0,0.0,0.0,0.0,0.0,0.0,0.0,0.0,0.0,0.0,0.0,0.0,0.0,0.0,0.0,0.0,0.0,0.0,0.0,0.0,0.0,0.0,0.0,3.293,0.0,0.0,0.0,0.0,0.0,0.0,0.0,0.0,0.0,3.9476,4.122,4.3261,4.528,4.6398,4.7376,4.8383,0.0,0.0,0.0,0.0,0.0,0.0,0.0,4.8376,4.8142,4.8045,4.7489,4.5922,4.4721,4.3705,4.3029,0.0,0.0,4.0028,3.8768,3.827,3.8997,3.8912,3.8936,3.9631,3.9498,3.9337,0.0,0.0,0.0,0.0,0.0,0.0,0.0,0.0,0.0,3.3486,3.3325,0.0,0.0,0.0,0.0,0.0,0.0,0.0,0.0,0.0,0.0,0.0,4.4036,4.516,0.0,0.0,0.0,0.0,0.0,0.0,0.0,0.0,0.0,0.0,0.0,0.0,5.1534,5.5235,5.6935,5.8498,5.9934,5.9894,5.9804,5.9667,5.9025,5.707,5.3659,0.0,0.0,0.0,0.0,0.0,0.0,0.0,0.0,0.0,0.0,0.0,0.0,0.0,0.0,0.0,0.0,0.0,0.0,0.0,0.0,0.0,0.0,0.0,0.0,0.0,3.1317,0.0,0.0,0.0,0.0,0.0,0.0,0.0,0.0,0.0,0.0,3.9224,4.1122,4.3844,4.4975,4.594,4.6966,4.7525,4.8179,0.0,0.0,0.0,0.0,0.0,0.0,0.0,0.0,0.0,0.0,0.0,0.0,0.0,3.9675,3.7886,3.6866,3.5753,3.5304,3.6129,0.0,0.0,0.0,0.0,0.0,0.0,0.0,0.0,0.0,0.0,0.0,0.0,0.0,0.0,0.0,3.156,0.0,0.0,2.705,0.0,0.0,0.0,0.0,0.0,0.0,0.0,0.0,0.0,0.0,0.0,0.0,0.0,0.0,0.0,0.0,0.0,0.0,0.0,0.0,0.0,0.0,4.88,5.3539,5.5342,5.6933,5.8283,5.8333,5.8312,5.815,5.65,5.5538,5.5138,0.0,0.0,0.0,0.0,0.0,0.0,0.0,0.0,0.0,0.0,0.0,0.0,0.0,0.0,0.0,0.0,0.0,0.0,0.0,0.0,0.0,0.0,0.0,0.0,0.0,0.0,2.9375,2.9393,2.9428,0.0,0.0,0.0,0.0,0.0,0.0,0.0,0.0,0.0,4.0987,4.3753,4.5627,4.5733,4.7012,4.8003,4.7884,4.7731,4.756,4.7335,4.7088,4.6395,0.0,0.0,0.0,0.0,0.0,0.0,0.0,0.0,0.0,0.0,0.0,0.0,0.0,0.0,0.0,0.0,0.0,0.0,0.0,0.0,0.0,0.0,0.0,0.0,0.0,0.0,0.0,0.0,0.0,0.0,0.0,0.0,0.0,0.0,0.0,0.0,0.0,0.0,0.0,0.0,0.0,0.0,0.0,0.0,0.0,0.0,0.0,0.0,0.0,0.0,0.0,0.0,0.0,0.0,4.7115,5.1966,5.4794,5.692,5.8445,5.8448,5.8373,5.8201,5.6527,5.4521,0.0,0.0,0.0,0.0,0.0,0.0,0.0,0.0,0.0,0.0,0.0,0.0,0.0,0.0,0.0,0.0,0.0,0.0,0.0,0.0,0.0,0.0,0.0,0.0,0.0,0.0,0.0,0.0,2.8666,2.9359,2.9308,0.0,0.0,0.0,0.0,0.0,0.0,0.0,0.0,0.0,0.0,4.4706,4.5812,4.7232,4.8098,4.7971,4.786,4.7695,4.7552,4.64,4.5352,4.468,0.0,0.0,0.0,0.0,0.0,0.0,0.0,0.0,0.0,0.0,0.0,0.0,0.0,0.0,0.0,0.0,0.0,0.0,0.0,0.0,0.0,0.0,0.0,0.0,0.0,0.0,0.0,0.0,0.0,0.0,0.0,0.0,0.0,0.0,0.0,0.0,0.0,0.0,0.0,0.0,0.0,0.0,0.0,0.0,0.0,0.0,0.0,0.0,0.0,0.0,0.0,0.0,0.0,4.5754,5.1213,5.3928,5.6339,5.8412,5.8507,5.8421,5.8306,5.5949,5.3458,0.0,0.0,0.0,0.0,0.0,0.0,0.0,0.0,0.0,0.0,0.0,0.0,0.0,0.0,0.0,0.0,0.0,0.0,0.0,0.0,0.0,0.0,0.0,0.0,0.0,0.0,0.0,0.0,2.7416,2.8416,2.8383,0.0,0.0,0.0,0.0,0.0,0.0,0.0,0.0,0.0,0.0,4.3428,4.4997,4.6456,0.0,0.0,4.7498,4.6915,4.6761,4.5202,4.3742,4.2971,4.1372,0.0,0.0,0.0,0.0,0.0,0.0,0.0,0.0,0.0,0.0,0.0,0.0,0.0,0.0,0.0,0.0,0.0,0.0,0.0,0.0,0.0,0.0,0.0,0.0,0.0,0.0,0.0,0.0,0.0,0.0,0.0,0.0,0.0,0.0,0.0,0.0,0.0,0.0,0.0,0.0,0.0,0.0,0.0,0.0,0.0,0.0,0.0,0.0,0.0,0.0,0.0,0.0,4.4655,5.0956,5.2919,5.54,5.8415,5.8505,5.8422,5.8122,5.496,5.2378,0.0,0.0,0.0,0.0,0.0,0.0,0.0,0.0,0.0,0.0,0.0,0.0,0.0,0.0,0.0,0.0,0.0,0.0,0.0,0.0,0.0,0.0,0.0,0.0,0.0,0.0,0.0,0.0,0.0,0.0,0.0,0.0,0.0,0.0,0.0,0.0,0.0,0.0,0.0,0.0,0.0,4.2002,4.3554,4.5012,4.6451,0.0,4.6635,4.5463,4.5193,4.3602,4.1836,4.0024,0.0,0.0,0.0,0.0,0.0,0.0,0.0,0.0,0.0,0.0,0.0,0.0,0.0,0.0,0.0,0.0,0.0,0.0,0.0,0.0,0.0,0.0,0.0,0.0,0.0,0.0,0.0,0.0,0.0,0.0,0.0,0.0,0.0,0.0,0.0,0.0,0.0,0.0,0.0,0.0,0.0,0.0,0.0,0.0,0.0,0.0,0.0,0.0,0.0,0.0,0.0,0.0,0.0,0.0,4.9442,5.2402,5.5404,5.8526,5.858,5.7875,5.6596,5.452,0.0,0.0,0.0,0.0,0.0,0.0,0.0,0.0,0.0,0.0,0.0,0.0,0.0,0.0,0.0,0.0,0.0,0.0,0.0,0.0,0.0,0.0,0.0,0.0,0.0,0.0,0.0,2.2575,0.0,0.0,0.0,0.0,0.0,0.0,0.0,0.0,0.0,0.0,0.0,0.0,0.0,0.0,4.1657,4.1999,4.3418,4.4521,0.0,0.0,4.3887,4.3687,4.2103,4.0283,0.0,0.0,0.0,0.0,0.0,0.0,0.0,0.0,0.0,0.0,0.0,0.0,0.0,0.0,0.0,0.0,0.0,0.0,0.0,0.0,0.0,0.0,0.0,0.0,0.0,0.0,0.0,0.0,0.0,0.0,0.0,0.0,0.0,0.0,0.0,0.0,0.0,0.0,0.0,0.0,0.0,0.0,0.0,0.0,0.0,0.0,0.0,0.0,0.0,0.0,0.0,0.0,0.0,0.0,4.233,4.8814,5.2213,5.541,5.853,5.8583,5.772,5.6052,5.4361,5.1156,0.0,0.0,0.0,0.0,0.0,0.0,0.0,0.0,0.0,0.0,0.0,0.0,0.0,0.0,0.0,0.0,0.0,0.0,0.0,0.0,0.0,0.0,0.0,0.0,0.0,0.0,0.0,0.0,0.0,0.0,0.0,0.0,0.0,0.0,0.0,0.0,0.0,0.0,0.0,0.0,0.0,0.0,4.1284,4.2253,0.0,0.0,0.0,4.2289,4.2144,0.0,0.0,0.0,0.0,0.0,0.0,0.0,0.0,0.0,0.0,0.0,0.0,0.0,0.0,0.0,0.0,0.0,0.0,0.0,0.0,0.0,0.0,0.0,0.0,0.0,0.0,0.0,0.0,0.0,0.0,0.0,0.0,0.0,0.0,0.0,0.0,0.0,0.0,0.0,0.0,0.0,0.0,0.0,0.0,0.0,0.0,0.0,0.0,0.0,0.0,0.0,0.0,0.0,0.0,0.0,0.0,0.0,4.8816,5.2182,5.5441,5.8493,5.8597,5.7631,5.5766,5.4285,5.1042,0.0,0.0,0.0,0.0,0.0,0.0,0.0,0.0,0.0,0.0,0.0,0.0,0.0,0.0,0.0,0.0,0.0,0.0,0.0,0.0,0.0,0.0,0.0,0.0,0.0,0.0,0.0,0.0,0.0,0.0,0.0,0.0,0.0,0.0,0.0,0.0,0.0,0.0,0.0,0.0,0.0,3.7815,4.0643,4.1069,4.1567,0.0,0.0,4.0334,4.0034,3.7472,0.0,0.0,0.0,0.0,0.0,0.0,0.0,0.0,0.0,0.0,0.0,0.0,0.0,0.0,0.0,0.0,0.0,0.0,0.0,0.0,0.0,0.0,0.0,0.0,0.0,0.0,0.0,0.0,0.0,0.0,0.0,0.0,0.0,0.0,0.0,0.0,0.0,0.0,0.0,0.0,0.0,0.0,0.0,0.0,0.0,0.0,0.0,0.0,0.0,0.0,0.0,0.0,0.0,0.0,0.0,0.0,4.8856,5.2176,5.5404,5.853,5.8654,5.7203,5.4244,5.3814,5.0668,0.0,0.0,0.0,0.0,0.0,0.0,0.0,0.0,0.0,0.0,0.0,0.0,0.0,0.0,0.0,0.0,0.0,0.0,0.0,0.0,0.0,0.0,0.0,0.0,0.0,0.0,0.0,0.0,0.0,0.0,0.0,0.0,0.0,0.0,0.0,0.0,0.0,0.0,0.0,0.0,0.0,3.6994,3.763,3.869,0.0,0.0,0.0,0.0,3.5317,3.4403,0.0,0.0,0.0,0.0,0.0,0.0,0.0,0.0,0.0,0.0,0.0,0.0,0.0,0.0,0.0,0.0,0.0,0.0,0.0,0.0,0.0,0.0,0.0,0.0,0.0,0.0,0.0,0.0,0.0,0.0,0.0,0.0,0.0,0.0,0.0,0.0,0.0,0.0,0.0,0.0,0.0,0.0,0.0,0.0,0.0,0.0,0.0,0.0,0.0,0.0,0.0,0.0,0.0,0.0,0.0,0.0,4.7614,5.1802,5.5036,5.7422,5.8273,5.7085,5.3777,5.3612,5.0543,0.0,0.0,0.0,0.0,0.0,0.0,0.0,0.0,0.0,0.0,0.0,0.0,0.0,0.0,0.0,0.0,0.0,0.0,0.0,0.0,0.0,0.0,0.0,0.0,0.0,0.0,0.0,0.0,0.0,0.0,0.0,0.0,0.0,0.0,0.0,0.0,0.0,0.0,0.0,0.0,3.3307,3.4689,3.5401,0.0,0.0,0.0,0.0,0.0,0.0,3.2882,3.2006,0.0,0.0,0.0,0.0,0.0,0.0,0.0,0.0,0.0,0.0,0.0,0.0,0.0,0.0,0.0,0.0,0.0,0.0,0.0,0.0,0.0,0.0,0.0,0.0,0.0,0.0,0.0,0.0,0.0,0.0,0.0,0.0,0.0,0.0,0.0,0.0,0.0,0.0,0.0,0.0,0.0,0.0,0.0,0.0,0.0,0.0,0.0,0.0,0.0,0.0,0.0,0.0,0.0,0.0,0.0,4.6009,5.0903,5.4287,5.6163,5.7831,5.7095,5.3801,5.3626,5.0392,4.3719,0.0,0.0,0.0,0.0,0.0,0.0,0.0,0.0,0.0,0.0,0.0,0.0,0.0,0.0,0.0,0.0,0.0,0.0,0.0,0.0,0.0,0.0,0.0,0.0,0.0,0.0,0.0,0.0,0.0,0.0,0.0,0.0,0.0,0.0,0.0,0.0,0.0,0.0,0.0,3.1527,3.2344,0.0,0.0,0.0,0.0,0.0,0.0,0.0,0.0,3.0519,0.0,0.0,0.0,0.0,0.0,0.0,0.0,0.0,0.0,0.0,0.0,0.0,0.0,0.0,0.0,0.0,0.0,0.0,0.0,0.0,0.0,0.0,0.0,0.0,0.0,0.0,0.0,0.0,0.0,0.0,0.0,0.0,0.0,0.0,0.0,0.0,0.0,0.0,0.0,0.0,0.0,0.0,0.0,0.0,0.0,0.0,0.0,0.0,0.0,0.0,0.0,0.0,0.0,0.0,0.0,0.0,4.9191,5.3162,5.6072,5.7858,5.7082,5.3773,5.3622,4.9897,4.2082,0.0,0.0,0.0,0.0,0.0,0.0,0.0,0.0,0.0,0.0,0.0,0.0,0.0,0.0,0.0,0.0,0.0,0.0,0.0,0.0,0.0,0.0,0.0,0.0,0.0,0.0,0.0,0.0,0.0,0.0,0.0,0.0,0.0,0.0,0.0,0.0,0.0,0.0,2.7377,3.0078,0.0,0.0,0.0,0.0,0.0,0.0,0.0,0.0,2.9358,0.0,0.0,0.0,0.0,0.0,0.0,0.0,0.0,0.0,0.0,0.0,0.0,0.0,0.0,0.0,0.0,0.0,0.0,0.0,0.0,0.0,0.0,0.0,0.0,0.0,0.0,0.0,0.0,0.0,0.0,0.0,0.0,0.0,0.0,0.0,0.0,0.0,0.0,0.0,0.0,0.0,0.0,0.0,0.0,0.0,0.0,0.0,0.0,0.0,0.0,0.0,0.0,0.0,0.0,0.0,0.0,0.0,0.0,5.2487,5.4884,5.7372,5.7089,5.3826,5.2843,4.8953,0.0,0.0,0.0,0.0,0.0,0.0,0.0,0.0,0.0,0.0,0.0,0.0,0.0,0.0,0.0,0.0,0.0,0.0,0.0,0.0,0.0,0.0,0.0,0.0,0.0,0.0,0.0,0.0,0.0,0.0,0.0,0.0,0.0,0.0,0.0,0.0,0.0,0.0,0.0,0.0,0.0,0.0,0.0,0.0,0.0,0.0,0.0,0.0,0.0,0.0,0.0,0.0,0.0,0.0,0.0,0.0,0.0,0.0,0.0,0.0,0.0,0.0,0.0,0.0,0.0,0.0,0.0,0.0,0.0,0.0,0.0,0.0,0.0,0.0,0.0,0.0,0.0,0.0,0.0,0.0,0.0,0.0,0.0,0.0,0.0,0.0,0.0,0.0,0.0,0.0,0.0,0.0,0.0,0.0,0.0,0.0,0.0,0.0,0.0,0.0,0.0,0.0,0.0,0.0,0.0,0.0,0.0,0.0,5.1771,5.3832,5.7038,5.7095,5.3771,5.1769,4.7704,0.0,0.0,0.0,0.0,0.0,0.0,0.0,0.0,0.0,0.0,0.0,0.0,0.0,0.0,0.0,0.0,0.0,0.0,0.0,0.0,0.0,0.0,0.0,0.0,0.0,0.0,0.0,0.0,0.0,0.0,0.0,0.0,0.0,0.0,0.0,0.0,0.0,0.0,0.0,0.0,0.0,0.0,0.0,0.0,0.0,0.0,0.0,0.0,2.6641,0.0,0.0,0.0,0.0,0.0,0.0,0.0,0.0,0.0,0.0,0.0,0.0,0.0,0.0,0.0,0.0,0.0,0.0,0.0,0.0,0.0,0.0,0.0,0.0,0.0,0.0,0.0,0.0,0.0,0.0,0.0,0.0,0.0,0.0,0.0,0.0,0.0,0.0,0.0,0.0,0.0,0.0,0.0,0.0,0.0,0.0,0.0,0.0,0.0,0.0,0.0,0.0,0.0,0.0,0.0,0.0,0.0,0.0,0.0,5.0707,5.3815,5.7018,5.7159,5.3906,5.0711,4.597,0.0,0.0,0.0,0.0,0.0,0.0,0.0,0.0,0.0,0.0,0.0,0.0,0.0,0.0,0.0,0.0,0.0,0.0,0.0,0.0,0.0,0.0,0.0,0.0,0.0,0.0,0.0,0.0,0.0,0.0,0.0,0.0,0.0,0.0,0.0,0.0,0.0,0.0,0.0,0.0,0.0,0.0,0.0,0.0,0.0,0.0,0.0,0.0,0.0,0.0,0.0,0.0,0.0,0.0,0.0,0.0,0.0,0.0,0.0,0.0,0.0,0.0,0.0,0.0,0.0,0.0,0.0,0.0,0.0,0.0,0.0,0.0,0.0,0.0,0.0,0.0,0.0,0.0,0.0,0.0,0.0,0.0,0.0,0.0,0.0,0.0,0.0,0.0,0.0,0.0,0.0,0.0,0.0,0.0,0.0,0.0,0.0,0.0,0.0,0.0,0.0,0.0,0.0,0.0,0.0,0.0,0.0,0.0,4.8104,5.2329,5.5578,5.5705,5.243,5.0128,4.5786,0.0,0.0,0.0,0.0,0.0,0.0,0.0,0.0,0.0,0.0,0.0,0.0,0.0,0.0,0.0,0.0,0.0,0.0,0.0,0.0,0.0,0.0,0.0,0.0,0.0,0.0,0.0,0.0,0.0,0.0,0.0,0.0,0.0,0.0,0.0,0.0,0.0,0.0,0.0,0.0,0.0,0.0,0.0,0.0,0.0,0.0,0.0,0.0,0.0,0.0,0.0,0.0,0.0,0.0,0.0,0.0,0.0,0.0,0.0,0.0,0.0,0.0,0.0,0.0,0.0,0.0,0.0,0.0,0.0,0.0,0.0,0.0,0.0,0.0,0.0,0.0,0.0,0.0,0.0,0.0,0.0,0.0,0.0,0.0,0.0,0.0,0.0,0.0,0.0,0.0,0.0,0.0,0.0,0.0,0.0,0.0,0.0,0.0,0.0,0.0,0.0,0.0,0.0,0.0,0.0,0.0,0.0,0.0,0.0,5.0567,5.3036,5.2905,5.0134,4.8514,4.4731,0.0,0.0,0.0,0.0,0.0,0.0,0.0,0.0,0.0,0.0,0.0,0.0,0.0,0.0,0.0,0.0,0.0,0.0,0.0,0.0,0.0,0.0,0.0,0.0,0.0,0.0,0.0,0.0,0.0,0.0,0.0,0.0,0.0,0.0,0.0,0.0,0.0,0.0,0.0,0.0,0.0,0.0,0.0,0.0,0.0,0.0,0.0,0.0,0.0,0.0,0.0,0.0,0.0,0.0,0.0,0.0,0.0,0.0,0.0,0.0,0.0,0.0,0.0,0.0,0.0,0.0,0.0,0.0,0.0,0.0,0.0,0.0,0.0,0.0,0.0,0.0,0.0,0.0,0.0,0.0,0.0,0.0,0.0,0.0,0.0,0.0,0.0,0.0,0.0,0.0,0.0,0.0,0.0,0.0,0.0,0.0,0.0,0.0,0.0,0.0,0.0,0.0,0.0,0.0,0.0,0.0,0.0,0.0,0.0,4.9074,4.9329,4.8534,4.6746,4.512,4.1848,0.0,0.0,0.0,0.0,0.0,0.0,0.0,0.0,0.0,0.0,0.0,0.0,0.0,0.0,0.0,0.0,0.0,0.0,0.0,0.0,0.0,0.0,0.0,0.0,0.0,0.0,0.0,0.0,0.0,0.0,0.0,0.0,0.0,0.0,0.0,0.0,0.0,0.0,0.0,0.0,0.0,0.0,0.0,0.0,0.0,0.0,0.0,0.0,0.0,0.0,0.0,0.0,0.0,0.0,0.0,0.0,0.0,0.0,0.0,0.0,0.0,0.0,0.0,0.0,0.0,0.0,0.0,0.0,0.0,0.0,0.0,0.0,0.0,0.0,0.0,0.0,0.0,0.0,0.0,0.0,0.0,0.0,0.0,0.0,0.0,0.0,0.0,0.0,0.0,0.0,0.0,0.0,0.0,0.0,0.0,0.0,0.0,0.0,0.0,0.0,0.0,0.0,0.0,0.0,0.0,0.0,0.0,0.0,0.0,4.2748,4.476,4.5059,4.3454,4.2793,4.0158,3.5241,0.0,0.0,0.0,0.0,0.0,0.0,0.0,0.0,0.0,0.0,0.0,0.0,0.0,0.0,0.0,0.0,0.0,0.0,0.0,0.0,0.0,0.0,0.0,0.0,0.0,0.0,0.0,0.0,0.0,0.0,0.0,0.0,0.0,0.0,0.0,0.0,0.0,0.0,0.0,0.0,0.0,0.0,0.0,0.0,0.0,0.0,0.0,0.0,0.0,0.0,0.0,0.0,0.0,0.0,0.0,0.0,0.0,0.0,0.0,0.0,0.0,0.0,0.0,0.0,0.0,0.0,0.0,0.0,0.0,0.0,0.0,0.0,0.0,0.0,0.0,0.0,0.0,0.0,0.0,0.0,0.0,0.0,0.0,0.0,0.0,0.0,0.0,0.0,0.0,0.0,0.0,0.0,0.0,0.0,0.0,0.0,0.0,0.0,0.0,0.0,0.0,0.0,0.0,0.0,0.0,0.0,0.0,0.0,3.6815,4.0031,4.0951,3.9369,3.931,3.7195,0.0,0.0,0.0,0.0,0.0,0.0,0.0,0.0,0.0,0.0,0.0,0.0,0.0,0.0,0.0,0.0,0.0,0.0,0.0,0.0,0.0,0.0,0.0,0.0,0.0,0.0,0.0,0.0,0.0,0.0,0.0,0.0,0.0,0.0,0.0,0.0,0.0,0.0,0.0,0.0,0.0,0.0,0.0,0.0,0.0,0.0,0.0,0.0,0.0,0.0,0.0,0.0,0.0,0.0,0.0,0.0,0.0,0.0,0.0,0.0,0.0,0.0,0.0,0.0,0.0,0.0,0.0,0.0,0.0,0.0,0.0,0.0,0.0,0.0,0.0,0.0,0.0,0.0,0.0,0.0,0.0,0.0,0.0,0.0,0.0,0.0,0.0,0.0,0.0,0.0,0.0,0.0,0.0,0.0,0.0,0.0,0.0,0.0,0.0,0.0,0.0,0.0,0.0,0.0,0.0,0.0,0.0,0.0,2.8749,3.1889,3.5137,3.6146,3.4357,3.4441,3.2737,0.0,0.0,0.0,0.0,0.0,0.0,0.0,0.0,0.0,0.0,0.0,0.0,0.0,0.0,0.0,0.0,0.0,0.0,0.0,0.0,0.0,0.0,0.0,0.0,0.0,0.0,0.0,0.0,0.0,0.0,0.0,0.0,0.0,0.0,0.0,0.0,0.0,0.0,0.0,0.0,0.0,0.0,0.0,0.0,0.0,0.0,0.0,0.0,0.0,0.0,0.0,0.0,0.0,0.0,0.0,0.0,0.0,0.0,0.0,0.0,0.0,0.0,0.0,0.0,0.0,0.0,0.0,0.0,0.0,0.0,0.0,0.0,0.0,0.0,0.0,0.0,0.0,0.0,0.0,0.0,0.0,0.0,0.0,0.0,0.0,0.0,0.0,0.0,0.0,0.0,0.0,0.0,0.0,0.0,0.0,0.0,0.0,0.0,0.0,0.0,0.0,0.0,0.0,0.0,0.0,0.0,0.0,0.0,0.0,2.8528,0.0,3.3199,3.2639,3.2607,3.1057,0.0,0.0,0.0,0.0,0.0,0.0,0.0,0.0,0.0,0.0,0.0,0.0,0.0,0.0,0.0,0.0,0.0,0.0,0.0,0.0,0.0,0.0,0.0,0.0,0.0,0.0,0.0,0.0,0.0,0.0,0.0,0.0,0.0,0.0,0.0,0.0,0.0,0.0,0.0,0.0,0.0,0.0,0.0,0.0,0.0,0.0,0.0,0.0,0.0,0.0,0.0,0.0,0.0,0.0,0.0,0.0,0.0,0.0,0.0,0.0,0.0,0.0,0.0,0.0,0.0,0.0,0.0,0.0,0.0,0.0,0.0,0.0,0.0,0.0,0.0,0.0,0.0,0.0,0.0,0.0,0.0,0.0,0.0,0.0,0.0,0.0,0.0,0.0,0.0,0.0,0.0,0.0,0.0,0.0,0.0,0.0,0.0,0.0,0.0,0.0,0.0,0.0,0.0,0.0,0.0,0.0,0.0,0.0,0.0,2.5246,2.7874,2.9221,2.927,2.9785,2.8507,0.0,0.0,0.0,0.0,0.0,0.0,0.0,0.0,0.0,0.0,0.0,0.0,0.0,0.0,0.0,0.0,0.0,0.0,0.0,0.0,0.0,0.0,0.0,0.0,0.0,0.0,0.0,0.0,0.0,0.0,0.0,0.0,0.0,0.0,0.0,0.0,0.0,0.0,0.0,0.0,0.0,0.0,0.0,0.0,0.0,0.0,0.0,0.0,0.0,0.0,0.0,0.0,0.0,0.0,0.0,0.0,0.0,0.0,0.0,0.0,0.0,0.0,0.0,0.0,0.0,0.0,0.0,0.0,0.0,0.0,0.0,0.0,0.0,0.0,0.0,0.0,0.0,0.0,0.0,0.0,0.0,0.0,0.0,0.0,0.0,0.0,0.0,0.0,0.0,0.0,0.0,0.0,0.0,0.0,0.0,0.0,0.0,0.0,0.0,0.0,0.0,0.0,0.0,0.0,0.0,0.0,0.0,0.0,0.0,2.2249,2.3669,2.4445,2.4653,2.5983,2.5215,0.0,0.0,0.0,0.0,0.0,0.0,0.0,0.0,0.0,0.0,0.0,0.0,0.0,0.0,0.0,0.0,0.0,0.0,0.0,0.0,0.0,0.0,0.0,0.0,0.0,0.0,0.0,0.0,0.0,0.0,0.0,0.0,0.0,0.0,0.0,0.0,0.0,0.0,0.0,0.0,0.0,0.0,0.0,0.0,0.0,0.0,0.0,0.0,0.0,0.0,0.0,0.0,0.0,0.0,0.0,0.0,0.0,0.0,0.0,0.0,0.0,0.0,0.0,0.0,0.0,0.0,0.0,0.0,0.0,0.0,0.0,0.0,0.0,0.0,0.0,0.0,0.0,0.0,0.0,0.0,0.0,0.0,0.0,0.0,0.0,0.0,0.0,0.0,0.0,0.0,0.0,0.0,0.0,0.0,0.0,0.0,0.0,0.0,0.0,0.0,0.0,0.0,0.0,0.0,0.0,0.0,0.0,0.0,0.0,0.0,2.2569,2.3347,2.446,2.4917,2.4154,2.2017,0.0,0.0,0.0,0.0,0.0,0.0,0.0,0.0,0.0,0.0,0.0,0.0,0.0,0.0,0.0,0.0,0.0,0.0,0.0,0.0,0.0,0.0,0.0,0.0,0.0,0.0,0.0,0.0,0.0,0.0,0.0,0.0,0.0,0.0,0.0,0.0,0.0,0.0,0.0,0.0,0.0,0.0,0.0,0.0,0.0,0.0,0.0,0.0,0.0,0.0,0.0,0.0,0.0,0.0,0.0,0.0,0.0,0.0,0.0,0.0,0.0,0.0,0.0,0.0,0.0,0.0,0.0,0.0,0.0,0.0,0.0,0.0,0.0,0.0,0.0,0.0,0.0,0.0,0.0,0.0,0.0,0.0,0.0,0.0,0.0,0.0,0.0,0.0,0.0,0.0,0.0,0.0,0.0,0.0,0.0,0.0,0.0,0.0,0.0,0.0,0.0,0.0,0.0,0.0,0.0,0.0,0.0,0.0,0.0,0.0,2.1901,2.3499,2.2885,2.2067,0.0,0.0,0.0,0.0,0.0,0.0,0.0,0.0,0.0,0.0,0.0,0.0,0.0,0.0,0.0,0.0,0.0,0.0,0.0,0.0,0.0,0.0,0.0,0.0,0.0,0.0,0.0,0.0,0.0,0.0,0.0,0.0,0.0,0.0,0.0,0.0,0.0,0.0,0.0,0.0,0.0,0.0,0.0,0.0,0.0,0.0,0.0,0.0,0.0,0.0,0.0,0.0,0.0,0.0,0.0,0.0,0.0,0.0,0.0,0.0,0.0,0.0,0.0,0.0,0.0,0.0,0.0,0.0,0.0,0.0,0.0,0.0,0.0,0.0,0.0,0.0,0.0,0.0,0.0,0.0,0.0,0.0,0.0,0.0,0.0,0.0,0.0,0.0,0.0,0.0,0.0,0.0,0.0,0.0,0.0,0.0,0.0,0.0,0.0,0.0,0.0,0.0,0.0,0.0,0.0,0.0,0.0,0.0,0.0,0.0,0.0,2.0389,2.1863,2.044,0.0,1.9636,0.0,0.0,0.0,0.0,0.0,0.0,0.0,0.0,0.0,0.0,0.0,0.0,0.0,0.0,0.0,0.0,0.0,0.0,0.0,0.0,0.0,0.0,0.0,0.0,0.0,0.0,0.0,0.0,0.0,0.0,0.0,0.0,0.0,0.0,0.0,0.0,0.0,0.0,0.0,0.0,0.0,0.0,0.0,0.0,0.0,0.0,0.0,0.0,0.0,0.0,0.0,0.0,0.0,0.0,0.0,0.0,0.0,0.0,0.0,0.0,0.0,0.0,0.0,0.0,0.0,0.0,0.0,0.0,0.0,0.0,0.0,0.0,0.0,0.0,0.0,0.0,0.0,0.0,0.0,0.0,0.0,0.0,0.0,0.0,0.0,0.0,0.0,0.0,0.0,0.0,0.0,0.0,0.0,0.0,0.0,0.0,0.0,0.0,0.0,0.0,0.0,0.0,0.0,0.0,0.0,0.0,0.0,0.0,0.0,0.0,0.0,0.0,1.9813,1.965,1.9654,0.0,0.0,0.0,0.0,0.0,0.0,0.0,0.0,0.0,0.0,0.0,0.0,0.0,0.0,0.0,0.0,0.0,0.0,0.0,0.0,0.0,0.0,0.0,0.0,0.0,0.0,0.0,0.0,0.0,0.0,0.0,0.0,0.0,0.0,0.0,0.0,0.0,0.0,0.0,0.0,0.0,0.0,0.0,0.0,0.0,0.0,0.0,0.0,0.0,0.0,0.0,0.0,0.0,0.0,0.0,0.0,0.0,0.0,0.0,0.0,0.0,0.0,0.0,0.0,0.0,0.0,0.0,0.0,0.0,0.0,0.0,0.0,0.0,0.0,0.0,0.0,0.0,0.0,0.0,0.0,0.0,0.0,0.0,0.0,0.0,0.0,0.0,0.0,0.0,0.0,0.0,0.0,0.0,0.0,0.0,0.0,0.0,0.0,0.0,0.0,0.0,0.0,0.0,0.0,0.0,0.0,0.0,0.0,0.0,0.0,1.9756,1.9622,1.9639,1.9652,1.9631,0.0,0.0,0.0,0.0,0.0,0.0,0.0,0.0,0.0,0.0,0.0,0.0,0.0,0.0,0.0,0.0,0.0,0.0,0.0,0.0,0.0,0.0,0.0,0.0,0.0,0.0,0.0,0.0,0.0,0.0,0.0,0.0,0.0,0.0,0.0,0.0,0.0,0.0,0.0,0.0,0.0,0.0,0.0,0.0,0.0,0.0,0.0,0.0,0.0,0.0,0.0,0.0,0.0,0.0,0.0,0.0,0.0,0.0,0.0,0.0,0.0,0.0,0.0,0.0,0.0,0.0,0.0,0.0,0.0,0.0,0.0,0.0,0.0,0.0,0.0,0.0,0.0,0.0,0.0,0.0,0.0,0.0,0.0,0.0,0.0,0.0,0.0,0.0,0.0,0.0,0.0,0.0,0.0,0.0,0.0,0.0,0.0,0.0,0.0,0.0,0.0,0.0,0.0,0.0,0.0,0.0,0.0,0.0,0.0,0.0,0.0,0.0,0.0,0.0,1.9628,0.0,0.0,0.0,0.0,0.0,0.0,0.0,0.0,0.0,0.0,0.0,0.0,0.0,0.0,0.0,0.0,0.0,0.0,0.0,0.0,0.0,0.0,0.0,0.0,0.0,0.0,0.0,0.0,0.0,0.0,0.0,0.0,0.0,0.0,0.0,0.0,0.0,0.0,0.0,0.0,0.0,0.0,0.0,0.0,0.0,0.0,0.0,0.0,0.0,0.0,0.0,0.0,0.0,0.0,0.0,0.0,0.0,0.0,0.0,0.0,0.0,0.0,0.0,0.0,0.0,0.0,0.0,0.0,0.0,0.0,0.0,0.0,0.0,0.0,0.0,0.0,0.0,0.0,0.0,0.0,0.0,0.0,0.0,0.0,0.0,0.0,0.0,0.0,0.0,0.0,0.0,0.0,0.0,0.0,0.0,0.0,0.0,0.0,0.0,0.0,0.0,0.0,0.0,0.0,0.0,0.0,0.0,0.0,0.0,0.0,0.0,0.0,0.0,0.0,0.0,0.0,0.0,0.0,0.0,0.0,0.0,0.0,0.0,0.0,0.0,0.0,0.0,0.0,0.0,0.0,0.0,0.0,0.0,0.0,0.0,0.0,0.0,0.0,0.0,0.0,0.0,0.0,0.0,0.0,0.0,0.0,0.0,0.0,0.0,0.0,0.0,0.0,0.0,0.0,0.0,0.0,0.0,0.0,0.0,0.0,0.0,0.0,0.0,0.0,0.0,0.0,0.0,0.0,0.0,0.0,0.0,0.0,0.0,0.0,0.0,0.0,0.0,0.0,0.0,0.0,0.0,0.0,0.0,0.0,0.0,0.0,0.0,0.0,0.0,0.0,0.0,0.0,0.0,0.0,0.0,0.0,0.0,0.0,0.0,0.0,0.0,0.0,0.0,0.0,0.0,0.0,0.0,0.0,0.0,0.0,0.0,0.0,0.0,0.0,0.0,0.0,0.0,0.0,0.0,0.0,0.0,0.0,0.0,0.0,0.0,0.0,0.0,0.0,0.0,0.0,0.0,0.0,0.0,0.0,0.0,0.0,0.0,0.0,0.0,0.0,0.0,0.0,0.0,0.0,0.0,0.0,0.0,0.0,0.0,0.0,0.0,0.0,0.0,0.0,0.0,0.0,0.0,0.0,0.0,0.0,0.0,0.0,0.0,0.0,0.0,0.0,0.0,0.0,0.0,0.0,0.0,0.0,0.0,0.0,0.0,0.0,0.0,0.0,0.0,0.0,0.0,0.0,0.0,0.0,0.0,0.0,0.0,0.0,0.0,0.0,0.0,0.0,0.0,0.0,0.0,0.0,0.0,0.0,0.0,0.0,0.0,0.0,0.0,0.0,0.0,0.0,0.0,0.0,0.0,0.0,0.0,0.0,0.0,0.0,0.0,0.0,0.0,0.0,0.0,0.0,0.0,0.0,0.0,0.0,0.0,0.0,0.0,0.0,0.0,0.0,0.0,0.0,0.0,0.0,0.0,0.0,0.0,0.0,0.0,0.0,0.0,0.0,0.0,0.0,0.0,0.0,0.0,0.0,0.0,0.0,0.0,0.0,0.0,0.0,0.0,0.0,0.0,0.0,0.0,0.0,0.0,0.0,0.0,0.0,0.0,0.0,0.0,0.0,0.0,0.0,0.0,0.0,0.0,0.0,0.0,0.0,0.0,0.0,0.0,0.0,0.0,0.0,0.0,0.0,0.0,0.0,0.0,0.0,0.0,0.0,0.0,0.0,0.0,0.0,0.0,0.0,0.0,0.0,0.0,0.0,0.0,0.0,0.0,0.0,0.0,0.0,0.0,0.0,0.0,0.0,0.0,0.0,0.0,0.0,0.0,0.0,0.0,0.0,0.0,0.0,0.0,0.0,0.0,0.0,0.0,0.0,0.0,0.0,0.0,0.0,0.0,0.0,0.0,0.0,0.0,0.0,0.0,0.0,0.0,0.0,0.0,0.0,0.0,0.0,0.0,0.0,0.0,0.0,0.0,0.0,0.0,0.0,0.0,0.0,0.0,0.0,0.0,0.0,0.0,0.0,0.0,0.0,0.0,0.0,0.0,0.0,0.0,0.0,0.0,0.0,0.0,0.0,0.0,0.0,0.0,0.0,0.0,0.0,0.0,0.0,0.0,0.0,0.0,0.0,0.0,0.0,0.0,0.0,0.0,0.0,0.0,0.0,0.0,0.0,0.0,0.0,0.0,0.0,0.0,0.0,0.0,0.0,0.0,0.0,0.0,0.0,0.0,0.0,0.0,0.0,0.0,0.0,0.0,0.0,0.0,0.0,0.0,0.0,0.0,0.0,0.0,0.0,0.0,0.0,0.0,0.0,0.0,0.0,0.0,0.0,0.0,0.0,0.0,0.0,0.0,0.0,0.0,0.0,0.0,0.0,0.0,0.0,0.0,0.0,0.0,0.0,0.0,0.0,0.0,0.0,0.0,0.0,0.0,0.0,0.0,0.0,0.0,0.0,0.0,0.0,0.0,0.0,0.0,0.0,0.0,0.0,0.0,0.0,0.0,0.0,0.0,0.0,0.0,0.0,0.0,0.0,0.0,0.0,0.0,0.0,0.0,0.0,0.0,0.0,0.0,0.0,0.0,0.0,0.0,0.0,0.0,0.0,0.0,0.0,0.0,0.0,0.0,0.0,0.0,0.0,0.0,0.0,0.0,0.0,0.0,0.0,0.0,0.0,0.0,0.0,0.0,0.0,0.0,0.0,0.0,0.0,0.0,0.0,0.0,0.0,0.0,0.0,0.0,0.0,0.0,0.0,0.0,0.0,0.0,0.0,0.0,0.0,0.0,0.0,0.0,0.0,0.0,0.0,0.0,0.0,0.0,0.0,0.0,0.0,0.0,0.0,0.0,0.0,0.0,0.0,0.0,0.0,0.0,0.0,0.0,0.0,0.0,0.0,0.0,0.0,0.0,0.0,0.0,0.0,0.0,0.0,0.0,0.0,0.0,0.0,0.0,0.0,0.0,0.0,0.0,0.0,0.0,0.0,0.0,0.0,0.0,0.0,0.0,0.0,0.0,0.0,0.0,0.0,0.0,0.0,0.0,0.0,0.0,0.0,0.0,0.0,0.0,0.0,0.0,0.0,0.0,0.0,0.0,0.0,0.0,0.0,0.0,0.0,0.0,0.0,0.0,0.0,0.0,0.0,0.0,0.0,0.0,0.0,0.0,0.0,0.0,0.0,0.0,0.0,0.0,0.0,0.0,0.0,0.0,0.0,0.0,0.0,0.0,0.0,0.0,0.0,0.0,0.0,0.0,0.0,0.0,0.0,0.0,0.0,0.0,0.0,0.0,0.0,0.0,0.0,0.0,0.0,0.0,0.0,0.0,0.0,0.0,0.0,0.0,0.0,0.0,0.0,0.0,0.0,0.0,0.0,0.0,0.0,0.0,0.0,0.0,0.0,0.0,0.0,0.0,0.0,0.0,0.0,0.0,0.0,0.0,0.0,0.0,0.0,0.0,0.0,0.0,0.0,0.0,0.0,0.0,0.0,0.0,0.0,0.0,0.0,0.0,0.0,0.0,0.0,0.0,0.0,0.0,0.0,0.0,0.0,0.0,0.0,0.0,0.0,0.0,0.0,0.0,0.0,0.0,0.0,0.0,0.0,0.0,0.0,0.0,0.0,0.0,0.0,0.0,0.0,0.0,0.0,0.0,0.0,0.0,0.0,0.0,0.0,0.0,0.0,0.0,0.0,0.0,0.0,0.0,0.0,0.0,0.0,0.0,0.0,0.0,0.0,0.0,0.0,0.0,0.0,0.0,0.0,0.0,0.0,0.0,0.0,0.0,0.0,0.0,0.0,0.0,0.0,0.0,0.0,0.0,0.0,0.0,0.0,0.0,0.0,0.0,0.0,0.0,0.0,0.0,0.0,0.0,0.0,0.0,0.0,0.0,0.0,0.0,0.0,0.0,0.0,0.0,0.0,0.0,0.0,0.0,0.0,0.0,0.0,0.0,0.0,0.0,0.0,0.0,0.0,0.0,0.0,0.0,0.0,0.0,0.0,0.0,0.0,0.0,0.0,0.0,0.0,0.0,0.0,0.0,0.0,0.0,0.0,0.0,0.0,0.0,0.0,0.0,0.0,0.0,0.0,0.0,0.0,0.0,0.0,0.0,0.0,0.0,0.0,0.0,0.0,0.0,0.0,0.0,0.0,0.0,0.0,0.0,0.0,0.0,0.0,0.0,0.0,0.0,0.0,0.0,0.0,0.0,0.0,0.0,0.0,0.0,0.0,0.0,0.0,0.0,0.0,0.0,0.0,0.0,0.0,0.0,0.0,0.0,0.0,0.0,0.0,0.0,0.0,0.0,0.0,0.0,0.0,0.0,0.0,0.0,0.0,0.0,0.0,0.0,0.0]}],[{"header":{"parameterUnit":"kt","parameterCategory":2,"dx":1,"dy":1,"la1":29.587661999999998,"la2":31.0,"lo1":-88.76705300000003,"lo2":-86.6583820000003,"nx":115,"ny":88,"refTime":"2022-09-19T06:00:00:Z","depth":0,"parameterNumber":2,"parameterNumberName":"V-component_of_WINDS"},"data":[1.7695,1.8614,1.9269,1.9733,2.0121,2.0647,2.1058,2.1625,2.2946,2.3768,2.4179,2.4889,2.4914,2.3979,2.5161,2.5866,2.6287,2.6629,2.7007,2.7454,2.7517,2.7968,2.8454,2.8861,2.961,2.999,2.9942,2.8962,2.8286,2.8078,2.7624,2.6738,2.66,2.6623,2.6659,2.6858,2.7256,2.7338,2.763,2.7816,2.7816,2.7816,2.7816,2.7816,2.7816,2.7816,2.7816,2.7816,2.7816,2.7816,2.7816,2.7816,2.7816,2.7816,2.7816,2.7816,2.7816,2.7816,2.7816,2.7816,2.7816,2.7816,2.7816,2.7816,2.7816,2.7816,2.7816,2.7816,2.7816,2.7816,2.7816,2.7816,2.7816,2.7816,2.7816,2.7816,2.7816,2.7816,2.7816,2.7816,2.7816,2.7816,2.7816,2.791,2.8108,2.8178,2.8388,2.8679,2.9108,2.9572,2.9989,3.0177,3.0363,3.0193,2.9719,2.9204,2.9258,2.9306,2.9501,3.0047,3.0566,3.103,3.1537,3.2077,3.2381,3.2601,3.3018,3.3415,3.381,3.4205,3.507,3.5813,3.6219,3.6569,3.6918,1.7864,1.83,1.9423,1.9812,1.9652,2.013,2.0561,2.107,2.1965,2.2609,2.309,2.3528,2.3495,2.3715,2.4553,2.5065,2.5628,2.6182,2.655,2.6945,2.7359,2.8072,2.8637,2.9107,2.9863,3.0357,3.0556,2.9917,2.9005,2.8878,2.8472,2.7781,2.7606,2.7583,2.7606,2.7653,2.7618,2.7653,2.7677,2.7793,2.7816,2.7816,2.7816,2.7816,2.7816,2.7816,2.7816,2.7816,2.7816,2.7816,2.7816,2.7816,2.7816,2.7816,2.7816,2.7816,2.7816,2.7816,2.7816,2.7816,2.7816,2.7816,2.7816,2.7816,2.7816,2.7816,2.7816,2.7816,2.7816,2.7816,2.7816,2.7816,2.7816,2.7816,2.7816,2.7816,2.7816,2.7816,2.7816,2.7816,2.7816,2.7816,2.7816,2.7816,2.7863,2.7863,2.8038,2.8271,2.8644,2.9225,2.9657,2.9876,2.9796,2.9192,2.8615,2.8528,2.8755,2.8855,2.9076,2.9767,3.0411,3.0969,3.1492,3.1957,3.2242,3.2441,3.2819,3.3371,3.3609,3.3886,3.4792,3.5673,3.6083,3.6567,3.6898,1.7101,1.7945,1.8956,1.9459,1.9728,2.0198,2.0638,2.1099,2.1743,2.2079,2.2169,2.2631,2.3009,2.3433,2.3804,2.4368,2.5276,2.5918,2.6304,2.6761,2.7349,2.8203,2.8768,2.9185,2.9982,3.0619,3.0768,3.0447,2.9455,2.9271,2.8861,2.7946,2.777,2.777,2.777,2.7793,2.7805,2.7816,2.7793,2.7816,2.7816,2.7816,2.7816,2.7816,2.7816,2.7816,2.7816,2.7816,2.7816,2.7816,2.7816,2.7816,2.7816,2.7816,2.7816,2.7816,2.7816,2.7816,2.7816,2.7816,2.7816,2.7816,2.7816,2.7816,2.7816,2.7816,2.7816,2.7816,2.7816,2.7816,2.7816,2.7816,2.7816,2.7816,2.7816,2.7816,2.7816,2.7816,2.7816,2.7816,2.7816,2.7816,2.7816,2.7816,2.784,2.784,2.7816,2.8085,2.8551,2.9098,2.9325,2.9458,2.9016,2.8468,2.8096,2.8148,2.8317,2.8453,2.8626,2.9243,2.9905,3.0687,3.1411,3.1857,3.2182,3.2381,3.28,3.3351,3.3648,3.3945,3.4714,3.5556,3.6063,3.6567,3.6995,1.6443,1.7863,1.843,1.9039,1.9631,2.0205,2.0604,2.098,2.1479,2.1539,2.1542,2.2027,2.2478,2.2823,2.3221,2.3813,2.4748,2.5408,2.6014,2.6498,2.727,2.8151,2.9003,2.9238,2.9863,3.0553,3.0811,3.0515,2.9928,2.9412,2.8861,2.7934,2.7816,2.7816,2.7816,2.7816,2.7816,2.7816,2.7816,2.7816,2.7816,2.7816,2.7816,2.7816,2.7816,2.7816,2.7816,2.7816,2.7816,2.7816,2.7816,2.7816,2.7816,2.7816,2.7816,2.7816,2.7816,2.7816,2.7816,2.7816,2.7816,2.7816,2.7816,2.7816,2.7816,2.7816,2.7816,2.7816,2.7816,2.7816,2.7816,2.7816,2.7816,2.7816,2.7816,2.7816,2.7816,2.7816,2.7816,2.7816,2.7816,2.7816,2.7816,2.784,2.7886,2.7933,2.7956,2.8201,2.8737,2.9026,2.9326,2.9159,2.8607,2.814,2.7902,2.7855,2.7946,2.8075,2.8429,2.8857,2.9318,3.0122,3.0889,3.1517,3.2202,3.2541,3.2915,3.3431,3.3846,3.4182,3.4851,3.5634,3.618,3.6743,3.7171,1.6583,1.8181,1.8153,1.8499,1.8968,1.9703,2.0122,2.0328,2.0779,2.0893,2.1016,2.1415,2.1734,2.2141,2.2823,2.3416,2.4025,2.5118,2.583,2.5961,2.6981,2.802,2.8768,2.9264,2.9785,3.0501,3.0858,3.0764,3.0445,2.9764,2.8849,2.7887,2.7816,2.7816,2.7816,2.7816,2.7816,2.7816,2.7816,2.7816,2.7816,2.7816,2.7816,2.7816,2.7816,2.7816,2.7816,2.7816,2.7816,2.7816,2.7816,2.7816,2.7816,2.7816,2.7816,2.7816,2.7816,2.7816,2.7816,2.7816,2.7816,2.7816,2.7816,2.7816,2.7816,2.7816,2.7816,2.7816,2.7816,2.7816,2.7816,2.7816,2.7816,2.7816,2.7816,2.7816,2.7816,2.7816,2.7816,2.7816,2.7816,2.7816,2.7816,2.7816,2.7863,2.8306,2.8527,2.8713,2.9043,2.9175,2.9207,2.905,2.8446,2.7902,2.7689,2.7616,2.7645,2.7892,2.8328,2.8755,2.9081,2.9683,3.0364,3.1296,3.2182,3.2561,3.3038,3.3553,3.4028,3.4422,3.5067,3.5791,3.6396,3.6977,3.7441,1.6029,1.7238,1.7986,1.8544,1.9105,1.9989,2.047,2.0578,2.0755,2.081,2.081,2.1024,2.129,2.1654,2.2434,2.3044,2.3389,2.4721,2.5619,2.5909,2.6655,2.7695,2.8507,2.907,2.9681,3.0253,3.0695,3.0905,3.0585,2.9809,2.8801,2.7887,2.7816,2.7816,2.7816,2.7816,2.7816,2.7816,2.7816,2.7816,2.7816,2.7816,2.7816,2.7816,2.7816,2.7816,2.7816,2.7816,2.7816,2.7816,2.7816,2.7816,2.7816,2.7816,2.7816,2.7816,2.7816,2.7816,2.7816,2.7816,2.7816,2.7816,2.7816,2.7816,2.7816,2.7816,2.7816,2.7816,2.7816,2.7816,2.7816,2.7816,2.7816,2.7816,2.7816,2.7816,2.7816,2.7816,2.7816,2.7816,2.7816,2.7816,2.7816,2.7816,2.798,2.8481,2.8806,2.9095,2.9319,2.9307,2.9143,2.8792,2.8208,2.7702,2.758,2.7465,2.7495,2.768,2.8185,2.862,2.8843,2.9446,3.0304,3.1211,3.2077,3.266,3.3137,3.3656,3.4323,3.4874,3.5458,3.6141,3.6743,3.7267,3.7652,1.568,1.6627,1.7667,1.8425,1.8894,1.9716,2.0303,2.057,2.0757,2.081,2.081,2.081,2.0997,2.1396,2.207,2.262,2.3363,2.4245,2.5091,2.5856,2.6498,2.7381,2.8208,2.8966,2.9498,3.0097,3.0617,3.0893,3.0656,2.9858,2.8801,2.7946,2.784,2.7816,2.7816,2.7816,2.7816,2.7816,2.7816,2.7816,2.7816,2.7816,2.7816,2.7816,2.7816,2.7816,2.7816,2.7816,2.7816,2.7816,2.7816,2.7816,2.7816,2.7816,2.7816,2.7816,2.7816,2.7816,2.7816,2.7816,2.7816,2.7816,2.7816,2.7816,2.7816,2.7816,2.7816,2.7816,2.7816,2.7816,2.7816,2.7816,2.7816,2.7816,2.7816,2.7816,2.7816,2.7816,2.7816,2.7816,2.7816,2.7816,2.7863,2.791,2.8248,2.8644,2.9048,2.9423,2.9592,2.9346,2.9069,2.8455,2.7902,2.758,2.7432,2.7454,2.7447,2.7536,2.8124,2.864,2.8898,2.9419,3.0243,3.0969,3.1577,3.2302,3.3177,3.3992,3.4717,3.5266,3.5888,3.6491,3.7053,3.746,3.7864,1.5686,1.6546,1.7096,1.7721,1.8258,1.8472,1.9081,2.0017,2.0544,2.0784,2.081,2.0784,2.0864,2.1024,2.1671,2.2256,2.2832,2.368,2.4765,2.5724,2.6277,2.7265,2.813,2.8887,2.942,3.0045,3.0579,3.0869,3.0738,2.9835,2.8861,2.8086,2.7875,2.7816,2.7816,2.7816,2.7816,2.7816,2.7816,2.7816,2.7816,2.7816,2.7816,2.7816,2.7816,2.7816,2.7816,2.7816,2.7816,2.7816,2.7816,2.7816,2.7816,2.7816,2.7816,2.7816,2.7816,2.7816,2.7816,2.7816,2.7816,2.7816,2.7816,2.7816,2.7816,2.7816,2.7816,2.7816,2.7816,2.7816,2.7816,2.7816,2.7816,2.7816,2.7816,2.7816,2.7816,2.7816,2.7816,2.7816,2.7816,2.7816,2.7863,2.8213,2.8539,2.8979,2.941,2.9706,2.9546,2.9299,2.8692,2.8057,2.7749,2.7445,2.7454,2.7536,2.7577,2.7823,2.8348,2.8837,2.8999,2.9399,3.0263,3.0929,3.1291,3.2117,3.3355,3.4304,3.505,3.5735,3.6357,3.6956,3.7439,3.7787,3.8094,1.5288,1.5934,1.6526,1.7365,1.8204,1.8284,1.8472,1.8974,1.9857,2.0277,2.0383,2.0677,2.081,2.105,2.1618,2.2176,2.2593,2.331,2.4316,2.5751,2.6067,2.6856,2.7852,2.8726,2.9238,2.9695,3.0285,3.0705,3.0409,2.9681,2.8954,2.8321,2.8004,2.7852,2.7816,2.7816,2.7816,2.7816,2.7816,2.7816,2.7816,2.7816,2.7816,2.7816,2.7816,2.7816,2.7816,2.7816,2.7816,2.7816,2.7816,2.7816,2.7816,2.7816,2.7816,2.7816,2.7816,2.7816,2.7816,2.7816,2.7816,2.7816,2.7816,2.7816,2.7816,2.7816,2.7816,2.7816,2.7816,2.7816,2.7816,2.7816,2.7816,2.7816,2.7816,2.7816,2.7816,2.7816,2.7816,2.7816,2.7816,2.7816,2.7863,2.8318,2.8781,2.9259,2.9708,2.9562,2.9437,2.8861,2.8255,2.7848,2.7525,2.7639,2.7749,2.7749,2.7912,2.8137,2.8626,2.9135,2.9338,2.9561,3.0344,3.105,3.1452,3.2117,3.349,3.4615,3.5361,3.6083,3.6782,3.7325,3.7787,3.8112,3.8361,1.497,1.5374,1.6176,1.6956,1.7634,1.7687,1.7929,1.8365,1.9028,1.967,2.0044,2.0223,2.049,2.089,2.137,2.1902,2.2452,2.3071,2.3972,2.5444,2.5803,2.6498,2.7302,2.8245,2.8966,2.9375,2.982,3.0131,3.0081,2.9341,2.8859,2.852,2.8039,2.7852,2.7816,2.7816,2.7816,2.7816,2.7816,2.7816,2.7816,2.7816,2.7816,2.7816,2.7816,2.7816,2.7816,2.7816,2.7816,2.7816,2.7816,2.7816,2.7816,2.7816,2.7816,2.7816,2.7816,2.7816,2.7816,2.7816,2.7816,2.7816,2.7816,2.7816,2.7816,2.7816,2.7816,2.7816,2.7816,2.7816,2.7816,2.7816,2.7816,2.7816,2.7816,2.7816,2.7816,2.7816,2.7816,2.7816,2.7816,2.7816,2.8003,2.8434,2.8878,2.935,2.9685,2.9615,2.9082,2.8462,2.8226,2.7854,2.7721,2.7919,2.8069,2.8124,2.8287,2.8463,2.8871,2.9372,2.9656,2.9865,3.0526,3.119,3.1597,3.2097,3.3351,3.4556,3.5478,3.6413,3.7188,3.7805,3.8131,3.838,3.8705,1.4733,1.4895,1.5961,1.6439,1.6466,1.6519,1.7171,1.8016,1.8258,1.8874,1.9723,1.9788,2.0109,2.065,2.0864,2.1503,2.2248,2.2593,2.3469,2.488,2.5566,2.6156,2.6961,2.7821,2.8676,2.9056,2.9432,2.9758,2.9853,2.9057,2.8672,2.8356,2.8016,2.7816,2.7816,2.7816,2.7816,2.7816,2.7816,2.7816,2.7816,2.7816,2.7816,2.7816,2.7816,2.7816,2.7816,2.7816,2.7816,2.7816,2.7816,2.7816,2.7816,2.7816,2.7816,2.7816,2.7816,2.7816,2.7816,2.7816,2.7816,2.7816,2.7816,2.7816,2.7816,2.7816,2.7816,2.7816,2.7816,2.7816,2.7816,2.7816,2.7816,2.7816,2.7816,2.7816,2.7816,2.7816,2.7816,2.7816,2.7816,2.7886,2.8201,2.856,2.8997,2.9354,2.9671,2.9367,2.8721,2.8402,2.8451,2.8249,2.8164,2.8375,2.8552,2.8572,2.8654,2.8776,2.9074,2.9514,2.9839,3.0087,3.0592,3.1236,3.1817,3.2437,3.345,3.4497,3.5478,3.645,3.7362,3.8131,3.8399,3.8705,3.9125,1.443,1.4814,1.5164,1.5293,1.5428,1.6176,1.6734,1.709,1.7419,1.8077,1.8821,1.9414,1.9869,2.0277,2.0597,2.1237,2.1814,2.2425,2.3336,2.4342,2.5372,2.6119,2.6882,2.7616,2.8266,2.8353,2.8799,2.8899,2.8676,2.8585,2.8379,2.8122,2.7864,2.7828,2.7816,2.7816,2.7816,2.7816,2.7816,2.7816,2.7816,2.7816,2.7816,2.7816,2.7816,2.7816,2.7816,2.7816,2.7816,2.7816,2.7816,2.7816,2.7816,2.7816,2.7816,2.7816,2.7816,2.7816,2.7816,2.7816,2.7816,2.7816,2.7816,2.7816,2.7816,2.7816,2.7816,2.7816,2.7816,2.7816,2.7816,2.7816,2.7816,2.7956,2.7933,2.7956,2.7956,2.8108,2.8038,2.7968,2.7956,2.805,2.8388,2.8759,2.9146,2.9434,2.9517,2.9093,2.8596,2.8603,2.8665,2.866,2.8654,2.8857,2.906,2.9182,2.9304,2.9439,2.9703,3.0001,3.0142,3.0255,3.0664,3.1502,3.2217,3.2815,3.3668,3.4655,3.5576,3.6528,3.7401,3.8323,3.8648,3.9182,3.958,1.4155,1.4457,1.4457,1.4598,1.4814,1.5563,1.6122,1.6519,1.6848,1.7311,1.7962,1.8726,1.9422,1.9956,2.0437,2.0864,2.1601,2.2239,2.2983,2.3963,2.4923,2.5777,2.6461,2.7098,2.7765,2.797,2.8275,2.822,2.7774,2.8071,2.7992,2.7946,2.7852,2.7816,2.7816,2.7816,2.7816,2.7816,2.7816,2.7816,2.7816,2.7816,2.7816,2.7816,2.7816,2.7816,2.7816,2.7816,2.7816,2.7816,2.7816,2.7816,2.7816,2.7816,2.7816,2.7816,2.7816,2.7816,2.7816,2.7816,2.7816,2.7816,2.7816,2.7816,2.7816,2.7816,2.7816,2.7816,2.7816,2.7816,2.7816,2.7816,2.791,2.805,2.8143,2.8178,2.8295,2.8551,2.8574,2.8446,2.8388,2.8434,2.8713,2.9038,2.9323,2.9488,2.9173,2.8909,2.8824,2.8775,2.8919,2.8966,2.9196,2.9433,2.977,2.9891,2.9966,3.0203,3.048,3.0641,3.0768,3.0859,3.1226,3.1887,3.262,3.3391,3.4162,3.493,3.581,3.684,3.7709,3.8457,3.9087,3.9656,3.9978,1.3988,1.3988,1.3988,1.429,1.4679,1.476,1.5401,1.6251,1.6439,1.6848,1.7311,1.7969,1.884,1.9697,2.0044,2.0685,2.145,2.216,2.2717,2.3469,2.4457,2.5276,2.5988,2.6548,2.7069,2.7502,2.7721,2.7709,2.7621,2.7592,2.7711,2.777,2.7758,2.7793,2.7816,2.7816,2.7816,2.7816,2.7816,2.7816,2.7816,2.7816,2.7816,2.7816,2.7816,2.7816,2.7816,2.7816,2.7816,2.7816,2.7816,2.7816,2.7816,2.7816,2.7816,2.7816,2.7816,2.7816,2.7816,2.7816,2.7816,2.7816,2.7816,2.7816,2.7816,2.7816,2.7816,2.7816,2.7816,2.7816,2.7816,2.7863,2.805,2.8283,2.8527,2.8713,2.9108,2.926,2.9028,2.8924,2.897,2.9085,2.9341,2.9705,2.999,2.9693,2.9378,2.9096,2.9007,2.9259,2.9359,2.9616,2.9859,3.0122,3.0477,3.0612,3.0647,3.0843,3.105,3.1231,3.1452,3.1817,3.2087,3.2704,3.3236,3.4008,3.4792,3.5693,3.6532,3.7325,3.7998,3.8667,3.9296,3.9921,4.0318,1.3988,1.3988,1.3988,1.4074,1.4209,1.4598,1.4976,1.5347,1.6122,1.6573,1.6848,1.7318,1.7962,1.8767,1.9925,2.046,2.0517,2.1388,2.2106,2.2912,2.3839,2.4854,2.5671,2.6296,2.6623,2.6611,2.6983,2.7011,2.6929,2.6995,2.7162,2.7209,2.7548,2.777,2.7816,2.7816,2.7816,2.7816,2.7816,2.7816,2.7816,2.7816,2.7816,2.7816,2.7816,2.7816,2.7816,2.7816,2.7816,2.7816,2.7816,2.7816,2.7816,2.7816,2.7816,2.7816,2.7816,2.784,2.7945,2.7945,2.7816,2.7816,2.7816,2.7945,2.7886,2.7816,2.7816,2.7816,2.7816,2.7816,2.7816,2.7828,2.8178,2.8562,2.8946,2.9585,3.0002,2.9654,2.9412,2.9412,2.9505,2.9678,2.9879,3.0294,3.0199,2.9866,2.9588,2.9293,2.9508,2.9881,3.0168,3.0566,3.0728,3.0848,3.1075,3.117,3.1286,3.1441,3.1597,3.1802,3.2197,3.2561,3.2923,3.3379,3.3873,3.4638,3.5442,3.6416,3.7364,3.7979,3.8572,3.9068,3.9543,4.0148,4.0638,1.3988,1.3988,1.3988,1.3988,1.4042,1.429,1.4538,1.4868,1.5503,1.6041,1.6546,1.6875,1.7258,1.8103,1.9524,2.0166,2.0284,2.1122,2.1929,2.2699,2.3416,2.4421,2.5408,2.6017,2.6118,2.6132,2.6482,2.6585,2.6167,2.6259,2.6681,2.6951,2.7291,2.7548,2.777,2.7816,2.7816,2.7816,2.7816,2.7816,2.7816,2.7816,2.7816,2.7816,2.7816,2.7816,2.7816,2.7816,2.7816,2.7816,2.7816,2.7816,2.7816,2.7816,2.7816,2.7816,2.7828,2.8073,2.8388,2.847,2.8527,2.8504,2.8481,2.8318,2.812,2.798,2.7816,2.7816,2.7816,2.7933,2.8073,2.7944,2.8398,2.8968,2.9526,3.0059,3.029,3.0002,2.9899,2.9945,3.0,3.0041,3.0165,3.0151,2.9802,2.9871,3.002,2.9947,3.0224,3.0557,3.0955,3.1371,3.1452,3.1592,3.1732,3.1832,3.2008,3.2372,3.2541,3.278,3.3093,3.3351,3.3708,3.4126,3.4599,3.5288,3.6088,3.696,3.7825,3.8534,3.922,3.9637,4.0072,4.062,4.1089,1.3988,1.3988,1.3988,1.3988,1.3988,1.4015,1.4263,1.4652,1.4787,1.5395,1.6358,1.6499,1.6848,1.756,1.8808,1.949,2.0071,2.081,2.1609,2.2319,2.2956,2.3866,2.4906,2.5511,2.5587,2.5592,2.6343,2.6215,2.5689,2.5532,2.5989,2.6647,2.6905,2.7209,2.7595,2.7735,2.7816,2.7816,2.7816,2.7816,2.7816,2.7816,2.7816,2.7816,2.7816,2.7816,2.7816,2.7816,2.7816,2.7816,2.7816,2.7816,2.7816,2.7816,2.7816,2.7828,2.8003,2.8387,2.9074,2.918,2.9167,2.9144,2.9203,2.9098,2.8749,2.8364,2.8155,2.7968,2.7828,2.8015,2.8422,2.841,2.8921,2.956,3.0059,3.0392,3.0623,3.0441,3.051,3.0554,3.0242,3.0283,3.0286,2.9873,2.9575,3.013,3.0577,3.074,3.0975,3.1256,3.1632,3.1832,3.1937,3.2352,3.2552,3.2636,3.2915,3.3431,3.3668,3.3886,3.4103,3.432,3.4615,3.4969,3.5324,3.5932,3.6844,3.7634,3.8305,3.8992,3.9656,4.0167,4.062,4.107,4.1537,1.3988,1.3988,1.3988,1.3988,1.3988,1.3988,1.4074,1.4236,1.4565,1.5132,1.5772,1.6257,1.6741,1.7291,1.7775,1.8365,1.9288,2.0017,2.0944,2.1796,2.2487,2.3256,2.424,2.4911,2.532,2.5225,2.5711,2.5504,2.5098,2.5249,2.5532,2.5989,2.6717,2.7103,2.7267,2.7548,2.7782,2.7816,2.7816,2.7816,2.7816,2.7816,2.7816,2.7816,2.7816,2.7816,2.7816,2.7816,2.7816,2.7816,2.7816,2.7816,2.7816,2.7816,2.7828,2.7956,2.8621,2.9006,2.9354,2.9399,2.9505,2.9528,2.9412,2.9319,2.9133,2.9074,2.9005,2.8853,2.8491,2.8328,2.9108,2.969,3.0025,3.0313,3.0416,3.0633,3.0779,3.0923,3.0989,3.0685,3.0527,3.0368,3.0257,2.9916,3.0012,3.0491,3.1117,3.1311,3.1457,3.1812,3.2057,3.2257,3.2556,3.3014,3.3351,3.3435,3.3807,3.432,3.4615,3.4809,3.5028,3.5204,3.5654,3.6005,3.6357,3.6941,3.771,3.8515,3.9106,3.9675,4.0167,4.0694,4.1182,4.1649,4.2094,1.3988,1.3988,1.3988,1.3988,1.3988,1.3988,1.3988,1.4042,1.4263,1.4808,1.5449,1.5907,1.6478,1.713,1.7318,1.7962,1.8974,1.9723,2.0605,2.153,2.2248,2.2991,2.3741,2.4533,2.483,2.4881,2.4827,2.4701,2.4563,2.4967,2.5273,2.5555,2.5942,2.6564,2.6986,2.7279,2.7525,2.7793,2.7816,2.7816,2.7816,2.7816,2.7816,2.7816,2.7816,2.7816,2.7816,2.7816,2.7816,2.7816,2.7816,2.7816,2.7816,2.7886,2.8038,2.8667,2.9461,3.0021,2.9991,3.0012,2.9979,3.0012,3.0048,2.9932,2.9758,2.9711,2.9808,2.9821,2.9389,2.9399,2.9651,3.0246,3.0523,3.0534,3.0834,3.089,3.0813,3.1114,3.0847,3.0384,3.0483,3.0513,3.0345,3.0345,3.0452,3.0925,3.1577,3.1792,3.1933,3.2197,3.2461,3.2716,3.3014,3.3569,3.4162,3.4284,3.4576,3.5142,3.5514,3.5651,3.5808,3.5866,3.6275,3.6918,3.7633,3.8172,3.884,3.9258,3.9883,4.0468,4.0994,4.148,4.1852,4.2242,4.2741,1.3988,1.3988,1.3988,1.3988,1.3988,1.3988,1.3988,1.3988,1.4015,1.4581,1.5476,1.559,1.6263,1.7076,1.7318,1.7795,1.8653,1.9616,2.0517,2.137,2.2221,2.264,2.3211,2.3905,2.4303,2.421,2.3958,2.3988,2.4198,2.4552,2.493,2.532,2.5532,2.5872,2.6517,2.6986,2.7303,2.7525,2.7758,2.7816,2.7816,2.7816,2.7816,2.7816,2.7816,2.7816,2.7816,2.7816,2.7816,2.7816,2.7816,2.7816,2.7816,2.7816,2.8318,2.9133,3.0044,3.0544,3.0557,3.0646,3.0692,3.0738,3.0623,3.0462,3.0159,3.0055,3.0019,3.0149,3.0156,3.0194,3.0009,3.0151,3.0427,3.0623,3.0787,3.0959,3.0695,3.0839,3.0868,3.0243,3.0505,3.0708,3.0628,3.0607,3.0892,3.1421,3.1917,3.2172,3.2337,3.2596,3.2879,3.3177,3.351,3.4185,3.4874,3.5047,3.5302,3.5847,3.6139,3.6275,3.6372,3.6467,3.6954,3.7747,3.8477,3.9049,3.9562,4.0016,4.06,4.1237,4.1797,4.2335,4.2667,4.2981,4.3419,1.3988,1.3988,1.3988,1.3988,1.3988,1.3988,1.4015,1.4015,1.3988,1.4668,1.5422,1.5536,1.6263,1.7103,1.7345,1.7365,1.8022,1.9127,2.0383,2.1157,2.2088,2.2474,2.2589,2.3207,2.3635,2.3325,2.3069,2.3365,2.3856,2.4211,2.4481,2.4953,2.5273,2.5555,2.5884,2.6506,2.7056,2.7232,2.7595,2.7816,2.7816,2.7816,2.7816,2.7816,2.7816,2.7816,2.7816,2.7816,2.7816,2.7816,2.7816,2.7816,2.7816,2.7863,2.8248,2.9296,3.0196,3.0647,3.0731,3.0689,3.0687,3.0738,3.0712,3.0459,3.0119,3.0002,2.9856,2.968,2.9674,2.9639,2.9359,2.9666,2.9803,2.9996,3.0281,3.0425,3.0457,3.0676,3.0606,3.0131,3.0334,3.0699,3.0745,3.0936,3.1412,3.1847,3.2222,3.2536,3.2755,3.2998,3.3355,3.3672,3.4126,3.4772,3.5322,3.5556,3.5944,3.6372,3.6664,3.678,3.686,3.736,3.8055,3.8706,3.9201,3.9656,4.0166,4.0712,4.1311,4.1982,4.2501,4.2868,4.3291,4.3693,4.3912,1.3988,1.3988,1.3988,1.3988,1.3988,1.4015,1.4155,1.4376,1.4403,1.5018,1.5907,1.6041,1.6532,1.7291,1.7647,1.758,1.7808,1.9154,2.0437,2.1282,2.2037,2.2466,2.2527,2.2763,2.28,2.25,2.2462,2.2752,2.3217,2.3549,2.3961,2.4447,2.4636,2.4943,2.5532,2.6201,2.6681,2.701,2.7525,2.7816,2.7816,2.7816,2.7816,2.7816,2.7816,2.7816,2.7816,2.7816,2.7816,2.7816,2.7816,2.7816,2.7816,2.784,2.8318,2.9285,3.0196,3.0683,3.0615,3.0469,3.0333,3.0284,3.0201,3.0029,2.9921,3.0036,2.9728,2.9213,2.9351,2.9764,2.9756,2.9673,2.9686,2.996,3.0485,3.0575,3.0339,3.0325,3.0238,3.0114,3.0289,3.0598,3.0945,3.1292,3.1727,3.2102,3.2477,3.266,3.2899,3.3252,3.3633,3.4166,3.4694,3.5165,3.5673,3.6122,3.647,3.6877,3.7206,3.7381,3.767,3.8399,3.9125,3.9618,4.011,4.0506,4.0862,4.1442,4.2038,4.2612,4.3091,4.3419,4.3821,4.4297,4.4551,1.3988,1.3988,1.3988,1.4042,1.4128,1.4182,1.4452,1.4922,1.4949,1.5509,1.6337,1.6519,1.6929,1.7587,1.7989,1.8277,1.8485,1.9422,2.0597,2.1558,2.2268,2.2598,2.2576,2.2459,2.2181,2.1998,2.2205,2.2458,2.2671,2.3075,2.3407,2.3894,2.414,2.4447,2.5131,2.5707,2.6318,2.6834,2.7314,2.7606,2.7747,2.7816,2.7816,2.7816,2.7816,2.7816,2.7816,2.7816,2.7816,2.7816,2.7816,2.7816,2.7816,2.7816,2.8318,2.926,3.0189,3.0664,3.0492,3.006,2.9793,2.9879,2.9856,2.9721,2.9736,2.9958,2.9686,2.932,2.944,2.9706,2.9693,2.9499,2.9615,2.992,3.0407,3.0557,3.0208,3.0027,3.0019,3.0076,3.039,3.0839,3.1251,3.1602,3.2007,3.2322,3.2581,3.276,3.3058,3.3371,3.3906,3.45,3.493,3.5243,3.5771,3.6353,3.6858,3.738,3.7786,3.8112,3.8649,3.9315,3.9846,4.0412,4.0938,4.1331,4.1648,4.2186,4.261,4.3201,4.3714,4.3969,4.4315,4.4858,4.5201,1.3988,1.3988,1.4015,1.4263,1.4646,1.4733,1.5024,1.5422,1.5503,1.5874,1.6466,1.6573,1.7224,1.8345,1.8365,1.9088,2.0246,2.0151,2.0784,2.1527,2.2311,2.2622,2.2456,2.2328,2.2083,2.1838,2.1782,2.2172,2.2505,2.2591,2.2923,2.3349,2.3799,2.4117,2.4529,2.5189,2.5767,2.6342,2.68,2.7209,2.7723,2.7816,2.7816,2.7816,2.7816,2.7816,2.7816,2.7816,2.7816,2.7816,2.7816,2.7816,2.7816,2.7816,2.8329,2.9245,3.0159,3.0459,3.0037,2.9511,2.9374,2.9575,2.9631,2.9678,2.9558,2.9668,2.9714,2.9619,2.9124,2.9076,2.9035,2.9254,2.9467,2.9639,2.9904,3.0031,2.9958,2.9956,2.9954,2.9995,3.0742,3.111,3.1452,3.1862,3.2401,3.2441,3.262,3.2959,3.3391,3.3668,3.4126,3.4776,3.5165,3.5397,3.5986,3.6606,3.7227,3.7804,3.8208,3.8763,3.9296,4.0072,4.06,4.1088,4.1574,4.1982,4.2353,4.2778,4.3217,4.3714,4.41,4.4391,4.4717,4.524,4.5654,1.443,1.4457,1.4776,1.5018,1.5207,1.5213,1.5557,1.6035,1.6122,1.6445,1.6962,1.7365,1.7627,1.7895,1.884,1.967,2.0178,2.0677,2.1149,2.1703,2.2346,2.2563,2.2346,2.2083,2.1933,2.1768,2.1782,2.1911,2.2149,2.2125,2.2377,2.2828,2.3089,2.3549,2.4069,2.4812,2.5495,2.613,2.639,2.6917,2.7723,2.7816,2.7816,2.7816,2.7816,2.7816,2.7816,2.7816,2.7816,2.7816,2.7816,2.7816,2.7816,2.7816,2.8279,2.9302,3.0203,3.0155,2.9264,2.8796,2.8692,2.8819,2.9011,2.9015,2.9075,2.9508,2.9782,2.9917,2.9603,2.9379,2.9379,2.9555,2.9677,2.9691,2.9833,2.9934,2.9968,2.9954,2.9954,3.0156,3.0722,3.1326,3.1346,3.1977,3.2322,3.2501,3.266,3.3212,3.3704,3.3949,3.4327,3.5089,3.5595,3.5947,3.6452,3.6995,3.7575,3.7997,3.8457,3.9087,3.9846,4.0826,4.1238,4.1611,4.2149,4.2612,4.2887,4.3254,4.3657,4.4006,4.4409,4.4774,4.5114,4.5564,4.5886,1.497,1.5024,1.5368,1.5638,1.5799,1.5793,1.6176,1.6687,1.6875,1.7204,1.7613,1.8224,1.8378,1.8344,1.9529,1.9983,2.0219,2.0954,2.1496,2.1747,2.2345,2.249,2.2313,2.197,2.1768,2.1768,2.1782,2.1782,2.1782,2.1806,2.1997,2.2353,2.2543,2.3051,2.3833,2.441,2.5142,2.5931,2.6132,2.6649,2.7303,2.7606,2.7816,2.7816,2.7816,2.7816,2.7816,2.7816,2.7816,2.7816,2.7816,2.7816,2.7814,2.7825,2.8244,2.9067,2.9446,2.8932,2.829,2.7938,2.7938,2.8111,2.8485,2.8654,2.8755,2.9508,2.9873,2.9954,2.9954,2.9914,2.9934,2.9934,2.9934,2.9954,2.9934,2.9954,2.9954,2.9954,2.9954,3.0015,3.0607,3.107,3.1351,3.1837,3.2282,3.2481,3.2859,3.3395,3.3767,3.4103,3.4563,3.5344,3.5986,3.6413,3.6881,3.7383,3.7864,3.8285,3.8972,3.9675,4.0487,4.1313,4.1648,4.2057,4.2575,4.2997,4.3346,4.3657,4.3948,4.4239,4.4623,4.5006,4.5402,4.5948,4.6287,1.5503,1.5509,1.5557,1.6015,1.6492,1.6553,1.6875,1.7345,1.7855,1.8123,1.8304,1.8751,1.9453,2.0258,1.9998,2.0222,2.0686,2.1047,2.1386,2.1795,2.2178,2.2343,2.2267,2.1957,2.1782,2.1782,2.1782,2.1782,2.1782,2.1782,2.1782,2.1911,2.2315,2.2838,2.342,2.3904,2.4599,2.5508,2.5955,2.6191,2.6461,2.7245,2.7816,2.7816,2.7816,2.7816,2.7816,2.7816,2.7816,2.7781,2.7746,2.7708,2.7778,2.7773,2.802,2.8768,2.7304,2.7066,2.7365,2.7162,2.7201,2.788,2.83,2.8755,2.9115,2.9569,2.9873,2.9934,2.9954,2.9954,2.9954,2.9954,2.9954,2.9954,2.9954,2.9954,2.9954,2.9954,2.9954,3.0035,3.0289,3.0719,3.1271,3.1657,3.2082,3.2441,3.2939,3.3415,3.3827,3.4379,3.4857,3.5481,3.6158,3.6666,3.7344,3.7864,3.8362,3.8972,3.9864,4.0469,4.1107,4.1574,4.1927,4.2425,4.2942,4.3364,4.3711,4.3967,4.4239,4.4512,4.484,4.5201,4.5711,4.6345,4.6772,1.6089,1.6002,1.6902,1.7419,1.7634,1.7976,1.8251,1.8438,1.8653,1.8794,1.8817,1.9128,1.9863,2.0497,2.0161,2.023,2.079,2.1146,2.1259,2.1322,2.1716,2.1973,2.1961,2.1847,2.1782,2.1782,2.1782,2.1782,2.1782,2.1782,2.1782,2.1782,2.1973,2.2472,2.3288,2.3572,2.4258,2.5286,2.5429,2.5666,2.6333,2.7245,2.7816,2.7816,2.7816,2.7816,2.7816,2.7816,2.7652,2.7383,2.7347,2.7146,2.6788,2.6247,2.6004,2.6339,2.6188,2.6163,2.6532,2.6643,2.6949,2.7503,2.8001,2.8409,2.8816,2.9332,2.9691,2.9873,2.9954,2.9954,2.9954,2.9954,2.9954,2.9954,2.9954,2.9954,2.9954,2.9954,2.9954,3.0035,3.0269,3.0733,3.1211,3.1637,3.2042,3.2461,3.3113,3.3708,3.3945,3.4599,3.5361,3.6003,3.6489,3.7053,3.7766,3.8343,3.8877,3.9751,4.0619,4.1126,4.1518,4.1871,4.2075,4.2593,4.3107,4.3492,4.3985,4.4239,4.4475,4.4768,4.5078,4.5438,4.5868,4.6536,4.6965,1.6744,1.6797,1.7808,1.8185,1.829,1.858,1.8758,1.8731,1.8942,1.8995,1.9056,1.9369,1.9829,2.0194,2.0011,2.0019,2.0383,2.0788,2.0881,2.0788,2.1426,2.1792,2.1768,2.1782,2.1782,2.1782,2.1782,2.1782,2.1782,2.1782,2.1782,2.183,2.1949,2.2496,2.3288,2.3515,2.4093,2.5121,2.4997,2.5316,2.6227,2.7256,2.7816,2.7816,2.7816,2.7605,2.7313,2.7312,2.7125,2.6785,2.6762,2.646,2.5852,2.5287,2.4927,2.4827,2.5318,2.5678,2.5874,2.625,2.6661,2.7167,2.7694,2.8131,2.8572,2.906,2.9514,2.9873,2.9954,2.9954,2.9954,2.9954,2.9954,2.9954,2.9954,2.9954,2.9954,2.9954,2.9954,2.9995,3.0168,3.0592,3.115,3.1472,3.1977,3.2636,3.3332,3.3882,3.4142,3.4991,3.5888,3.6334,3.6898,3.7401,3.819,3.8878,3.9561,4.0431,4.1107,4.163,4.1908,4.2186,4.2261,4.2593,4.3146,4.3638,4.4149,4.4493,4.4693,4.4967,4.5309,4.5668,4.6043,4.644,4.6884,1.7461,1.7828,1.8059,1.8128,1.8175,1.8303,1.8176,1.834,1.8733,1.8975,1.9067,1.9519,1.9674,1.9607,1.9663,1.9644,1.9627,2.0048,2.0263,2.0349,2.1285,2.1711,2.1782,2.1782,2.1782,2.1782,2.1782,2.1782,2.1782,2.1782,2.1806,2.1911,2.2258,2.278,2.3359,2.3833,2.4363,2.4849,2.4937,2.5373,2.626,2.728,2.7828,2.7816,2.7746,2.7265,2.6353,2.6318,2.6351,2.6281,2.6246,2.5748,2.5037,2.5237,2.5283,2.4798,2.471,2.5001,2.5453,2.5878,2.625,2.6723,2.7456,2.8008,2.847,2.8959,2.9419,2.9758,2.9893,2.9954,2.9954,2.9877,2.9834,2.9905,2.9775,2.9727,2.9798,2.9897,2.9926,2.9826,2.9826,3.0295,3.1009,3.1371,3.1837,3.28,3.3474,3.3906,3.4245,3.5165,3.5869,3.6353,3.6995,3.771,3.8572,3.9448,4.0261,4.0976,4.15,4.1965,4.2186,4.2279,4.2335,4.2464,4.3017,4.351,4.4021,4.4493,4.4729,4.5125,4.5557,4.5936,4.6298,4.668,4.7012,1.6845,1.7987,1.8437,1.8582,1.8684,1.909,1.925,1.9293,1.9453,1.9496,1.9475,1.9439,1.9436,1.938,1.9117,1.8974,1.8967,1.9429,1.9882,2.0265,2.0925,2.1458,2.1711,2.1782,2.1782,2.1782,2.1782,2.1782,2.1782,2.1782,2.1949,2.2258,2.2448,2.2994,2.3738,2.3975,2.4495,2.5084,2.5008,2.5713,2.7139,2.7627,2.7828,2.7734,2.7119,2.6562,2.6259,2.6224,2.6083,2.5757,2.573,2.5398,2.4791,2.487,2.4884,2.4719,2.4675,2.4936,2.5391,2.5598,2.5928,2.6579,2.6916,2.7428,2.8131,2.8592,2.8999,2.9379,2.9677,2.9954,2.9863,2.9462,2.9202,2.9233,2.8951,2.8748,2.8748,2.8762,2.8777,2.8862,2.9093,2.9884,3.0972,3.1241,3.1742,3.2576,3.3375,3.3807,3.4166,3.5165,3.6253,3.6409,3.7227,3.8056,3.8649,3.9789,4.0845,4.1219,4.1648,4.2057,4.2335,4.2335,4.239,4.2483,4.2833,4.3309,4.3821,4.433,4.4783,4.5197,4.5502,4.5852,4.6491,4.6919,4.6726,1.6997,1.8041,1.8582,1.8781,1.8856,1.9204,1.9428,1.9403,1.9403,1.9403,1.9364,1.9166,1.9064,1.9145,1.881,1.8684,1.8739,1.9219,1.9714,2.0241,2.0766,2.1282,2.1735,2.1782,2.1782,2.1782,2.1782,2.1782,2.1782,2.1982,2.221,2.2543,2.2923,2.3397,2.4022,2.4292,2.4671,2.5212,2.5391,2.5757,2.6578,2.7415,2.7375,2.6703,2.603,2.5683,2.5662,2.5683,2.5531,2.5226,2.5182,2.5039,2.4722,2.4675,2.4675,2.4675,2.4675,2.482,2.5151,2.537,2.5742,2.6353,2.6558,2.7059,2.7838,2.8233,2.8538,2.8938,2.9399,2.9315,2.9054,2.9125,2.8999,2.8589,2.8316,2.8231,2.8174,2.8174,2.8174,2.8226,2.8483,2.9188,3.0225,3.0806,3.1312,3.2181,3.3193,3.3814,3.4225,3.5341,3.6331,3.6545,3.7438,3.8419,3.8668,4.0016,4.1068,4.133,4.17,4.2066,4.2333,4.2372,4.2251,4.2305,4.2702,4.3181,4.3519,4.4068,4.4783,4.5108,4.5012,4.5489,4.6541,4.6171,4.6079,1.7761,1.8017,1.8459,1.8683,1.8699,1.8723,1.8707,1.8762,1.8723,1.8691,1.8739,1.8707,1.8691,1.8707,1.8675,1.8684,1.8739,1.9147,1.9619,2.0137,2.0614,2.1196,2.1711,2.1735,2.1735,2.1782,2.1782,2.1782,2.183,2.2258,2.2543,2.2638,2.3525,2.4049,2.4173,2.4564,2.4854,2.4955,2.5609,2.5725,2.5186,2.67,2.6654,2.5054,2.4726,2.4778,2.4743,2.4719,2.4699,2.4687,2.4731,2.4699,2.4675,2.4675,2.464,2.4626,2.4602,2.457,2.4649,2.4976,2.5419,2.5879,2.6119,2.6821,2.7452,2.7654,2.7877,2.8362,2.8381,2.8153,2.7435,2.8269,2.8631,2.7709,2.781,2.7852,2.7923,2.7739,2.8037,2.7961,2.8003,2.844,2.9162,2.9832,3.0715,3.173,3.2891,3.3661,3.4014,3.5145,3.5933,3.6376,3.7372,3.8538,3.8634,3.926,4.0232,4.0732,4.1067,4.1975,4.2192,4.2251,4.2171,4.2202,4.2181,4.2489,4.3192,4.3758,4.4164,4.45,4.4353,4.4916,4.5825,4.5438,4.5181,1.7995,1.8451,1.8588,1.8684,1.8684,1.8684,1.8684,1.8684,1.8684,1.8684,1.8684,1.8684,1.8684,1.8684,1.8684,1.8684,1.8684,1.8788,1.9171,1.9643,1.9786,2.0352,2.1139,2.1196,2.141,2.1744,2.174,2.1773,2.183,2.2291,2.2766,2.317,2.3786,2.4081,2.4166,2.4621,2.4845,2.4896,2.4997,2.5231,2.537,2.5486,2.5272,2.474,2.4671,2.4675,2.4675,2.4675,2.4675,2.4696,2.4675,2.4675,2.4675,2.4675,2.4511,2.4148,2.3764,2.3553,2.3573,2.3672,2.3981,2.4435,2.4573,2.5007,2.5721,2.6119,2.6477,2.6711,2.5419,2.5362,2.6013,2.642,2.6483,2.6502,2.6085,2.591,2.5974,2.6195,2.6382,2.6432,2.7023,2.755,2.7895,2.882,2.9763,3.047,3.1321,3.1964,3.249,3.3275,3.4306,3.5386,3.6379,3.6915,3.6741,3.769,3.8534,3.9219,3.991,4.0373,4.035,4.0406,4.0423,4.0924,4.0595,4.0817,4.1687,4.1789,4.1997,4.2755,4.3282,4.382,4.4964,4.4503,4.4197,1.8299,1.8691,1.8684,1.8684,1.8684,1.8684,1.8684,1.8684,1.8684,1.8684,1.866,1.851,1.8368,1.825,1.836,1.8368,1.8274,1.825,1.8547,1.8993,1.9063,1.9452,2.0247,2.0433,2.0681,2.0969,2.1202,2.1318,2.1365,2.1621,2.2099,2.2748,2.3488,2.3848,2.3915,2.4314,2.455,2.4543,2.4651,2.4877,2.5187,2.4854,2.4675,2.4675,2.4675,2.4779,2.4945,2.4998,2.5081,2.5214,2.5018,2.4935,2.4935,2.4658,2.4339,2.387,2.3362,2.3144,2.3144,2.3144,2.3358,2.3862,2.3913,2.4165,2.4804,2.503,2.503,2.4778,2.3839,2.3571,2.4624,2.5007,2.5051,2.5115,2.5145,2.5107,2.5093,2.532,2.5413,2.5481,2.6104,2.6577,2.6761,2.7597,2.8601,2.9475,3.0319,3.1049,3.1442,3.223,3.3167,3.4024,3.4402,3.4781,3.5598,3.6424,3.7279,3.8077,3.8798,3.9285,3.9554,3.9541,3.9622,3.9682,3.9798,4.0023,4.0392,4.0667,4.1,4.1678,4.2344,4.2989,4.3858,4.3471,4.3301,1.8533,1.8597,1.8549,1.8565,1.8541,1.8549,1.8541,1.8549,1.8565,1.8573,1.8526,1.8181,1.7895,1.7727,1.7963,1.7956,1.7713,1.7689,1.7955,1.8363,1.8398,1.8656,1.9187,1.9546,1.9722,1.9952,2.0322,2.0584,2.0665,2.066,2.1082,2.1981,2.3009,2.352,2.3479,2.3846,2.4049,2.4119,2.4397,2.4596,2.469,2.4675,2.4675,2.4675,2.4737,2.4998,2.5403,2.5437,2.5607,2.592,2.541,2.5186,2.5129,2.4616,2.4088,2.3713,2.3212,2.3026,2.3038,2.2999,2.3149,2.364,2.3619,2.3792,2.4188,2.4213,2.3774,2.3126,2.3361,2.3277,2.2912,2.3973,2.4462,2.3965,2.441,2.4901,2.4848,2.5004,2.5008,2.504,2.5419,2.564,2.5835,2.6371,2.7304,2.8493,2.9355,3.0102,3.0562,3.1422,3.2072,3.2183,3.2193,3.2736,3.4258,3.5489,3.6157,3.7057,3.8134,3.8572,3.8731,3.8957,3.9324,3.8882,3.9197,3.9274,3.975,4.0283,4.0572,4.079,4.1464,4.2222,4.2292,4.2296,4.2399,1.7895,1.7895,1.7918,1.7895,1.7918,1.7895,1.7895,1.7872,1.7918,1.7918,1.7857,1.7616,1.7537,1.7704,1.7962,1.7939,1.7704,1.7681,1.7727,1.784,1.7863,1.8127,1.8633,1.8738,1.9145,1.979,1.9948,2.0195,2.0555,2.0591,2.1072,2.1981,2.3031,2.3309,2.2973,2.33,2.3667,2.3927,2.3756,2.3961,2.466,2.4681,2.469,2.4696,2.506,2.5329,2.5462,2.5371,2.5353,2.5408,2.4854,2.4519,2.45,2.4183,2.3869,2.3522,2.2521,2.2059,2.2318,2.208,2.1969,2.208,2.211,2.2245,2.2588,2.2404,2.2218,2.2262,2.219,2.234,2.267,2.3152,2.3213,2.3044,2.3421,2.3731,2.378,2.4259,2.4616,2.4665,2.495,2.5324,2.5573,2.5804,2.6297,2.7151,2.7752,2.834,2.8854,2.9137,2.9369,2.9565,3.0325,3.1384,3.2231,3.318,3.4174,3.5372,3.5883,3.6499,3.7081,3.7214,3.7356,3.7754,3.7743,3.7972,3.8133,3.8518,3.8918,3.9376,4.0003,4.0475,4.0818,4.1453,4.214,1.7681,1.7681,1.7681,1.7681,1.7681,1.7681,1.7681,1.7658,1.7372,1.726,1.7238,1.7097,1.712,1.7238,1.7422,1.737,1.7238,1.726,1.7238,1.723,1.7252,1.7406,1.7671,1.7839,1.8192,1.8667,1.9084,1.9448,1.9711,1.9961,2.0398,2.1109,2.1892,2.23,2.2426,2.281,2.318,2.3464,2.296,2.3095,2.3884,2.4429,2.4678,2.4675,2.4872,2.5131,2.5355,2.5233,2.5263,2.544,2.4877,2.4542,2.4548,2.4156,2.3659,2.3096,2.247,2.1969,2.1677,2.142,2.1245,2.1146,2.1171,2.1218,2.1193,2.0994,2.0942,2.114,2.1456,2.1561,2.1508,2.2245,2.2568,2.2195,2.2473,2.2786,2.3071,2.3601,2.3972,2.4008,2.4473,2.4879,2.5111,2.5271,2.5627,2.6173,2.6632,2.7144,2.7846,2.7826,2.7861,2.832,2.9119,3.0037,3.1101,3.1885,3.2714,3.3841,3.4559,3.5203,3.5664,3.6319,3.6599,3.682,3.705,3.7172,3.7309,3.7616,3.7933,3.8353,3.8863,3.937,3.9911,4.0645,4.1358,1.7486,1.7562,1.7517,1.7562,1.7539,1.7562,1.7562,1.7484,1.6862,1.6548,1.654,1.6548,1.6526,1.6548,1.6661,1.6664,1.6661,1.6661,1.6672,1.6719,1.6727,1.6727,1.6733,1.7066,1.7237,1.7365,1.808,1.8547,1.8708,1.9119,1.9576,2.0029,2.0453,2.1083,2.1787,2.2301,2.2605,2.2689,2.2185,2.2279,2.2919,2.4085,2.4643,2.4494,2.4494,2.4718,2.5144,2.5064,2.521,2.5509,2.5021,2.4712,2.4608,2.4167,2.3486,2.26,2.2611,2.2187,2.1165,2.1086,2.0952,2.0703,2.0725,2.0536,1.9933,1.9812,1.9876,2.0035,2.0653,2.0814,2.0266,2.1411,2.1962,2.1325,2.1529,2.1969,2.2473,2.2824,2.3017,2.3121,2.3777,2.404,2.4159,2.4548,2.4973,2.5417,2.5897,2.642,2.6871,2.6734,2.6858,2.7628,2.8088,2.884,2.996,3.0949,3.1868,3.2631,3.3807,3.4659,3.5161,3.5798,3.6253,3.6413,3.6738,3.6962,3.7063,3.7273,3.7627,3.7937,3.8449,3.8889,3.9464,3.949,3.9837,1.6497,1.6872,1.6902,1.688,1.6923,1.6858,1.688,1.6854,1.6092,0.0,0.0,1.5763,1.5763,1.5784,1.6423,1.6546,1.6247,1.6234,1.6413,1.6719,1.6727,1.6727,1.6741,1.6776,1.701,1.7301,1.745,1.7901,1.8674,1.875,1.9195,1.9946,2.0094,2.0474,2.0979,2.143,2.1566,2.1514,2.1808,2.2266,2.2931,2.4078,2.4262,2.3393,2.4102,2.4553,2.4631,2.4788,2.495,2.4993,2.4422,2.3902,2.35,2.3726,2.3395,2.2328,2.2262,2.2014,2.1521,2.1454,2.1304,2.0935,2.073,2.0247,1.9296,1.8931,1.9083,1.9956,1.9421,1.9314,1.9956,2.035,2.0448,2.0304,2.0609,2.1054,2.1522,2.1579,2.1811,2.2227,2.234,2.236,2.2763,2.3442,2.4098,2.4547,2.5146,2.584,2.5816,2.5167,2.4854,2.5601,2.6809,2.7844,2.8582,2.9716,3.1152,3.1917,3.2712,3.3812,3.5073,3.5449,3.5499,3.5787,3.6364,3.6533,3.6666,3.6958,3.7499,3.7599,3.8189,3.8778,3.8963,3.807,3.7555,1.5702,1.6123,1.6123,1.6131,0.0,1.6131,1.6131,1.6087,1.5704,1.5554,1.5554,1.5199,1.5259,1.5574,1.593,1.6014,1.5863,1.5822,1.5937,1.6111,1.6111,1.6111,1.6103,1.6111,1.6227,1.6412,1.6697,1.7069,1.7472,1.7875,1.8297,1.8748,1.923,1.9557,1.9832,2.0385,2.0643,2.0586,2.0637,2.1152,2.2143,2.3326,2.3554,2.289,2.3398,0.0,0.0,0.0,0.0,0.0,0.0,0.0,0.0,2.239,2.1974,2.1418,2.138,2.1031,2.0298,2.0227,2.0014,1.9644,1.9533,1.9049,1.8135,1.7835,1.7912,1.8404,1.8473,1.8564,1.8837,1.9098,1.9319,1.958,1.983,2.0058,2.0425,2.0729,2.114,2.165,2.1773,2.1817,2.2047,2.2608,2.306,2.3455,2.3932,2.4322,2.4636,2.4267,2.3986,2.4393,2.551,2.6419,2.716,2.8237,2.9144,3.012,3.0775,3.1657,3.2883,3.3213,3.3525,3.4146,3.4542,3.4905,3.5188,3.5481,3.5845,3.6187,3.6564,3.6852,3.6928,3.6584,3.6398,1.5089,1.5422,1.5514,1.5554,1.5546,1.5432,1.5357,1.5357,1.5274,1.527,1.5203,1.4668,1.4677,1.5175,1.5317,1.5361,1.5392,1.5448,1.5491,1.5554,1.5554,1.5554,1.5554,1.5554,1.5554,1.5574,1.5969,1.6217,1.6325,1.6956,1.7345,1.7504,1.825,1.8666,1.8734,0.0,0.0,0.0,1.9358,1.9849,2.1208,2.2118,2.25,2.2301,2.2592,0.0,2.3212,2.3121,2.3065,2.3031,2.2936,0.0,2.1882,0.0,0.0,0.0,0.0,0.0,0.0,0.0,0.0,0.0,1.7803,1.7428,1.6837,1.6759,1.6737,1.6848,1.746,1.774,1.7421,1.8005,1.8532,1.8656,1.8707,1.8792,1.8976,1.96,2.0256,2.0776,2.1054,2.1268,2.1309,2.1696,2.2065,2.2425,2.2633,2.2917,2.3301,2.3283,2.3379,2.3539,2.3907,2.4718,2.5788,2.6521,2.7323,2.7789,2.8649,2.9571,3.0207,3.0894,3.1719,3.2278,3.2683,3.3195,3.3652,3.387,3.4247,3.4724,3.4904,3.4812,3.448,3.486,3.5399,1.4716,1.5069,1.5394,1.5554,1.5487,1.4954,1.4701,1.4669,1.4329,1.4203,1.4169,1.3855,1.3774,1.3904,1.4429,1.4709,1.4709,1.5075,1.5345,1.5546,1.5554,1.5554,1.5554,1.5554,1.5554,1.5554,1.5594,1.589,1.6305,1.6425,1.6805,1.7464,1.7634,1.7833,1.8152,1.7934,1.8048,1.8472,1.8331,1.9064,2.0646,2.0747,2.0907,2.1198,2.1885,2.2286,2.2329,2.2224,2.227,2.2582,2.2153,2.1608,2.0862,2.0695,2.0102,0.0,1.9021,0.0,0.0,0.0,0.0,0.0,0.0,0.0,0.0,1.5847,1.6213,1.6545,1.6066,1.5916,1.6323,1.7608,1.7936,1.6729,1.6726,1.6796,1.6632,1.7456,1.8274,1.8791,1.9177,1.9486,1.9789,2.0479,2.111,2.1568,2.2151,2.2327,2.164,2.1502,2.1715,2.2175,2.23,2.2964,2.41,2.5462,2.6217,2.5899,2.7197,2.8697,2.8769,2.978,3.0739,3.1218,3.1903,3.2587,3.2786,3.325,3.372,3.3962,3.4192,3.3983,3.2801,3.2698,3.3207,1.3677,1.4443,1.4609,1.4614,1.4443,1.416,1.4051,1.4009,1.3849,1.3768,1.376,1.3654,1.3575,1.3634,1.3898,1.4033,1.4077,1.4236,1.4387,1.4474,1.4597,1.4691,1.4699,1.49,1.5006,1.4998,1.4986,1.5121,1.5349,1.5588,1.5877,1.6214,1.6627,1.6702,1.6477,1.6716,1.6946,1.7204,1.7579,1.8326,1.948,2.0114,2.0476,2.0676,2.1236,2.1584,2.1721,2.1668,2.1611,2.157,2.1095,2.0744,2.059,1.9371,1.8446,0.0,0.0,0.0,0.0,0.0,0.0,0.0,0.0,0.0,0.0,0.0,1.4623,1.5072,1.4745,1.4718,1.5344,1.6482,1.6889,1.6191,1.6219,1.602,1.5321,1.6298,1.7393,1.8358,1.8301,1.8397,1.8942,1.9447,2.0036,2.0836,2.1303,2.1356,2.0883,2.0885,2.1084,2.1376,2.1727,2.2189,2.2719,2.378,2.4549,2.4799,2.5649,2.6497,2.6984,2.7669,2.8336,2.8863,2.9596,3.0283,3.0637,3.1216,3.1679,3.1961,3.2063,3.1928,3.1613,3.1822,3.2249,1.2654,1.3597,1.3458,1.3334,1.3252,1.3303,1.3337,1.3312,1.325,1.3227,1.3219,1.3148,1.3108,1.3125,1.3455,1.3471,1.3235,1.3377,1.3456,1.3497,1.3758,1.3924,1.3932,1.4221,1.435,1.4358,1.4368,1.434,1.434,1.4668,1.4833,1.4935,1.5426,1.5412,1.4955,1.5649,1.615,1.6313,1.7007,1.7645,1.8266,1.9674,2.0304,2.0135,2.0587,2.0856,2.0944,2.0887,2.0751,2.0472,1.997,1.9701,1.9753,1.8076,0.0,0.0,0.0,0.0,0.0,0.0,0.0,0.0,0.0,1.2383,1.251,0.0,1.2802,0.0,1.3104,1.338,1.3956,1.4967,0.0,0.0,1.5201,1.4939,1.4158,1.5262,1.6631,1.7934,1.7598,1.7545,1.8288,1.8654,1.9153,1.9969,2.0406,2.0561,2.0411,2.0655,2.0931,2.1025,2.1483,2.188,2.2029,2.2471,2.3151,2.3979,2.4354,2.4634,2.5168,2.5634,2.6036,2.6415,2.6995,2.7705,2.8532,2.9042,2.9399,2.9359,2.9432,2.9607,3.0269,3.0776,3.1177,1.1826,1.2511,1.1918,1.1861,1.2205,1.2414,1.251,1.2487,1.2266,1.2155,1.2123,1.1814,1.1641,1.1725,1.3026,0.0,1.2225,1.279,1.3084,1.3082,1.3464,1.3623,1.3648,1.3672,1.3688,1.3688,1.3662,1.3688,1.367,1.3723,1.3906,1.4238,1.3974,1.3968,1.4276,1.4937,1.5622,1.6303,1.6724,1.6966,1.7103,1.9268,2.007,1.9382,1.9939,2.0098,1.9778,1.9533,1.9471,1.9523,1.9054,1.8341,1.7439,0.0,0.0,0.0,0.0,0.0,0.0,0.0,0.0,0.0,0.0,0.0,0.0,0.0,0.0,1.0156,1.0818,0.0,1.1866,1.3181,0.0,0.0,0.0,1.2709,1.2596,1.3974,1.5469,1.6886,0.0,0.0,1.7504,1.8315,1.8798,1.8663,1.9779,2.0389,1.9795,2.0226,2.0716,2.0906,2.1315,2.168,2.1841,2.2205,2.2583,2.2975,2.3844,2.4135,2.3739,2.4301,2.4706,2.454,2.4878,2.5701,2.6954,2.7435,2.7474,2.6483,2.7113,2.7818,2.8065,2.8659,2.925,1.0604,1.0971,1.0576,1.068,1.1103,1.1058,1.1095,1.113,1.1026,1.0991,1.0961,1.0821,1.055,1.0237,1.1183,0.0,0.0,0.0,1.1863,1.21,1.263,1.2907,1.2938,1.336,1.3575,1.3575,1.3575,1.3497,1.3248,1.3265,1.3047,1.2542,0.0,1.2732,1.3154,1.401,1.4709,1.5271,1.5869,1.6217,1.6234,1.7805,1.8848,1.9218,1.9424,1.9421,1.9172,1.8926,1.8695,1.8472,1.7641,1.6808,0.0,0.0,0.0,0.0,0.0,0.0,0.0,0.0,0.0,0.0,0.0,0.987,0.9958,0.0,0.0,0.0,0.9525,1.0195,1.0896,1.1697,0.0,0.0,0.0,0.0,0.0,0.0,0.0,1.445,1.4813,1.5325,1.6202,1.5816,1.5896,1.7043,1.8556,1.9404,1.8965,0.0,1.9716,2.0119,2.0427,2.0743,2.1089,2.1137,2.1232,2.1506,2.2023,2.236,2.2485,2.297,2.3345,2.3447,2.3853,2.4456,2.512,2.5036,2.4967,2.5517,2.6144,2.6775,2.7486,2.7947,2.8423,0.9211,0.0,0.0,0.0,0.0,0.9742,0.9792,0.987,0.9917,0.9922,0.9909,0.986,0.0,0.0,0.0,0.0,0.0,0.0,1.0792,1.1177,1.1723,1.2038,1.218,1.2742,1.2988,1.3012,1.3005,1.2861,1.2559,1.2282,1.1712,1.0875,0.0,0.0,0.0,0.0,1.3709,1.442,1.5079,1.5405,1.5404,1.6569,1.7822,1.9203,1.8877,1.852,1.8233,1.8029,1.7752,1.7393,1.6299,0.0,0.0,0.0,0.0,0.0,0.0,0.0,0.0,0.0,0.0,0.0,0.0,0.0,0.0,0.0,0.0,0.0,0.0,0.0,0.9491,1.0044,1.0458,0.0,0.0,0.0,0.0,0.0,0.0,0.0,0.0,0.0,1.4266,1.3564,1.3674,0.0,0.0,1.8117,1.8008,1.8333,1.8793,1.9225,1.9524,0.0,2.0153,2.0214,2.0288,2.0455,2.0718,2.0978,2.1337,2.1659,2.1922,2.2162,2.252,2.2673,2.2549,2.2188,2.2409,2.3538,2.414,2.4716,2.5557,2.6144,2.66,0.0,0.0,0.0,0.0,0.8283,0.0,0.0,0.0,0.8932,0.8973,0.0,0.8845,0.0,0.0,0.0,0.0,0.9377,0.9753,0.0,0.0,1.0743,1.1138,1.1483,1.1538,1.1546,1.1523,1.1539,1.1523,1.1451,1.0515,0.9805,0.0,0.0,0.0,0.0,0.0,1.2632,1.3947,1.442,1.4632,1.4647,1.5749,1.7259,1.9085,1.8233,1.7424,1.6815,1.6672,1.644,1.6159,1.5193,0.0,0.0,0.0,0.0,0.0,0.0,0.0,0.0,0.0,0.0,0.0,0.0,0.0,0.0,0.0,0.0,0.0,0.0,0.0,0.0,0.8076,0.0,0.0,0.0,0.0,0.0,0.0,0.0,0.0,0.0,1.2255,1.1745,1.2111,1.2869,1.3957,0.0,0.0,0.0,0.0,1.8194,1.8458,1.8714,1.8955,1.9237,1.9799,2.019,2.019,0.0,0.0,2.0159,2.0386,2.0578,2.0497,2.0527,2.0132,1.8949,1.9031,1.9414,2.0022,2.0662,2.1048,2.1441,2.2454,2.3244,0.0,0.0,0.0,0.0,0.0,0.0,0.0,0.0,0.0,0.7603,0.7693,0.765,0.0,0.0,0.0,0.0,0.0,0.0,0.0,0.0,0.9957,1.0341,1.0462,1.0629,1.0725,1.0711,1.0725,1.0275,0.0,0.0,0.0,0.0,0.0,0.0,0.0,0.0,1.2076,1.2955,1.3543,1.3812,1.3859,1.4985,1.5975,1.682,1.6973,1.6802,1.6238,1.5787,1.523,0.0,0.0,0.0,0.0,0.0,0.0,0.0,0.0,0.0,0.0,0.0,0.0,0.0,0.0,0.0,0.0,0.0,0.0,0.0,0.0,0.0,0.0,0.0,0.7906,0.0,0.0,0.0,0.0,0.0,0.0,0.0,0.0,0.0,1.0508,1.0744,1.1491,1.3024,1.3799,1.4499,1.5226,0.0,0.0,0.0,0.0,0.0,0.0,0.0,1.8373,1.8873,1.9016,1.8976,1.8699,1.8524,1.8495,1.8626,0.0,0.0,1.7626,1.7375,1.7554,1.8509,1.9123,1.9839,2.0727,2.146,2.2143,0.0,0.0,0.0,0.0,0.0,0.0,0.0,0.0,0.0,0.6604,0.6638,0.0,0.0,0.0,0.0,0.0,0.0,0.0,0.0,0.0,0.0,0.0,0.9398,0.9586,0.0,0.0,0.0,0.0,0.0,0.0,0.0,0.0,0.0,0.0,0.0,0.0,1.1366,1.2214,1.2785,1.3103,1.3116,1.431,1.5154,1.5535,1.5885,1.5978,1.5751,0.0,0.0,0.0,0.0,0.0,0.0,0.0,0.0,0.0,0.0,0.0,0.0,0.0,0.0,0.0,0.0,0.0,0.0,0.0,0.0,0.0,0.0,0.0,0.0,0.0,0.7131,0.0,0.0,0.0,0.0,0.0,0.0,0.0,0.0,0.0,0.0,0.9814,1.0515,1.1812,1.2565,1.32,1.3884,1.4402,1.4989,0.0,0.0,0.0,0.0,0.0,0.0,0.0,0.0,0.0,0.0,0.0,0.0,0.0,1.7007,1.6363,1.5851,1.565,1.5822,1.6667,0.0,0.0,0.0,0.0,0.0,0.0,0.0,0.0,0.0,0.0,0.0,0.0,0.0,0.0,0.0,0.5965,0.0,0.0,0.509,0.0,0.0,0.0,0.0,0.0,0.0,0.0,0.0,0.0,0.0,0.0,0.0,0.0,0.0,0.0,0.0,0.0,0.0,0.0,0.0,0.0,0.0,1.054,1.1793,1.2253,1.2443,1.2488,1.382,1.486,1.5479,1.504,1.4962,1.5275,0.0,0.0,0.0,0.0,0.0,0.0,0.0,0.0,0.0,0.0,0.0,0.0,0.0,0.0,0.0,0.0,0.0,0.0,0.0,0.0,0.0,0.0,0.0,0.0,0.0,0.0,0.6244,0.634,0.6533,0.0,0.0,0.0,0.0,0.0,0.0,0.0,0.0,0.0,1.0278,1.1711,1.2774,1.2817,1.3592,1.4262,1.4525,1.5021,1.5554,1.6226,1.6704,1.7058,0.0,0.0,0.0,0.0,0.0,0.0,0.0,0.0,0.0,0.0,0.0,0.0,0.0,0.0,0.0,0.0,0.0,0.0,0.0,0.0,0.0,0.0,0.0,0.0,0.0,0.0,0.0,0.0,0.0,0.0,0.0,0.0,0.0,0.0,0.0,0.0,0.0,0.0,0.0,0.0,0.0,0.0,0.0,0.0,0.0,0.0,0.0,0.0,0.0,0.0,0.0,0.0,0.0,0.0,1.0068,1.1164,1.174,1.2147,1.2456,1.3494,1.4301,1.4832,1.4635,1.4354,0.0,0.0,0.0,0.0,0.0,0.0,0.0,0.0,0.0,0.0,0.0,0.0,0.0,0.0,0.0,0.0,0.0,0.0,0.0,0.0,0.0,0.0,0.0,0.0,0.0,0.0,0.0,0.0,0.6109,0.6316,0.6372,0.0,0.0,0.0,0.0,0.0,0.0,0.0,0.0,0.0,0.0,1.1367,1.1941,1.2808,1.3523,1.3968,1.4475,1.5009,1.558,1.5793,1.6032,1.6442,0.0,0.0,0.0,0.0,0.0,0.0,0.0,0.0,0.0,0.0,0.0,0.0,0.0,0.0,0.0,0.0,0.0,0.0,0.0,0.0,0.0,0.0,0.0,0.0,0.0,0.0,0.0,0.0,0.0,0.0,0.0,0.0,0.0,0.0,0.0,0.0,0.0,0.0,0.0,0.0,0.0,0.0,0.0,0.0,0.0,0.0,0.0,0.0,0.0,0.0,0.0,0.0,0.0,0.9712,1.0871,1.1432,1.1959,1.2432,1.3239,1.3941,1.4571,1.4291,1.3918,0.0,0.0,0.0,0.0,0.0,0.0,0.0,0.0,0.0,0.0,0.0,0.0,0.0,0.0,0.0,0.0,0.0,0.0,0.0,0.0,0.0,0.0,0.0,0.0,0.0,0.0,0.0,0.0,0.5781,0.6008,0.5976,0.0,0.0,0.0,0.0,0.0,0.0,0.0,0.0,0.0,0.0,1.0364,1.0985,1.1879,0.0,0.0,1.369,1.419,1.4814,1.4946,1.5115,1.5587,1.5533,0.0,0.0,0.0,0.0,0.0,0.0,0.0,0.0,0.0,0.0,0.0,0.0,0.0,0.0,0.0,0.0,0.0,0.0,0.0,0.0,0.0,0.0,0.0,0.0,0.0,0.0,0.0,0.0,0.0,0.0,0.0,0.0,0.0,0.0,0.0,0.0,0.0,0.0,0.0,0.0,0.0,0.0,0.0,0.0,0.0,0.0,0.0,0.0,0.0,0.0,0.0,0.0,0.9403,1.0802,1.1248,1.1807,1.2416,1.3071,1.3773,1.4525,1.4022,1.3546,0.0,0.0,0.0,0.0,0.0,0.0,0.0,0.0,0.0,0.0,0.0,0.0,0.0,0.0,0.0,0.0,0.0,0.0,0.0,0.0,0.0,0.0,0.0,0.0,0.0,0.0,0.0,0.0,0.0,0.0,0.0,0.0,0.0,0.0,0.0,0.0,0.0,0.0,0.0,0.0,0.0,0.9625,0.9993,1.0923,1.1743,0.0,1.2687,1.3211,1.3979,1.422,1.4354,1.4469,0.0,0.0,0.0,0.0,0.0,0.0,0.0,0.0,0.0,0.0,0.0,0.0,0.0,0.0,0.0,0.0,0.0,0.0,0.0,0.0,0.0,0.0,0.0,0.0,0.0,0.0,0.0,0.0,0.0,0.0,0.0,0.0,0.0,0.0,0.0,0.0,0.0,0.0,0.0,0.0,0.0,0.0,0.0,0.0,0.0,0.0,0.0,0.0,0.0,0.0,0.0,0.0,0.0,0.0,1.0439,1.1123,1.1792,1.244,1.3087,1.3778,1.4521,1.3593,0.0,0.0,0.0,0.0,0.0,0.0,0.0,0.0,0.0,0.0,0.0,0.0,0.0,0.0,0.0,0.0,0.0,0.0,0.0,0.0,0.0,0.0,0.0,0.0,0.0,0.0,0.0,0.4818,0.0,0.0,0.0,0.0,0.0,0.0,0.0,0.0,0.0,0.0,0.0,0.0,0.0,0.0,0.908,0.9467,1.0074,1.0689,0.0,0.0,1.2507,1.3057,1.3427,1.3613,0.0,0.0,0.0,0.0,0.0,0.0,0.0,0.0,0.0,0.0,0.0,0.0,0.0,0.0,0.0,0.0,0.0,0.0,0.0,0.0,0.0,0.0,0.0,0.0,0.0,0.0,0.0,0.0,0.0,0.0,0.0,0.0,0.0,0.0,0.0,0.0,0.0,0.0,0.0,0.0,0.0,0.0,0.0,0.0,0.0,0.0,0.0,0.0,0.0,0.0,0.0,0.0,0.0,0.0,0.9022,1.0292,1.1098,1.1762,1.2424,1.3071,1.3608,1.404,1.3286,1.2488,0.0,0.0,0.0,0.0,0.0,0.0,0.0,0.0,0.0,0.0,0.0,0.0,0.0,0.0,0.0,0.0,0.0,0.0,0.0,0.0,0.0,0.0,0.0,0.0,0.0,0.0,0.0,0.0,0.0,0.0,0.0,0.0,0.0,0.0,0.0,0.0,0.0,0.0,0.0,0.0,0.0,0.0,0.9011,0.9549,0.0,0.0,0.0,1.174,1.2384,0.0,0.0,0.0,0.0,0.0,0.0,0.0,0.0,0.0,0.0,0.0,0.0,0.0,0.0,0.0,0.0,0.0,0.0,0.0,0.0,0.0,0.0,0.0,0.0,0.0,0.0,0.0,0.0,0.0,0.0,0.0,0.0,0.0,0.0,0.0,0.0,0.0,0.0,0.0,0.0,0.0,0.0,0.0,0.0,0.0,0.0,0.0,0.0,0.0,0.0,0.0,0.0,0.0,0.0,0.0,0.0,0.0,1.0279,1.1062,1.18,1.2416,1.3007,1.3322,1.3292,1.2954,1.2313,0.0,0.0,0.0,0.0,0.0,0.0,0.0,0.0,0.0,0.0,0.0,0.0,0.0,0.0,0.0,0.0,0.0,0.0,0.0,0.0,0.0,0.0,0.0,0.0,0.0,0.0,0.0,0.0,0.0,0.0,0.0,0.0,0.0,0.0,0.0,0.0,0.0,0.0,0.0,0.0,0.0,0.7984,0.8558,0.9105,0.9656,0.0,0.0,1.0973,1.1621,1.1445,0.0,0.0,0.0,0.0,0.0,0.0,0.0,0.0,0.0,0.0,0.0,0.0,0.0,0.0,0.0,0.0,0.0,0.0,0.0,0.0,0.0,0.0,0.0,0.0,0.0,0.0,0.0,0.0,0.0,0.0,0.0,0.0,0.0,0.0,0.0,0.0,0.0,0.0,0.0,0.0,0.0,0.0,0.0,0.0,0.0,0.0,0.0,0.0,0.0,0.0,0.0,0.0,0.0,0.0,0.0,0.0,1.0273,1.109,1.1792,1.2424,1.2568,1.2632,1.2632,1.247,1.1916,0.0,0.0,0.0,0.0,0.0,0.0,0.0,0.0,0.0,0.0,0.0,0.0,0.0,0.0,0.0,0.0,0.0,0.0,0.0,0.0,0.0,0.0,0.0,0.0,0.0,0.0,0.0,0.0,0.0,0.0,0.0,0.0,0.0,0.0,0.0,0.0,0.0,0.0,0.0,0.0,0.0,0.7832,0.7945,0.861,0.0,0.0,0.0,0.0,0.9888,1.0313,0.0,0.0,0.0,0.0,0.0,0.0,0.0,0.0,0.0,0.0,0.0,0.0,0.0,0.0,0.0,0.0,0.0,0.0,0.0,0.0,0.0,0.0,0.0,0.0,0.0,0.0,0.0,0.0,0.0,0.0,0.0,0.0,0.0,0.0,0.0,0.0,0.0,0.0,0.0,0.0,0.0,0.0,0.0,0.0,0.0,0.0,0.0,0.0,0.0,0.0,0.0,0.0,0.0,0.0,0.0,0.0,1.0093,1.1026,1.1698,1.2156,1.2353,1.246,1.2462,1.2331,1.1785,0.0,0.0,0.0,0.0,0.0,0.0,0.0,0.0,0.0,0.0,0.0,0.0,0.0,0.0,0.0,0.0,0.0,0.0,0.0,0.0,0.0,0.0,0.0,0.0,0.0,0.0,0.0,0.0,0.0,0.0,0.0,0.0,0.0,0.0,0.0,0.0,0.0,0.0,0.0,0.0,0.7099,0.7354,0.7474,0.0,0.0,0.0,0.0,0.0,0.0,0.9701,1.0101,0.0,0.0,0.0,0.0,0.0,0.0,0.0,0.0,0.0,0.0,0.0,0.0,0.0,0.0,0.0,0.0,0.0,0.0,0.0,0.0,0.0,0.0,0.0,0.0,0.0,0.0,0.0,0.0,0.0,0.0,0.0,0.0,0.0,0.0,0.0,0.0,0.0,0.0,0.0,0.0,0.0,0.0,0.0,0.0,0.0,0.0,0.0,0.0,0.0,0.0,0.0,0.0,0.0,0.0,0.0,0.9793,1.0689,1.1384,1.1874,1.2243,1.2413,1.2359,1.2273,1.1764,1.0774,0.0,0.0,0.0,0.0,0.0,0.0,0.0,0.0,0.0,0.0,0.0,0.0,0.0,0.0,0.0,0.0,0.0,0.0,0.0,0.0,0.0,0.0,0.0,0.0,0.0,0.0,0.0,0.0,0.0,0.0,0.0,0.0,0.0,0.0,0.0,0.0,0.0,0.0,0.0,0.671,0.6884,0.0,0.0,0.0,0.0,0.0,0.0,0.0,0.0,0.9513,0.0,0.0,0.0,0.0,0.0,0.0,0.0,0.0,0.0,0.0,0.0,0.0,0.0,0.0,0.0,0.0,0.0,0.0,0.0,0.0,0.0,0.0,0.0,0.0,0.0,0.0,0.0,0.0,0.0,0.0,0.0,0.0,0.0,0.0,0.0,0.0,0.0,0.0,0.0,0.0,0.0,0.0,0.0,0.0,0.0,0.0,0.0,0.0,0.0,0.0,0.0,0.0,0.0,0.0,0.0,0.0,0.9576,1.0439,1.1934,1.2298,1.2296,1.1967,1.2118,1.1548,1.0115,0.0,0.0,0.0,0.0,0.0,0.0,0.0,0.0,0.0,0.0,0.0,0.0,0.0,0.0,0.0,0.0,0.0,0.0,0.0,0.0,0.0,0.0,0.0,0.0,0.0,0.0,0.0,0.0,0.0,0.0,0.0,0.0,0.0,0.0,0.0,0.0,0.0,0.0,0.578,0.6402,0.0,0.0,0.0,0.0,0.0,0.0,0.0,0.0,0.8496,0.0,0.0,0.0,0.0,0.0,0.0,0.0,0.0,0.0,0.0,0.0,0.0,0.0,0.0,0.0,0.0,0.0,0.0,0.0,0.0,0.0,0.0,0.0,0.0,0.0,0.0,0.0,0.0,0.0,0.0,0.0,0.0,0.0,0.0,0.0,0.0,0.0,0.0,0.0,0.0,0.0,0.0,0.0,0.0,0.0,0.0,0.0,0.0,0.0,0.0,0.0,0.0,0.0,0.0,0.0,0.0,0.0,0.0,1.0128,1.1682,1.2211,1.2265,1.1902,1.1775,1.1077,0.0,0.0,0.0,0.0,0.0,0.0,0.0,0.0,0.0,0.0,0.0,0.0,0.0,0.0,0.0,0.0,0.0,0.0,0.0,0.0,0.0,0.0,0.0,0.0,0.0,0.0,0.0,0.0,0.0,0.0,0.0,0.0,0.0,0.0,0.0,0.0,0.0,0.0,0.0,0.0,0.0,0.0,0.0,0.0,0.0,0.0,0.0,0.0,0.0,0.0,0.0,0.0,0.0,0.0,0.0,0.0,0.0,0.0,0.0,0.0,0.0,0.0,0.0,0.0,0.0,0.0,0.0,0.0,0.0,0.0,0.0,0.0,0.0,0.0,0.0,0.0,0.0,0.0,0.0,0.0,0.0,0.0,0.0,0.0,0.0,0.0,0.0,0.0,0.0,0.0,0.0,0.0,0.0,0.0,0.0,0.0,0.0,0.0,0.0,0.0,0.0,0.0,0.0,0.0,0.0,0.0,0.0,0.0,1.0034,1.1519,1.214,1.2234,1.1798,1.1358,1.0576,0.0,0.0,0.0,0.0,0.0,0.0,0.0,0.0,0.0,0.0,0.0,0.0,0.0,0.0,0.0,0.0,0.0,0.0,0.0,0.0,0.0,0.0,0.0,0.0,0.0,0.0,0.0,0.0,0.0,0.0,0.0,0.0,0.0,0.0,0.0,0.0,0.0,0.0,0.0,0.0,0.0,0.0,0.0,0.0,0.0,0.0,0.0,0.0,0.7216,0.0,0.0,0.0,0.0,0.0,0.0,0.0,0.0,0.0,0.0,0.0,0.0,0.0,0.0,0.0,0.0,0.0,0.0,0.0,0.0,0.0,0.0,0.0,0.0,0.0,0.0,0.0,0.0,0.0,0.0,0.0,0.0,0.0,0.0,0.0,0.0,0.0,0.0,0.0,0.0,0.0,0.0,0.0,0.0,0.0,0.0,0.0,0.0,0.0,0.0,0.0,0.0,0.0,0.0,0.0,0.0,0.0,0.0,0.0,1.0129,1.1777,1.2233,1.2117,1.1535,1.1039,1.0152,0.0,0.0,0.0,0.0,0.0,0.0,0.0,0.0,0.0,0.0,0.0,0.0,0.0,0.0,0.0,0.0,0.0,0.0,0.0,0.0,0.0,0.0,0.0,0.0,0.0,0.0,0.0,0.0,0.0,0.0,0.0,0.0,0.0,0.0,0.0,0.0,0.0,0.0,0.0,0.0,0.0,0.0,0.0,0.0,0.0,0.0,0.0,0.0,0.0,0.0,0.0,0.0,0.0,0.0,0.0,0.0,0.0,0.0,0.0,0.0,0.0,0.0,0.0,0.0,0.0,0.0,0.0,0.0,0.0,0.0,0.0,0.0,0.0,0.0,0.0,0.0,0.0,0.0,0.0,0.0,0.0,0.0,0.0,0.0,0.0,0.0,0.0,0.0,0.0,0.0,0.0,0.0,0.0,0.0,0.0,0.0,0.0,0.0,0.0,0.0,0.0,0.0,0.0,0.0,0.0,0.0,0.0,0.0,0.9787,1.1811,1.2242,1.2015,1.1174,1.0684,0.9928,0.0,0.0,0.0,0.0,0.0,0.0,0.0,0.0,0.0,0.0,0.0,0.0,0.0,0.0,0.0,0.0,0.0,0.0,0.0,0.0,0.0,0.0,0.0,0.0,0.0,0.0,0.0,0.0,0.0,0.0,0.0,0.0,0.0,0.0,0.0,0.0,0.0,0.0,0.0,0.0,0.0,0.0,0.0,0.0,0.0,0.0,0.0,0.0,0.0,0.0,0.0,0.0,0.0,0.0,0.0,0.0,0.0,0.0,0.0,0.0,0.0,0.0,0.0,0.0,0.0,0.0,0.0,0.0,0.0,0.0,0.0,0.0,0.0,0.0,0.0,0.0,0.0,0.0,0.0,0.0,0.0,0.0,0.0,0.0,0.0,0.0,0.0,0.0,0.0,0.0,0.0,0.0,0.0,0.0,0.0,0.0,0.0,0.0,0.0,0.0,0.0,0.0,0.0,0.0,0.0,0.0,0.0,0.0,0.0,1.1341,1.1955,1.1668,1.0656,1.0243,0.9597,0.0,0.0,0.0,0.0,0.0,0.0,0.0,0.0,0.0,0.0,0.0,0.0,0.0,0.0,0.0,0.0,0.0,0.0,0.0,0.0,0.0,0.0,0.0,0.0,0.0,0.0,0.0,0.0,0.0,0.0,0.0,0.0,0.0,0.0,0.0,0.0,0.0,0.0,0.0,0.0,0.0,0.0,0.0,0.0,0.0,0.0,0.0,0.0,0.0,0.0,0.0,0.0,0.0,0.0,0.0,0.0,0.0,0.0,0.0,0.0,0.0,0.0,0.0,0.0,0.0,0.0,0.0,0.0,0.0,0.0,0.0,0.0,0.0,0.0,0.0,0.0,0.0,0.0,0.0,0.0,0.0,0.0,0.0,0.0,0.0,0.0,0.0,0.0,0.0,0.0,0.0,0.0,0.0,0.0,0.0,0.0,0.0,0.0,0.0,0.0,0.0,0.0,0.0,0.0,0.0,0.0,0.0,0.0,0.0,1.0347,1.1134,1.1038,0.9976,0.9591,0.9098,0.0,0.0,0.0,0.0,0.0,0.0,0.0,0.0,0.0,0.0,0.0,0.0,0.0,0.0,0.0,0.0,0.0,0.0,0.0,0.0,0.0,0.0,0.0,0.0,0.0,0.0,0.0,0.0,0.0,0.0,0.0,0.0,0.0,0.0,0.0,0.0,0.0,0.0,0.0,0.0,0.0,0.0,0.0,0.0,0.0,0.0,0.0,0.0,0.0,0.0,0.0,0.0,0.0,0.0,0.0,0.0,0.0,0.0,0.0,0.0,0.0,0.0,0.0,0.0,0.0,0.0,0.0,0.0,0.0,0.0,0.0,0.0,0.0,0.0,0.0,0.0,0.0,0.0,0.0,0.0,0.0,0.0,0.0,0.0,0.0,0.0,0.0,0.0,0.0,0.0,0.0,0.0,0.0,0.0,0.0,0.0,0.0,0.0,0.0,0.0,0.0,0.0,0.0,0.0,0.0,0.0,0.0,0.0,0.0,0.9062,1.0167,1.0222,0.9212,0.9035,0.865,0.8025,0.0,0.0,0.0,0.0,0.0,0.0,0.0,0.0,0.0,0.0,0.0,0.0,0.0,0.0,0.0,0.0,0.0,0.0,0.0,0.0,0.0,0.0,0.0,0.0,0.0,0.0,0.0,0.0,0.0,0.0,0.0,0.0,0.0,0.0,0.0,0.0,0.0,0.0,0.0,0.0,0.0,0.0,0.0,0.0,0.0,0.0,0.0,0.0,0.0,0.0,0.0,0.0,0.0,0.0,0.0,0.0,0.0,0.0,0.0,0.0,0.0,0.0,0.0,0.0,0.0,0.0,0.0,0.0,0.0,0.0,0.0,0.0,0.0,0.0,0.0,0.0,0.0,0.0,0.0,0.0,0.0,0.0,0.0,0.0,0.0,0.0,0.0,0.0,0.0,0.0,0.0,0.0,0.0,0.0,0.0,0.0,0.0,0.0,0.0,0.0,0.0,0.0,0.0,0.0,0.0,0.0,0.0,0.0,0.7762,0.9219,0.9454,0.8346,0.8255,0.798,0.0,0.0,0.0,0.0,0.0,0.0,0.0,0.0,0.0,0.0,0.0,0.0,0.0,0.0,0.0,0.0,0.0,0.0,0.0,0.0,0.0,0.0,0.0,0.0,0.0,0.0,0.0,0.0,0.0,0.0,0.0,0.0,0.0,0.0,0.0,0.0,0.0,0.0,0.0,0.0,0.0,0.0,0.0,0.0,0.0,0.0,0.0,0.0,0.0,0.0,0.0,0.0,0.0,0.0,0.0,0.0,0.0,0.0,0.0,0.0,0.0,0.0,0.0,0.0,0.0,0.0,0.0,0.0,0.0,0.0,0.0,0.0,0.0,0.0,0.0,0.0,0.0,0.0,0.0,0.0,0.0,0.0,0.0,0.0,0.0,0.0,0.0,0.0,0.0,0.0,0.0,0.0,0.0,0.0,0.0,0.0,0.0,0.0,0.0,0.0,0.0,0.0,0.0,0.0,0.0,0.0,0.0,0.0,0.5507,0.6461,0.8304,0.8657,0.7273,0.7242,0.7042,0.0,0.0,0.0,0.0,0.0,0.0,0.0,0.0,0.0,0.0,0.0,0.0,0.0,0.0,0.0,0.0,0.0,0.0,0.0,0.0,0.0,0.0,0.0,0.0,0.0,0.0,0.0,0.0,0.0,0.0,0.0,0.0,0.0,0.0,0.0,0.0,0.0,0.0,0.0,0.0,0.0,0.0,0.0,0.0,0.0,0.0,0.0,0.0,0.0,0.0,0.0,0.0,0.0,0.0,0.0,0.0,0.0,0.0,0.0,0.0,0.0,0.0,0.0,0.0,0.0,0.0,0.0,0.0,0.0,0.0,0.0,0.0,0.0,0.0,0.0,0.0,0.0,0.0,0.0,0.0,0.0,0.0,0.0,0.0,0.0,0.0,0.0,0.0,0.0,0.0,0.0,0.0,0.0,0.0,0.0,0.0,0.0,0.0,0.0,0.0,0.0,0.0,0.0,0.0,0.0,0.0,0.0,0.0,0.0,0.503,0.0,0.7588,0.6956,0.6922,0.6725,0.0,0.0,0.0,0.0,0.0,0.0,0.0,0.0,0.0,0.0,0.0,0.0,0.0,0.0,0.0,0.0,0.0,0.0,0.0,0.0,0.0,0.0,0.0,0.0,0.0,0.0,0.0,0.0,0.0,0.0,0.0,0.0,0.0,0.0,0.0,0.0,0.0,0.0,0.0,0.0,0.0,0.0,0.0,0.0,0.0,0.0,0.0,0.0,0.0,0.0,0.0,0.0,0.0,0.0,0.0,0.0,0.0,0.0,0.0,0.0,0.0,0.0,0.0,0.0,0.0,0.0,0.0,0.0,0.0,0.0,0.0,0.0,0.0,0.0,0.0,0.0,0.0,0.0,0.0,0.0,0.0,0.0,0.0,0.0,0.0,0.0,0.0,0.0,0.0,0.0,0.0,0.0,0.0,0.0,0.0,0.0,0.0,0.0,0.0,0.0,0.0,0.0,0.0,0.0,0.0,0.0,0.0,0.0,0.0,0.3935,0.5434,0.6236,0.6188,0.6322,0.6124,0.0,0.0,0.0,0.0,0.0,0.0,0.0,0.0,0.0,0.0,0.0,0.0,0.0,0.0,0.0,0.0,0.0,0.0,0.0,0.0,0.0,0.0,0.0,0.0,0.0,0.0,0.0,0.0,0.0,0.0,0.0,0.0,0.0,0.0,0.0,0.0,0.0,0.0,0.0,0.0,0.0,0.0,0.0,0.0,0.0,0.0,0.0,0.0,0.0,0.0,0.0,0.0,0.0,0.0,0.0,0.0,0.0,0.0,0.0,0.0,0.0,0.0,0.0,0.0,0.0,0.0,0.0,0.0,0.0,0.0,0.0,0.0,0.0,0.0,0.0,0.0,0.0,0.0,0.0,0.0,0.0,0.0,0.0,0.0,0.0,0.0,0.0,0.0,0.0,0.0,0.0,0.0,0.0,0.0,0.0,0.0,0.0,0.0,0.0,0.0,0.0,0.0,0.0,0.0,0.0,0.0,0.0,0.0,0.0,0.3183,0.416,0.4766,0.5079,0.5397,0.536,0.0,0.0,0.0,0.0,0.0,0.0,0.0,0.0,0.0,0.0,0.0,0.0,0.0,0.0,0.0,0.0,0.0,0.0,0.0,0.0,0.0,0.0,0.0,0.0,0.0,0.0,0.0,0.0,0.0,0.0,0.0,0.0,0.0,0.0,0.0,0.0,0.0,0.0,0.0,0.0,0.0,0.0,0.0,0.0,0.0,0.0,0.0,0.0,0.0,0.0,0.0,0.0,0.0,0.0,0.0,0.0,0.0,0.0,0.0,0.0,0.0,0.0,0.0,0.0,0.0,0.0,0.0,0.0,0.0,0.0,0.0,0.0,0.0,0.0,0.0,0.0,0.0,0.0,0.0,0.0,0.0,0.0,0.0,0.0,0.0,0.0,0.0,0.0,0.0,0.0,0.0,0.0,0.0,0.0,0.0,0.0,0.0,0.0,0.0,0.0,0.0,0.0,0.0,0.0,0.0,0.0,0.0,0.0,0.0,0.0,0.384,0.4446,0.4886,0.5119,0.5058,0.4705,0.0,0.0,0.0,0.0,0.0,0.0,0.0,0.0,0.0,0.0,0.0,0.0,0.0,0.0,0.0,0.0,0.0,0.0,0.0,0.0,0.0,0.0,0.0,0.0,0.0,0.0,0.0,0.0,0.0,0.0,0.0,0.0,0.0,0.0,0.0,0.0,0.0,0.0,0.0,0.0,0.0,0.0,0.0,0.0,0.0,0.0,0.0,0.0,0.0,0.0,0.0,0.0,0.0,0.0,0.0,0.0,0.0,0.0,0.0,0.0,0.0,0.0,0.0,0.0,0.0,0.0,0.0,0.0,0.0,0.0,0.0,0.0,0.0,0.0,0.0,0.0,0.0,0.0,0.0,0.0,0.0,0.0,0.0,0.0,0.0,0.0,0.0,0.0,0.0,0.0,0.0,0.0,0.0,0.0,0.0,0.0,0.0,0.0,0.0,0.0,0.0,0.0,0.0,0.0,0.0,0.0,0.0,0.0,0.0,0.0,0.4121,0.4848,0.463,0.4464,0.0,0.0,0.0,0.0,0.0,0.0,0.0,0.0,0.0,0.0,0.0,0.0,0.0,0.0,0.0,0.0,0.0,0.0,0.0,0.0,0.0,0.0,0.0,0.0,0.0,0.0,0.0,0.0,0.0,0.0,0.0,0.0,0.0,0.0,0.0,0.0,0.0,0.0,0.0,0.0,0.0,0.0,0.0,0.0,0.0,0.0,0.0,0.0,0.0,0.0,0.0,0.0,0.0,0.0,0.0,0.0,0.0,0.0,0.0,0.0,0.0,0.0,0.0,0.0,0.0,0.0,0.0,0.0,0.0,0.0,0.0,0.0,0.0,0.0,0.0,0.0,0.0,0.0,0.0,0.0,0.0,0.0,0.0,0.0,0.0,0.0,0.0,0.0,0.0,0.0,0.0,0.0,0.0,0.0,0.0,0.0,0.0,0.0,0.0,0.0,0.0,0.0,0.0,0.0,0.0,0.0,0.0,0.0,0.0,0.0,0.0,0.3739,0.4697,0.4077,0.0,0.4034,0.0,0.0,0.0,0.0,0.0,0.0,0.0,0.0,0.0,0.0,0.0,0.0,0.0,0.0,0.0,0.0,0.0,0.0,0.0,0.0,0.0,0.0,0.0,0.0,0.0,0.0,0.0,0.0,0.0,0.0,0.0,0.0,0.0,0.0,0.0,0.0,0.0,0.0,0.0,0.0,0.0,0.0,0.0,0.0,0.0,0.0,0.0,0.0,0.0,0.0,0.0,0.0,0.0,0.0,0.0,0.0,0.0,0.0,0.0,0.0,0.0,0.0,0.0,0.0,0.0,0.0,0.0,0.0,0.0,0.0,0.0,0.0,0.0,0.0,0.0,0.0,0.0,0.0,0.0,0.0,0.0,0.0,0.0,0.0,0.0,0.0,0.0,0.0,0.0,0.0,0.0,0.0,0.0,0.0,0.0,0.0,0.0,0.0,0.0,0.0,0.0,0.0,0.0,0.0,0.0,0.0,0.0,0.0,0.0,0.0,0.0,0.0,0.3722,0.3769,0.3943,0.0,0.0,0.0,0.0,0.0,0.0,0.0,0.0,0.0,0.0,0.0,0.0,0.0,0.0,0.0,0.0,0.0,0.0,0.0,0.0,0.0,0.0,0.0,0.0,0.0,0.0,0.0,0.0,0.0,0.0,0.0,0.0,0.0,0.0,0.0,0.0,0.0,0.0,0.0,0.0,0.0,0.0,0.0,0.0,0.0,0.0,0.0,0.0,0.0,0.0,0.0,0.0,0.0,0.0,0.0,0.0,0.0,0.0,0.0,0.0,0.0,0.0,0.0,0.0,0.0,0.0,0.0,0.0,0.0,0.0,0.0,0.0,0.0,0.0,0.0,0.0,0.0,0.0,0.0,0.0,0.0,0.0,0.0,0.0,0.0,0.0,0.0,0.0,0.0,0.0,0.0,0.0,0.0,0.0,0.0,0.0,0.0,0.0,0.0,0.0,0.0,0.0,0.0,0.0,0.0,0.0,0.0,0.0,0.0,0.0,0.3162,0.3499,0.3618,0.3759,0.3866,0.0,0.0,0.0,0.0,0.0,0.0,0.0,0.0,0.0,0.0,0.0,0.0,0.0,0.0,0.0,0.0,0.0,0.0,0.0,0.0,0.0,0.0,0.0,0.0,0.0,0.0,0.0,0.0,0.0,0.0,0.0,0.0,0.0,0.0,0.0,0.0,0.0,0.0,0.0,0.0,0.0,0.0,0.0,0.0,0.0,0.0,0.0,0.0,0.0,0.0,0.0,0.0,0.0,0.0,0.0,0.0,0.0,0.0,0.0,0.0,0.0,0.0,0.0,0.0,0.0,0.0,0.0,0.0,0.0,0.0,0.0,0.0,0.0,0.0,0.0,0.0,0.0,0.0,0.0,0.0,0.0,0.0,0.0,0.0,0.0,0.0,0.0,0.0,0.0,0.0,0.0,0.0,0.0,0.0,0.0,0.0,0.0,0.0,0.0,0.0,0.0,0.0,0.0,0.0,0.0,0.0,0.0,0.0,0.0,0.0,0.0,0.0,0.0,0.0,0.3882,0.0,0.0,0.0,0.0,0.0,0.0,0.0,0.0,0.0,0.0,0.0,0.0,0.0,0.0,0.0,0.0,0.0,0.0,0.0,0.0,0.0,0.0,0.0,0.0,0.0,0.0,0.0,0.0,0.0,0.0,0.0,0.0,0.0,0.0,0.0,0.0,0.0,0.0,0.0,0.0,0.0,0.0,0.0,0.0,0.0,0.0,0.0,0.0,0.0,0.0,0.0,0.0,0.0,0.0,0.0,0.0,0.0,0.0,0.0,0.0,0.0,0.0,0.0,0.0,0.0,0.0,0.0,0.0,0.0,0.0,0.0,0.0,0.0,0.0,0.0,0.0,0.0,0.0,0.0,0.0,0.0,0.0,0.0,0.0,0.0,0.0,0.0,0.0,0.0,0.0,0.0,0.0,0.0,0.0,0.0,0.0,0.0,0.0,0.0,0.0,0.0,0.0,0.0,0.0,0.0,0.0,0.0,0.0,0.0,0.0,0.0,0.0,0.0,0.0,0.0,0.0,0.0,0.0,0.0,0.0,0.0,0.0,0.0,0.0,0.0,0.0,0.0,0.0,0.0,0.0,0.0,0.0,0.0,0.0,0.0,0.0,0.0,0.0,0.0,0.0,0.0,0.0,0.0,0.0,0.0,0.0,0.0,0.0,0.0,0.0,0.0,0.0,0.0,0.0,0.0,0.0,0.0,0.0,0.0,0.0,0.0,0.0,0.0,0.0,0.0,0.0,0.0,0.0,0.0,0.0,0.0,0.0,0.0,0.0,0.0,0.0,0.0,0.0,0.0,0.0,0.0,0.0,0.0,0.0,0.0,0.0,0.0,0.0,0.0,0.0,0.0,0.0,0.0,0.0,0.0,0.0,0.0,0.0,0.0,0.0,0.0,0.0,0.0,0.0,0.0,0.0,0.0,0.0,0.0,0.0,0.0,0.0,0.0,0.0,0.0,0.0,0.0,0.0,0.0,0.0,0.0,0.0,0.0,0.0,0.0,0.0,0.0,0.0,0.0,0.0,0.0,0.0,0.0,0.0,0.0,0.0,0.0,0.0,0.0,0.0,0.0,0.0,0.0,0.0,0.0,0.0,0.0,0.0,0.0,0.0,0.0,0.0,0.0,0.0,0.0,0.0,0.0,0.0,0.0,0.0,0.0,0.0,0.0,0.0,0.0,0.0,0.0,0.0,0.0,0.0,0.0,0.0,0.0,0.0,0.0,0.0,0.0,0.0,0.0,0.0,0.0,0.0,0.0,0.0,0.0,0.0,0.0,0.0,0.0,0.0,0.0,0.0,0.0,0.0,0.0,0.0,0.0,0.0,0.0,0.0,0.0,0.0,0.0,0.0,0.0,0.0,0.0,0.0,0.0,0.0,0.0,0.0,0.0,0.0,0.0,0.0,0.0,0.0,0.0,0.0,0.0,0.0,0.0,0.0,0.0,0.0,0.0,0.0,0.0,0.0,0.0,0.0,0.0,0.0,0.0,0.0,0.0,0.0,0.0,0.0,0.0,0.0,0.0,0.0,0.0,0.0,0.0,0.0,0.0,0.0,0.0,0.0,0.0,0.0,0.0,0.0,0.0,0.0,0.0,0.0,0.0,0.0,0.0,0.0,0.0,0.0,0.0,0.0,0.0,0.0,0.0,0.0,0.0,0.0,0.0,0.0,0.0,0.0,0.0,0.0,0.0,0.0,0.0,0.0,0.0,0.0,0.0,0.0,0.0,0.0,0.0,0.0,0.0,0.0,0.0,0.0,0.0,0.0,0.0,0.0,0.0,0.0,0.0,0.0,0.0,0.0,0.0,0.0,0.0,0.0,0.0,0.0,0.0,0.0,0.0,0.0,0.0,0.0,0.0,0.0,0.0,0.0,0.0,0.0,0.0,0.0,0.0,0.0,0.0,0.0,0.0,0.0,0.0,0.0,0.0,0.0,0.0,0.0,0.0,0.0,0.0,0.0,0.0,0.0,0.0,0.0,0.0,0.0,0.0,0.0,0.0,0.0,0.0,0.0,0.0,0.0,0.0,0.0,0.0,0.0,0.0,0.0,0.0,0.0,0.0,0.0,0.0,0.0,0.0,0.0,0.0,0.0,0.0,0.0,0.0,0.0,0.0,0.0,0.0,0.0,0.0,0.0,0.0,0.0,0.0,0.0,0.0,0.0,0.0,0.0,0.0,0.0,0.0,0.0,0.0,0.0,0.0,0.0,0.0,0.0,0.0,0.0,0.0,0.0,0.0,0.0,0.0,0.0,0.0,0.0,0.0,0.0,0.0,0.0,0.0,0.0,0.0,0.0,0.0,0.0,0.0,0.0,0.0,0.0,0.0,0.0,0.0,0.0,0.0,0.0,0.0,0.0,0.0,0.0,0.0,0.0,0.0,0.0,0.0,0.0,0.0,0.0,0.0,0.0,0.0,0.0,0.0,0.0,0.0,0.0,0.0,0.0,0.0,0.0,0.0,0.0,0.0,0.0,0.0,0.0,0.0,0.0,0.0,0.0,0.0,0.0,0.0,0.0,0.0,0.0,0.0,0.0,0.0,0.0,0.0,0.0,0.0,0.0,0.0,0.0,0.0,0.0,0.0,0.0,0.0,0.0,0.0,0.0,0.0,0.0,0.0,0.0,0.0,0.0,0.0,0.0,0.0,0.0,0.0,0.0,0.0,0.0,0.0,0.0,0.0,0.0,0.0,0.0,0.0,0.0,0.0,0.0,0.0,0.0,0.0,0.0,0.0,0.0,0.0,0.0,0.0,0.0,0.0,0.0,0.0,0.0,0.0,0.0,0.0,0.0,0.0,0.0,0.0,0.0,0.0,0.0,0.0,0.0,0.0,0.0,0.0,0.0,0.0,0.0,0.0,0.0,0.0,0.0,0.0,0.0,0.0,0.0,0.0,0.0,0.0,0.0,0.0,0.0,0.0,0.0,0.0,0.0,0.0,0.0,0.0,0.0,0.0,0.0,0.0,0.0,0.0,0.0,0.0,0.0,0.0,0.0,0.0,0.0,0.0,0.0,0.0,0.0,0.0,0.0,0.0,0.0,0.0,0.0,0.0,0.0,0.0,0.0,0.0,0.0,0.0,0.0,0.0,0.0,0.0,0.0,0.0,0.0,0.0,0.0,0.0,0.0,0.0,0.0,0.0,0.0,0.0,0.0,0.0,0.0,0.0,0.0,0.0,0.0,0.0,0.0,0.0,0.0,0.0,0.0,0.0,0.0,0.0,0.0,0.0,0.0,0.0,0.0,0.0,0.0,0.0,0.0,0.0,0.0,0.0,0.0,0.0,0.0,0.0,0.0,0.0,0.0,0.0,0.0,0.0,0.0,0.0,0.0,0.0,0.0,0.0,0.0,0.0,0.0,0.0,0.0,0.0,0.0,0.0,0.0,0.0,0.0,0.0,0.0,0.0,0.0,0.0,0.0,0.0,0.0,0.0,0.0,0.0,0.0,0.0,0.0,0.0,0.0,0.0,0.0,0.0,0.0,0.0,0.0,0.0,0.0,0.0,0.0,0.0,0.0,0.0,0.0,0.0,0.0,0.0,0.0,0.0,0.0,0.0,0.0,0.0,0.0,0.0,0.0,0.0,0.0,0.0,0.0,0.0,0.0,0.0,0.0,0.0,0.0,0.0,0.0,0.0,0.0,0.0,0.0,0.0,0.0,0.0,0.0,0.0,0.0,0.0,0.0,0.0,0.0,0.0,0.0,0.0,0.0,0.0,0.0,0.0,0.0,0.0,0.0,0.0,0.0,0.0,0.0,0.0,0.0,0.0,0.0,0.0,0.0,0.0,0.0,0.0,0.0,0.0,0.0,0.0,0.0,0.0,0.0,0.0,0.0,0.0,0.0,0.0,0.0,0.0,0.0,0.0,0.0,0.0,0.0,0.0,0.0,0.0,0.0,0.0,0.0,0.0,0.0,0.0,0.0,0.0,0.0,0.0,0.0,0.0,0.0,0.0,0.0,0.0,0.0,0.0,0.0,0.0,0.0,0.0,0.0,0.0,0.0,0.0,0.0,0.0,0.0,0.0,0.0,0.0,0.0,0.0,0.0,0.0,0.0,0.0,0.0,0.0,0.0,0.0,0.0,0.0,0.0,0.0,0.0,0.0,0.0,0.0,0.0,0.0,0.0,0.0,0.0,0.0,0.0,0.0,0.0,0.0,0.0,0.0,0.0,0.0,0.0,0.0,0.0,0.0,0.0,0.0,0.0,0.0,0.0,0.0,0.0,0.0,0.0,0.0,0.0,0.0,0.0,0.0,0.0,0.0,0.0,0.0,0.0,0.0,0.0,0.0,0.0,0.0,0.0,0.0,0.0,0.0,0.0,0.0,0.0,0.0,0.0,0.0,0.0,0.0,0.0,0.0,0.0,0.0,0.0]}]]]